[[{"header":{"parameterUnit":"m.s-1","parameterCategory":1,"la1":30.6,"la2":28.766,"lo1":-90.7593,"lo2":-88.6598,"dy":0.0162,"dx":0.0183,"nx":116,"ny":114,"refTime":"2023-05-24T12:00:00:Z","depth":0,"parameterNumber":2,"parameterNumberName":"U-component_of_WINDS"},"data":[0.0,0.0,0.0,0.0,0.0,0.0,0.0,0.0,0.0,0.0,0.0,0.0,0.0,0.0,0.0,0.0,0.0,0.0,0.0,0.0,0.0,0.0,0.0,0.0,0.0,0.0,0.0,0.0,0.0,0.0,0.0,0.0,0.0,0.0,0.0,0.0,0.0,0.0,0.0,0.0,0.0,0.0,0.0,0.0,0.0,0.0,0.0,0.0,0.0,0.0,0.0,0.0,0.0,0.0,0.0,0.0,0.0,0.0,0.0,0.0,0.0,0.0,0.0,0.0,0.0,0.0,0.0,0.0,0.0,0.0,0.0,0.0,0.0,0.0,0.0,0.0,0.0,0.0,0.0,0.0,0.0,0.0,0.0,0.0,0.0,0.0,0.0,0.0,0.0,0.0,0.0,0.0,0.0,0.0,0.0,0.0,0.0,0.0,0.0,0.0,0.0,0.0,0.0,0.0,0.0,0.0,0.0,0.0,0.0,0.0,0.0,0.0,0.0,0.0,0.0,0.0,0.0,0.0,0.0,0.0,0.0,0.0,0.0,0.0,0.0,0.0,0.0,0.0,0.0,0.0,0.0,0.0,0.0,0.0,0.0,0.0,0.0,0.0,0.0,0.0,0.0,0.0,0.0,0.0,0.0,0.0,0.0,0.0,0.0,0.0,0.0,0.0,0.0,0.0,0.0,0.0,0.0,0.0,0.0,0.0,0.0,0.0,0.0,0.0,0.0,0.0,0.0,0.0,0.0,0.0,0.0,0.0,0.0,0.0,0.0,0.0,0.0,0.0,0.0,0.0,0.0,0.0,0.0,0.0,0.0,0.0,0.0,0.0,0.0,0.0,0.0,0.0,0.0,0.0,0.0,0.0,0.0,0.0,0.0,0.0,0.0,0.0,0.0,0.0,0.0,0.0,0.0,0.0,0.0,0.0,0.0,0.0,0.0,0.0,0.0,0.0,0.0,0.0,0.0,0.0,0.0,0.0,0.0,0.0,0.0,0.0,0.0,0.0,0.0,0.0,0.0,0.0,0.0,0.0,0.0,0.0,0.0,0.0,0.0,0.0,0.0,0.0,0.0,0.0,0.0,0.0,0.0,0.0,0.0,0.0,0.0,0.0,0.0,0.0,0.0,0.0,0.0,0.0,0.0,0.0,0.0,0.0,0.0,0.0,0.0,0.0,0.0,0.0,0.0,0.0,0.0,0.0,0.0,0.0,0.0,0.0,0.0,0.0,0.0,0.0,0.0,0.0,0.0,0.0,0.0,0.0,0.0,0.0,0.0,0.0,0.0,0.0,0.0,0.0,0.0,0.0,0.0,0.0,0.0,0.0,0.0,0.0,0.0,0.0,0.0,0.0,0.0,0.0,0.0,0.0,0.0,0.0,0.0,0.0,0.0,0.0,0.0,0.0,0.0,0.0,0.0,0.0,0.0,0.0,0.0,0.0,0.0,0.0,0.0,0.0,0.0,0.0,0.0,0.0,0.0,0.0,0.0,0.0,0.0,0.0,0.0,0.0,0.0,0.0,0.0,0.0,0.0,0.0,0.0,0.0,0.0,0.0,0.0,0.0,0.0,0.0,0.0,0.0,0.0,0.0,0.0,0.0,0.0,0.0,0.0,0.0,0.0,0.0,0.0,0.0,0.0,0.0,0.0,0.0,0.0,0.0,0.0,0.0,0.0,0.0,0.0,0.0,0.0,0.0,0.0,0.0,0.0,0.0,0.0,0.0,0.0,0.0,0.0,0.0,0.0,0.0,0.0,0.0,0.0,0.0,0.0,0.0,0.0,0.0,0.0,0.0,0.0,0.0,0.0,0.0,0.0,0.0,0.0,0.0,0.0,0.0,0.0,0.0,0.0,0.0,0.0,0.0,0.0,0.0,0.0,0.0,0.0,0.0,0.0,0.0,0.0,0.0,0.0,0.0,0.0,0.0,0.0,0.0,0.0,0.0,0.0,0.0,0.0,0.0,0.0,0.0,0.0,0.0,0.0,0.0,0.0,0.0,0.0,0.0,0.0,0.0,0.0,0.0,0.0,0.0,0.0,0.0,0.0,0.0,0.0,0.0,0.0,0.0,0.0,0.0,0.0,0.0,0.0,0.0,0.0,0.0,0.0,0.0,0.0,0.0,0.0,0.0,0.0,0.0,0.0,0.0,0.0,0.0,0.0,0.0,0.0,0.0,0.0,0.0,0.0,0.0,0.0,0.0,0.0,0.0,0.0,0.0,0.0,0.0,0.0,0.0,0.0,0.0,0.0,0.0,0.0,0.0,0.0,0.0,0.0,0.0,0.0,0.0,0.0,0.0,0.0,0.0,0.0,0.0,0.0,0.0,0.0,0.0,0.0,0.0,0.0,0.0,0.0,0.0,0.0,0.0,0.0,0.0,0.0,0.0,0.0,0.0,0.0,0.0,0.0,0.0,0.0,0.0,0.0,0.0,0.0,0.0,0.0,0.0,0.0,0.0,0.0,0.0,0.0,0.0,0.0,0.0,0.0,0.0,0.0,0.0,0.0,0.0,0.0,0.0,0.0,0.0,0.0,0.0,0.0,0.0,0.0,0.0,0.0,0.0,0.0,0.0,0.0,0.0,0.0,0.0,0.0,0.0,0.0,0.0,0.0,0.0,0.0,0.0,0.0,0.0,0.0,0.0,0.0,0.0,0.0,0.0,0.0,0.0,0.0,0.0,0.0,0.0,0.0,0.0,0.0,0.0,0.0,0.0,0.0,0.0,0.0,0.0,0.0,0.0,0.0,0.0,0.0,0.0,0.0,0.0,0.0,0.0,0.0,0.0,0.0,0.0,0.0,0.0,0.0,0.0,0.0,0.0,0.0,0.0,0.0,0.0,0.0,0.0,0.0,0.0,0.0,0.0,0.0,0.0,0.0,0.0,0.0,0.0,0.0,0.0,0.0,0.0,0.0,0.0,0.0,0.0,0.0,0.0,0.0,0.0,0.0,0.0,0.0,0.0,0.0,0.0,0.0,0.0,0.0,0.0,0.0,0.0,0.0,0.0,0.0,0.0,0.0,0.0,0.0,0.0,0.0,0.0,0.0,0.0,0.0,0.0,0.0,0.0,0.0,0.0,0.0,0.0,0.0,0.0,0.0,0.0,0.0,0.0,0.0,0.0,0.0,0.0,0.0,0.0,0.0,0.0,0.0,0.0,0.0,0.0,0.0,0.0,0.0,0.0,0.0,0.0,0.0,0.0,0.0,0.0,0.0,0.0,0.0,0.0,0.0,0.0,0.0,0.0,0.0,0.0,0.0,0.0,0.0,0.0,0.0,0.0,0.0,0.0,0.0,0.0,0.0,0.0,0.0,0.0,0.0,0.0,0.0,0.0,0.0,0.0,0.0,0.0,0.0,0.0,0.0,0.0,0.0,0.0,0.0,0.0,0.0,0.0,0.0,0.0,0.0,0.0,0.0,0.0,0.0,0.0,0.0,0.0,0.0,0.0,0.0,0.0,0.0,0.0,0.0,0.0,0.0,0.0,0.0,0.0,0.0,0.0,0.0,0.0,0.0,0.0,0.0,0.0,0.0,0.0,0.0,0.0,0.0,0.0,0.0,0.0,0.0,0.0,0.0,0.0,0.0,0.0,0.0,0.0,0.0,0.0,0.0,0.0,0.0,0.0,0.0,0.0,0.0,0.0,0.0,0.0,0.0,0.0,0.0,0.0,0.0,0.0,0.0,0.0,0.0,0.0,0.0,0.0,0.0,0.0,0.0,0.0,0.0,0.0,0.0,0.0,0.0,0.0,0.0,0.0,0.0,0.0,0.0,0.0,0.0,0.0,0.0,0.0,0.0,0.0,0.0,0.0,0.0,0.0,0.0,0.0,0.0,0.0,0.0,0.0,0.0,0.0,0.0,0.0,0.0,0.0,0.0,0.0,0.0,0.0,0.0,0.0,0.0,0.0,0.0,0.0,0.0,0.0,0.0,0.0,0.0,0.0,0.0,0.0,0.0,0.0,0.0,0.0,0.0,0.0,0.0,0.0,0.0,0.0,0.0,0.0,0.0,0.0,0.0,0.0,0.0,0.0,0.0,0.0,0.0,0.0,0.0,0.0,0.0,0.0,0.0,0.0,0.0,0.0,0.0,0.0,0.0,0.0,0.0,0.0,0.0,0.0,0.0,0.0,0.0,0.0,0.0,0.0,0.0,0.0,0.0,0.0,0.0,0.0,0.0,0.0,0.0,0.0,0.0,0.0,0.0,0.0,0.0,0.0,0.0,0.0,0.0,0.0,0.0,0.0,0.0,0.0,0.0,0.0,0.0,0.0,0.0,0.0,0.0,0.0,0.0,0.0,0.0,0.0,0.0,0.0,0.0,0.0,0.0,0.0,0.0,0.0,0.0,0.0,0.0,0.0,0.0,0.0,0.0,0.0,0.0,0.0,0.0,0.0,0.0,0.0,0.0,0.0,0.0,0.0,0.0,0.0,0.0,0.0,0.0,0.0,0.0,0.0,0.0,0.0,0.0,0.0,0.0,0.0,0.0,0.0,0.0,0.0,0.0,0.0,0.0,0.0,0.0,0.0,0.0,0.0,0.0,0.0,0.0,0.0,0.0,0.0,0.0,0.0,0.0,0.0,0.0,0.0,0.0,0.0,0.0,0.0,0.0,0.0,0.0,0.0,0.0,0.0,0.0,0.0,0.0,0.0,0.0,0.0,0.0,0.0,0.0,0.0,0.0,0.0,0.0,0.0,0.0,0.0,0.0,0.0,0.0,0.0,0.0,0.0,0.0,0.0,0.0,0.0,0.0,0.0,0.0,0.0,0.0,0.0,0.0,0.0,0.0,0.0,0.0,0.0,0.0,0.0,0.0,0.0,0.0,0.0,0.0,0.0,0.0,0.0,0.0,0.0,0.0,0.0,0.0,0.0,0.0,0.0,0.0,0.0,0.0,0.0,0.0,0.0,0.0,0.0,0.0,0.0,0.0,0.0,0.0,0.0,0.0,0.0,0.0,0.0,0.0,0.0,0.0,0.0,0.0,0.0,0.0,0.0,0.0,0.0,0.0,0.0,0.0,0.0,0.0,0.0,0.0,0.0,0.0,0.0,0.0,0.0,0.0,0.0,0.0,0.0,0.0,0.0,0.0,0.0,0.0,0.0,0.0,0.0,0.0,0.0,0.0,0.0,0.0,0.0,0.0,0.0,0.0,0.0,0.0,0.0,0.0,0.0,0.0,0.0,0.0,0.0,0.0,0.0,0.0,0.0,0.0,0.0,0.0,0.0,0.0,0.0,0.0,0.0,0.0,0.0,0.0,0.0,0.0,0.0,0.0,0.0,0.0,0.0,0.0,0.0,0.0,0.0,0.0,0.0,0.0,0.0,0.0,0.0,0.0,0.0,0.0,0.0,0.0,0.0,0.0,0.0,0.0,0.0,0.0,0.0,0.0,0.0,0.0,0.0,0.0,0.0,0.0,0.0,0.0,0.0,0.0,0.0,0.0,0.0,0.0,0.0,0.0,0.0,0.0,0.0,0.0,0.0,0.0,0.0,0.0,0.0,0.0,0.0,0.0,0.0,0.0,0.0,0.0,0.0,0.0,0.0,0.0,0.0,0.0,0.0,0.0,0.0,0.0,0.0,0.0,0.0,0.0,0.0,0.0,0.0,0.0,0.0,0.0,0.0,0.0,0.0,0.0,0.0,0.0,0.0,0.0,0.0,0.0,0.0,0.0,0.0,0.0,0.0,0.0,0.0,0.0,0.0,0.0,0.0,0.0,0.0,0.0,0.0,0.0,0.0,0.0,0.0,0.0,0.0,0.0,0.0,0.0,0.0,0.0,0.0,0.0,0.0,0.0,0.0,0.0,0.0,0.0,0.0,0.0,0.0,0.0,0.0,0.0,0.0,0.0,0.0,0.0,0.0,0.0,0.0,0.0,0.0,0.0,0.0,0.0,0.0,0.0,0.0,0.0,0.0,0.0,0.0,0.0,0.0,0.0,0.0,0.0,0.0,0.0,0.0,0.0,0.0,0.0,0.0,0.0,0.0,0.0,0.0,0.0,0.0,0.0,0.0,0.0,0.0,0.0,0.0,0.0,0.0,0.0,0.0,0.0,0.0,0.0,0.0,0.0,0.0,0.0,0.0,0.0,0.0,0.0,0.0,3.4097,0.0,0.0,0.0,0.0,0.0,0.0,0.0,0.0,0.0,0.0,0.0,0.0,0.0,0.0,0.0,0.0,0.0,0.0,0.0,0.0,0.0,0.0,0.0,0.0,0.0,0.0,0.0,0.0,0.0,0.0,0.0,0.0,0.0,0.0,0.0,0.0,0.0,0.0,0.0,3.5998,3.5506,3.4488,3.519,3.5519,3.5549,0.0,0.0,0.0,0.0,0.0,0.0,0.0,0.0,0.0,0.0,0.0,0.0,0.0,0.0,0.0,0.0,0.0,0.0,0.0,0.0,0.0,0.0,0.0,0.0,0.0,0.0,0.0,0.0,0.0,0.0,0.0,0.0,0.0,0.0,0.0,0.0,0.0,0.0,0.0,0.0,0.0,0.0,0.0,0.0,0.0,0.0,0.0,0.0,0.0,0.0,0.0,0.0,0.0,0.0,0.0,0.0,0.0,0.0,0.0,0.0,0.0,0.0,0.0,0.0,0.0,0.0,0.0,0.0,0.0,0.0,0.0,3.3927,0.0,0.0,0.0,0.0,0.0,0.0,0.0,0.0,0.0,0.0,0.0,0.0,0.0,0.0,0.0,0.0,0.0,0.0,0.0,0.0,0.0,0.0,0.0,0.0,3.4053,3.54,3.5519,3.5519,0.0,0.0,0.0,0.0,0.0,0.0,0.0,3.6081,3.6404,3.6164,3.5489,3.4981,3.461,3.5272,3.5579,3.5625,3.6756,0.0,0.0,0.0,0.0,0.0,0.0,0.0,0.0,0.0,0.0,0.0,0.0,0.0,0.0,0.0,0.0,0.0,0.0,0.0,0.0,0.0,0.0,0.0,0.0,0.0,0.0,0.0,0.0,0.0,0.0,0.0,0.0,0.0,0.0,0.0,0.0,0.0,0.0,0.0,0.0,0.0,0.0,0.0,0.0,0.0,0.0,0.0,0.0,0.0,0.0,0.0,0.0,0.0,0.0,0.0,0.0,0.0,0.0,0.0,0.0,0.0,0.0,0.0,3.8573,3.8984,3.9149,3.9363,3.9077,3.8363,3.6288,3.4736,3.3669,0.0,0.0,0.0,0.0,0.0,0.0,0.0,0.0,0.0,0.0,0.0,0.0,0.0,0.0,0.0,0.0,0.0,0.0,0.0,0.0,0.0,0.0,3.3484,3.4053,3.54,3.5519,3.5519,0.0,0.0,0.0,0.0,0.0,0.0,3.4194,3.5705,3.5925,3.4757,3.4197,3.431,3.5038,3.559,3.5848,3.587,3.6394,3.6115,3.5346,0.0,0.0,0.0,0.0,0.0,0.0,0.0,0.0,0.0,0.0,0.0,0.0,0.0,0.0,0.0,0.0,0.0,0.0,0.0,0.0,0.0,0.0,0.0,0.0,0.0,0.0,0.0,0.0,0.0,0.0,0.0,0.0,0.0,0.0,0.0,0.0,0.0,0.0,0.0,0.0,0.0,3.2467,3.3981,0.0,0.0,0.0,0.0,0.0,0.0,0.0,0.0,0.0,0.0,0.0,0.0,0.0,0.0,3.8024,3.9137,3.9412,3.8763,4.021,4.021,3.8966,3.9905,4.0032,3.95,3.9626,0.0,3.4931,3.4858,0.0,0.0,0.0,0.0,0.0,0.0,0.0,0.0,0.0,0.0,0.0,0.0,0.0,0.0,0.0,0.0,0.0,0.0,0.0,0.0,0.0,3.3484,3.379,3.4605,3.5232,3.5125,3.3962,3.4044,0.0,0.0,0.0,3.3192,3.3192,3.4019,3.4421,3.4379,3.5452,3.5947,3.5958,3.6579,3.6543,3.6037,3.6417,3.625,3.563,3.5007,0.0,0.0,0.0,0.0,0.0,0.0,0.0,0.0,0.0,0.0,0.0,0.0,0.0,0.0,0.0,0.0,0.0,0.0,0.0,0.0,0.0,0.0,0.0,0.0,0.0,0.0,0.0,0.0,0.0,0.0,0.0,0.0,0.0,0.0,0.0,0.0,0.0,0.0,0.0,3.2615,3.3323,3.287,3.3328,3.3903,0.0,0.0,0.0,0.0,0.0,0.0,0.0,0.0,0.0,3.9241,3.9247,3.9682,4.0619,4.1717,4.2518,4.3062,4.4062,4.4338,4.3966,4.4443,4.4392,4.3862,4.4113,4.2629,3.9828,3.7249,3.5297,3.3953,0.0,0.0,0.0,0.0,3.5818,3.5904,0.0,0.0,0.0,0.0,0.0,0.0,0.0,0.0,0.0,0.0,0.0,0.0,3.3189,3.3148,3.3303,3.4024,3.4849,3.4626,3.2915,3.3266,0.0,3.229,3.2236,3.2236,3.2236,3.2817,3.3752,3.5017,3.6658,3.7235,3.6785,3.7389,3.7285,3.657,3.676,3.6524,3.5925,3.4413,3.4232,3.4979,0.0,0.0,0.0,0.0,0.0,0.0,0.0,0.0,0.0,0.0,0.0,0.0,0.0,0.0,0.0,0.0,0.0,0.0,0.0,0.0,0.0,0.0,0.0,0.0,0.0,0.0,0.0,0.0,0.0,0.0,0.0,0.0,0.0,0.0,0.0,0.0,0.0,3.3495,3.3997,3.2039,3.3442,3.4527,0.0,0.0,0.0,0.0,0.0,0.0,4.0525,4.0531,4.105,4.232,4.2113,4.2585,4.3869,4.4698,4.5849,4.7355,4.7751,4.8153,4.856,4.8711,4.841,4.7751,4.7877,4.6672,4.4342,4.0174,3.7669,3.6363,3.5682,3.5824,3.6518,3.7284,3.7549,3.7655,0.0,0.0,0.0,0.0,0.0,0.0,0.0,0.0,0.0,0.0,0.0,3.0374,3.2692,3.2185,3.239,3.4139,3.4341,3.4074,3.3413,3.2087,3.1339,3.1259,3.1259,3.1259,3.1259,3.3076,3.5001,3.6937,3.6869,3.6951,3.7179,3.7709,3.7962,3.7888,3.7407,3.6542,3.5458,3.422,3.3759,3.3873,3.3873,0.0,0.0,0.0,0.0,0.0,0.0,0.0,0.0,0.0,0.0,0.0,0.0,0.0,0.0,0.0,0.0,0.0,0.0,0.0,0.0,0.0,0.0,0.0,0.0,0.0,0.0,0.0,0.0,0.0,0.0,0.0,0.0,0.0,0.0,0.0,0.0,0.0,0.0,3.3165,3.4924,0.0,0.0,0.0,0.0,3.7173,3.9602,4.1127,4.1239,4.2242,4.3601,4.5234,4.5753,4.6803,4.8441,4.8517,4.9088,5.0185,5.021,5.0235,5.0285,5.087,5.0519,4.949,5.0017,4.8981,4.6672,4.3341,4.0955,3.9372,3.8265,3.7837,3.7835,3.738,3.7886,3.8743,0.0,0.0,0.0,0.0,0.0,0.0,0.0,0.0,2.9361,3.1022,3.0614,3.1059,3.3426,3.3689,3.4058,3.4874,3.4946,3.4145,3.2228,3.1614,3.1027,3.0337,3.0624,3.1136,3.1831,3.358,3.5362,3.7173,3.8531,3.9399,3.9822,3.9671,3.9622,3.9572,3.8693,3.7857,3.6994,3.5133,3.3726,3.2829,3.3537,3.4033,0.0,0.0,0.0,0.0,0.0,0.0,0.0,0.0,0.0,0.0,0.0,0.0,0.0,0.0,0.0,0.0,0.0,0.0,0.0,0.0,0.0,0.0,0.0,0.0,0.0,0.0,0.0,0.0,0.0,0.0,0.0,0.0,0.0,0.0,0.0,0.0,0.0,3.8291,4.0023,0.0,3.9371,3.9576,3.9956,4.0403,4.1984,4.3531,4.497,4.61,4.7512,4.9163,4.9414,5.0293,5.1925,5.1624,5.2,5.308,5.2703,5.2528,5.2528,5.2402,5.1925,5.1222,5.1423,5.0645,4.9131,4.7958,4.5221,4.1758,4.1004,4.0703,4.0678,4.0477,4.1331,4.2484,0.0,0.0,0.0,0.0,0.0,0.0,0.0,0.0,2.8972,3.0867,3.0721,3.1406,3.3904,3.458,3.5142,3.5878,3.5399,3.4208,3.2126,3.1436,3.0733,2.9829,3.0658,3.1742,3.3022,3.5077,3.6935,3.8592,4.045,4.143,4.1605,4.1229,4.0978,4.0725,4.0023,3.9295,3.8492,3.701,3.5079,3.3061,3.341,3.4,3.4635,0.0,0.0,0.0,0.0,0.0,0.0,0.0,0.0,0.0,0.0,0.0,0.0,0.0,0.0,0.0,0.0,0.0,0.0,0.0,0.0,0.0,0.0,0.0,0.0,0.0,0.0,0.0,0.0,0.0,0.0,0.0,0.0,0.0,0.0,0.0,4.1003,4.2281,4.3887,4.4418,4.314,4.3011,4.3313,4.407,4.5296,4.7004,4.9206,5.0042,5.1197,5.2904,5.2754,5.3181,5.426,5.3934,5.4034,5.4597,5.4185,5.3984,5.3984,5.3432,5.298,5.2628,5.2452,5.185,5.0971,5.0971,4.8812,4.5451,4.4698,4.4195,4.3869,4.3869,4.4518,4.5367,0.0,0.0,0.0,0.0,0.0,0.0,0.0,2.8805,2.8928,3.0789,3.0576,3.1284,3.4042,3.4627,3.5456,3.7111,3.5705,3.4248,3.319,3.1512,3.0362,2.9905,3.1411,3.3072,3.4828,3.7587,3.9772,4.1378,4.2509,4.2788,4.2288,4.2263,4.1959,4.1378,4.1326,4.075,3.9772,3.9747,3.7864,3.4778,3.3621,3.4396,3.6052,0.0,0.0,0.0,0.0,0.0,0.0,0.0,0.0,0.0,0.0,0.0,0.0,0.0,0.0,0.0,0.0,0.0,0.0,0.0,0.0,0.0,0.0,0.0,0.0,0.0,0.0,0.0,0.0,0.0,0.0,0.0,0.0,0.0,3.8869,4.1831,4.4141,4.474,4.6271,4.6647,4.5041,4.5924,4.7004,4.8033,4.9665,5.1523,5.3658,5.3783,5.4561,5.6219,5.5717,5.5465,5.5491,5.5465,5.5164,5.4672,5.4672,5.4647,5.4597,5.3984,5.3708,5.3683,5.3121,5.2628,5.2126,5.2126,5.1473,5.0393,4.9296,4.8159,4.7174,4.7174,4.7149,4.7048,0.0,0.0,0.0,0.0,0.0,0.0,0.0,2.791,2.7965,2.9656,3.0574,3.2107,3.4882,3.6323,3.7613,3.8894,3.6383,3.4402,3.3721,3.1386,3.0658,3.2135,3.2993,3.4977,3.8241,4.0276,4.1884,4.3112,4.4242,4.4493,4.394,4.3539,4.3263,4.3087,4.2283,4.1783,4.1482,4.1053,4.0098,3.8668,3.5932,3.4729,3.4496,0.0,0.0,0.0,0.0,0.0,0.0,0.0,0.0,0.0,0.0,0.0,0.0,0.0,0.0,0.0,0.0,0.0,0.0,0.0,0.0,0.0,0.0,0.0,0.0,0.0,0.0,0.0,0.0,0.0,0.0,0.0,0.0,4.1957,4.1884,4.4367,4.6998,4.9188,5.0569,5.1264,5.1222,5.1875,5.2461,5.2738,5.3909,5.4888,5.5491,5.5856,5.6483,5.7399,5.6872,5.6935,5.7801,5.696,5.6483,5.6344,5.5942,5.5541,5.5139,5.416,5.3708,5.3683,5.3121,5.282,5.2669,5.2669,5.2494,5.2042,5.0569,4.954,4.8862,4.846,4.8058,4.7732,0.0,0.0,0.0,0.0,0.0,0.0,0.0,2.7562,2.7589,2.9169,3.097,3.2968,3.5257,3.7212,3.8542,3.8944,3.656,3.4502,3.3269,3.1687,3.1687,3.3671,3.5403,3.7713,4.0678,4.2838,4.4317,4.5167,4.6326,4.6451,4.5643,4.5573,4.5271,4.4819,4.3969,4.3441,4.3162,4.261,4.203,4.1354,3.9195,3.7663,3.6529,3.5058,3.4722,3.5032,3.5267,3.5033,3.467,3.5491,0.0,0.0,0.0,0.0,0.0,0.0,0.0,0.0,0.0,0.0,0.0,0.0,0.0,0.0,0.0,0.0,0.0,0.0,0.0,0.0,0.0,0.0,0.0,0.0,4.384,4.6527,4.7355,4.8686,5.0386,5.2729,5.3984,5.4727,5.5064,5.5616,5.6079,5.6305,5.6897,5.7449,5.7901,5.7788,5.8064,5.888,5.8114,5.8014,5.8666,5.8039,5.7587,5.7361,5.7072,5.6746,5.642,5.5516,5.4963,0.0,5.4185,5.3683,5.3256,5.3256,5.3096,0.0,0.0,0.0,0.0,0.0,4.9647,4.9339,0.0,0.0,0.0,0.0,0.0,0.0,0.0,2.7504,2.7542,2.9074,3.1428,3.3571,3.5079,3.7262,3.8441,3.804,3.6359,3.4505,3.2595,3.2545,3.3398,3.528,3.8517,4.1054,4.2713,4.5372,4.6948,4.7375,4.846,4.8435,4.74,4.7883,4.7556,4.6577,4.5999,4.5447,4.484,4.4317,4.379,4.3341,4.2788,4.1758,4.0148,3.7062,3.7111,3.8592,3.6985,3.6208,3.5997,3.6226,0.0,0.0,0.0,0.0,0.0,0.0,0.0,0.0,0.0,0.0,0.0,0.0,0.0,0.0,0.0,0.0,0.0,0.0,0.0,0.0,0.0,0.0,0.0,0.0,4.8033,5.1172,5.3808,5.3934,5.4225,5.5591,5.662,5.7236,5.7361,5.7876,5.8403,5.8944,5.8981,5.9408,6.0362,0.0,0.0,0.0,0.0,5.9031,5.9043,5.9031,5.873,5.8177,5.8102,5.8052,5.7976,5.7286,5.6734,5.6269,5.5717,5.4863,5.3884,5.3884,5.3557,5.297,5.2845,5.2528,5.2051,5.1498,5.1306,5.1197,0.0,0.0,0.0,0.0,0.0,0.0,0.0,2.7107,2.7323,2.8219,3.0682,3.2692,3.347,3.5552,3.7185,3.7939,3.568,3.4201,3.4226,3.4605,3.6208,3.9245,4.2105,4.4443,4.612,4.8403,4.9464,4.9113,4.9766,4.9766,4.9113,4.9213,4.8912,4.8291,4.7707,4.7124,4.6572,4.602,4.5773,4.5623,4.507,4.3112,4.0324,3.8818,3.8191,3.8015,3.6835,3.7487,3.8617,3.6969,3.768,3.8976,3.7188,3.6822,0.0,0.0,0.0,0.0,0.0,0.0,0.0,0.0,0.0,0.0,0.0,0.0,0.0,0.0,0.0,0.0,0.0,0.0,0.0,4.8134,5.18,5.4938,5.6821,5.8127,5.8641,5.8152,5.824,5.8691,5.957,5.9784,6.0085,6.0663,6.0713,6.0788,6.0989,6.0814,0.0,6.1667,6.104,6.0914,6.1366,6.0939,6.0412,5.9834,0.0,0.0,5.8491,5.7462,5.6935,5.6809,5.6294,5.5666,5.5064,5.5064,5.4461,5.3457,5.2603,5.2201,5.2051,5.1498,5.1306,5.1272,0.0,0.0,0.0,0.0,0.0,0.0,0.0,2.7003,2.7261,2.7994,3.0011,3.1738,3.2541,3.4145,3.5127,3.5102,3.3847,3.3771,3.5429,3.686,3.922,4.2836,4.5095,4.7054,4.8705,5.0142,5.072,5.0444,5.0996,5.0971,5.0444,5.072,5.0544,5.0024,4.9414,4.8981,4.8705,4.8184,4.7807,4.7531,4.7531,4.62,4.3991,4.2082,4.1329,4.1152,4.0099,4.0224,4.0753,3.932,3.9398,3.9721,3.7743,3.7535,3.7774,0.0,0.0,0.0,0.0,0.0,0.0,0.0,0.0,0.0,0.0,0.0,0.0,0.0,0.0,4.2267,0.0,0.0,4.9389,5.2402,5.5465,5.7926,5.9332,6.0487,6.0763,5.962,6.001,6.0563,6.1115,6.1416,6.1692,6.1994,6.1994,6.1994,6.1994,6.1743,6.1718,6.1994,6.1466,6.1316,6.1592,6.1316,6.104,6.0738,6.0462,6.0211,5.9935,5.9056,5.8491,5.8227,5.7663,5.6997,5.6168,5.5616,5.4888,5.3964,5.2171,5.1877,5.2477,5.2201,5.1473,5.0636,0.0,0.0,0.0,0.0,0.0,0.0,0.0,2.6802,2.7023,2.7716,2.9252,3.0563,3.1315,3.2416,3.2792,3.1943,3.257,3.4198,3.7009,3.9371,4.2333,4.6125,4.7857,4.9364,5.072,5.1322,5.1599,5.1599,5.2051,5.2026,5.1599,5.2051,5.1975,5.1423,5.0946,5.0662,5.0569,5.0117,4.9665,4.9321,4.9741,4.9364,4.8309,4.5974,4.5171,4.5066,4.389,4.3065,4.2411,4.1829,4.0901,3.9772,3.8417,3.8473,3.8699,3.7212,3.7568,0.0,0.0,0.0,0.0,0.0,0.0,0.0,0.0,0.0,4.1675,4.2756,4.4037,4.5837,4.8517,5.087,5.3381,5.6369,5.8604,6.0311,6.1215,6.1818,6.1818,6.0874,6.1617,6.2169,6.2169,6.2571,6.2781,6.2781,6.2781,6.2781,6.2781,6.2395,6.2169,6.2169,6.1743,6.1492,6.1492,6.1492,6.1492,6.1492,6.1391,6.1341,6.1316,6.0738,6.0236,5.9784,5.9156,5.8265,5.7199,5.5679,5.4762,5.4072,5.1451,5.107,5.2007,5.182,5.0752,4.9427,0.0,0.0,0.0,0.0,0.0,0.0,0.0,0.0,2.6174,2.6619,2.8097,2.8957,2.8599,2.9578,3.0407,3.0738,3.3947,3.7087,3.9847,4.2557,4.5568,4.8987,5.0745,5.1724,5.1925,5.2452,5.2719,5.2719,5.277,5.277,5.2719,5.277,5.2494,5.2,5.195,5.1649,5.1205,5.1155,5.1079,5.1029,5.1105,5.1021,5.082,4.9992,4.8786,4.733,4.5773,4.4518,4.3539,4.2986,4.2057,4.1102,4.0901,4.0278,3.9474,3.8793,3.7985,3.7059,3.597,3.6026,3.6892,3.9047,3.9909,4.1206,0.0,0.0,4.5616,4.8367,4.9343,5.0348,5.2637,5.4888,5.696,5.883,6.0588,6.1768,6.1893,6.2395,6.2656,6.2531,6.2631,6.2706,6.2706,6.2756,6.2781,6.2781,6.2781,6.2781,6.2781,6.2731,6.2706,6.2706,6.2631,6.2606,6.2606,6.2606,6.2606,6.2606,6.2144,6.1918,6.1893,6.1341,6.1065,6.0939,5.9885,5.9081,5.8276,5.5166,5.3651,5.2999,5.0262,4.9042,4.8726,4.7953,4.7504,4.7344,0.0,0.0,0.0,0.0,0.0,0.0,0.0,0.0,0.0,2.64,2.7102,2.7663,2.8072,2.8524,2.878,2.8695,3.1739,3.4751,3.7301,4.037,4.3663,4.7132,4.8191,4.9378,5.0857,5.1111,5.1782,5.2895,5.2895,5.2895,5.2895,5.2895,5.277,5.2578,5.2578,5.2452,5.2226,5.2226,5.2051,5.18,5.2126,5.2051,5.1674,5.077,4.9364,4.7732,4.6426,4.502,0.0,4.319,4.2685,4.2233,4.1907,4.1279,4.0449,3.9597,3.8537,3.7404,3.6323,3.6888,3.8126,3.9455,4.1069,4.31,4.5861,4.6982,4.8197,5.1061,5.2784,5.4461,5.6671,5.8378,5.9885,0.0,6.2019,6.2596,6.2948,6.2898,6.243,6.1452,6.1943,6.2471,6.2756,6.2781,6.2781,6.2781,6.2781,6.2781,6.2781,6.2781,6.2781,6.2781,6.2781,6.2781,6.2781,6.2781,6.2781,6.2781,6.2556,6.2496,6.2471,6.1918,6.1291,6.0663,6.0186,5.8759,5.6692,5.5252,5.3639,5.1754,4.8851,4.7612,4.7445,4.7423,4.6675,4.5621,0.0,0.0,0.0,0.0,0.0,0.0,0.0,0.0,0.0,0.0,2.6172,2.6608,2.7562,2.7986,2.79,2.7138,2.9834,3.2577,3.4998,3.8373,4.2056,4.6078,4.676,4.8247,5.0728,5.0787,5.1478,5.2895,5.2895,5.2895,5.2895,5.2895,5.2895,5.2895,5.2895,5.2895,5.2895,5.2895,5.2669,5.2377,5.2719,5.2468,5.1749,5.0444,4.8736,4.6878,4.5949,4.4242,4.2384,4.2009,4.1758,4.1607,4.1532,4.1204,4.0725,4.0124,3.9019,3.7864,3.7261,3.819,3.9673,4.0953,4.3237,4.5698,4.7682,4.954,5.1523,5.3974,5.5981,5.7926,5.9834,6.0864,6.1768,6.2898,6.2882,6.3023,6.3626,6.2923,6.1642,5.9727,5.9985,6.024,6.0188,6.1064,6.1384,6.0952,6.1474,6.1804,6.1804,6.1804,6.1804,6.1804,6.1225,6.091,6.091,6.1515,6.1804,6.187,6.247,6.2781,6.2781,6.2421,6.1718,6.0749,5.9955,5.8179,5.5739,5.4377,5.256,5.0365,4.7437,4.6229,4.6164,4.6368,4.5408,4.3988,0.0,0.0,0.0,0.0,0.0,0.0,0.0,0.0,0.0,0.0,0.0,0.0,0.0,2.7713,2.7967,2.6632,2.9397,3.2254,3.4672,3.815,4.2451,4.769,4.8733,5.0336,5.2767,5.2826,5.2861,5.2895,5.2895,5.2895,5.2895,5.2895,5.2895,5.2895,5.2895,5.2895,5.2895,5.2895,5.2895,5.287,5.2895,5.2277,5.1155,4.9497,4.7129,4.4614,4.4091,4.1781,3.9044,3.9019,3.8642,3.8341,3.9421,3.9747,3.9848,4.035,3.932,3.8115,3.8668,3.9622,4.1254,4.4493,4.7009,4.9371,5.2067,5.4375,5.647,5.8164,5.9394,6.0537,6.1718,6.1943,6.2345,6.3475,6.3199,6.3023,6.3626,6.227,6.0328,5.7782,5.6582,5.5382,0.0,5.6654,5.7921,5.6247,5.8162,5.9391,5.9391,5.9391,5.9391,5.9391,5.7263,5.6096,5.6096,5.829,5.9391,5.9433,6.1722,6.2781,6.2781,6.2781,6.2496,6.1798,5.913,5.7591,5.6574,5.1769,4.9491,4.8798,4.6094,4.4811,4.4341,4.3523,4.2915,4.2424,0.0,0.0,0.0,0.0,0.0,0.0,0.0,0.0,0.0,0.0,0.0,0.0,0.0,0.0,0.0,0.0,2.7109,2.8758,3.0026,3.3343,3.6414,3.9054,4.165,4.3938,4.5772,4.6644,4.8361,5.0963,5.0963,5.1642,5.2895,5.2895,5.2895,5.2895,5.2895,5.3096,5.3406,5.3046,5.3096,5.3356,5.2277,5.1373,5.0444,4.8058,4.5196,4.2206,0.0,3.8994,3.7713,3.7361,3.711,3.7009,3.7386,3.7763,3.8165,3.8693,3.9471,4.0474,4.1781,4.4016,4.6702,4.969,5.18,5.3808,5.6182,5.76,5.8554,5.9106,5.9533,5.9784,5.9784,6.0085,6.0713,6.1843,6.2471,6.2464,6.1515,6.0892,5.8752,5.3998,5.399,0.0,0.0,0.0,0.0,5.5425,5.6412,5.7048,5.7048,5.7048,5.7048,5.7048,5.6313,5.5879,5.5879,5.8162,5.9307,5.9307,6.168,6.1993,6.0487,6.0487,5.9338,5.7308,5.6406,5.4654,5.2356,5.0676,4.8884,4.7058,4.5592,4.4941,4.4707,4.3828,4.3398,4.3164,0.0,0.0,0.0,0.0,0.0,0.0,0.0,0.0,0.0,0.0,0.0,0.0,0.0,0.0,0.0,0.0,0.0,2.6381,2.6758,2.9422,3.2048,3.4485,3.675,3.8966,4.1113,4.1677,4.3397,4.6426,4.6951,4.8191,5.0032,5.0789,5.1247,5.1448,5.185,5.2226,5.2503,5.1975,5.1825,5.1749,4.9715,4.8435,4.7431,4.4468,4.1781,0.0,3.7262,3.6182,3.5678,3.5326,3.5351,3.5502,3.5502,3.6281,3.7411,3.8341,4.0449,4.3034,4.5497,4.8309,5.1247,5.4225,5.5942,5.7349,5.9182,5.9859,5.9935,5.9332,5.888,5.8378,5.7625,5.7298,5.7562,5.8906,5.9487,5.9601,5.9042,5.8399,5.6345,5.1815,5.1675,5.0647,0.0,0.0,0.0,5.2623,5.3886,5.4654,5.4654,5.4654,5.4654,5.4654,5.3836,5.3393,5.3393,5.6507,5.8926,6.0553,6.1242,6.0761,5.9264,5.846,5.7056,5.5234,5.4257,5.2671,5.064,4.9502,4.8036,4.6426,4.541,4.4977,4.4879,4.4023,4.3711,4.3613,0.0,0.0,0.0,0.0,0.0,0.0,0.0,0.0,0.0,0.0,0.0,0.0,0.0,0.0,0.0,0.0,0.0,0.0,2.5132,2.6763,2.962,3.3912,3.419,3.5706,3.8853,3.8171,3.8453,3.9843,4.1282,4.2957,4.478,4.6712,4.7908,4.8517,4.9565,5.0042,4.9992,4.949,4.8962,4.8265,4.5497,4.3765,4.2436,3.9195,3.7262,3.6105,3.45,3.3571,3.3115,3.314,3.3542,3.4048,3.4123,3.5629,3.7713,3.9496,4.2359,4.5744,4.9615,5.2302,5.4787,5.8039,5.9257,5.9885,6.0939,6.1115,6.0563,5.8818,5.7499,5.6308,0.0,0.0,5.3403,5.495,5.4917,5.5141,5.6389,5.5216,5.3426,0.0,0.0,0.0,0.0,0.0,0.0,4.8203,0.0,5.2228,5.2228,5.2228,5.2228,5.2207,5.0048,4.894,4.9078,5.3726,5.8356,6.2781,6.0403,5.9222,5.9053,5.6789,5.5617,5.5311,5.2659,5.1496,5.1259,4.816,4.687,4.6733,4.5547,4.5058,4.4961,4.4082,4.3769,4.3711,0.0,0.0,0.0,0.0,0.0,0.0,0.0,0.0,0.0,0.0,0.0,0.0,0.0,0.0,0.0,0.0,0.0,0.0,2.5334,2.6959,2.8614,3.0155,3.1629,3.2825,3.3756,3.4487,3.5736,3.7537,3.8767,4.0571,4.2907,4.3397,4.3718,4.3894,4.4597,4.4869,4.4869,4.4719,4.4622,4.4321,4.2333,4.0902,3.9748,3.8065,3.6458,3.5077,3.4628,3.3897,3.3165,3.3545,3.4622,3.5979,3.7235,3.8542,4.0325,4.3639,4.6677,4.9658,5.3181,5.6018,5.8529,6.0638,6.1266,6.1341,6.1215,6.0236,5.8504,5.5566,5.3432,5.149,0.0,0.0,0.0,5.2655,5.5902,0.0,5.5256,5.4875,0.0,4.9868,0.0,4.8443,4.7394,4.793,0.0,0.0,4.9835,5.0245,5.0245,5.0245,5.0086,4.9793,4.9216,4.9748,5.1507,5.6117,5.9901,6.2781,6.0403,5.8417,5.6703,5.4345,5.2321,5.058,4.9522,4.8937,4.8554,4.7371,4.6694,4.6406,4.5762,4.5508,4.5449,4.4883,4.4687,4.4629,0.0,0.0,0.0,0.0,0.0,0.0,0.0,0.0,0.0,0.0,0.0,0.0,0.0,0.0,0.0,0.0,0.0,0.0,0.0,2.5954,2.6886,2.7591,2.8297,2.9003,2.9692,2.9787,3.0895,3.3075,3.4101,3.5897,3.8322,3.9214,3.9773,4.0024,4.0853,4.1205,4.118,4.0902,4.0678,0.0,0.0,3.6885,3.6205,3.4826,3.3872,3.3294,3.3524,3.4173,3.505,3.6081,3.7085,3.8266,4.0626,4.2484,4.4493,4.8102,5.1348,5.431,5.7148,5.9759,6.1843,6.2571,6.2546,6.1843,5.9809,5.8278,5.6043,5.1665,4.9439,4.7581,4.5347,4.6934,4.8628,0.0,0.0,0.0,5.3179,5.3467,5.2988,0.0,5.0215,0.0,4.9062,4.9304,4.9609,0.0,4.9922,4.9805,4.9805,4.9805,4.9707,4.95,4.9258,5.0686,5.3903,5.6464,5.8926,6.1242,5.895,5.6594,5.4257,5.1937,5.0139,4.8874,0.0,4.8066,4.7812,4.7187,4.6753,4.6523,4.5918,4.5727,4.5625,4.5176,4.4902,4.4707,0.0,0.0,0.0,0.0,0.0,0.0,0.0,0.0,0.0,0.0,0.0,0.0,0.0,0.0,0.0,0.0,0.0,0.0,0.0,0.0,2.5379,2.6204,2.54,2.552,2.6822,2.5719,2.61,2.8141,2.9247,3.0824,3.2863,3.4749,3.5879,3.6381,3.7436,3.7864,3.7763,3.7312,3.681,3.613,3.3743,3.2738,3.2512,0.0,3.0884,3.1361,3.1989,3.4123,3.7034,3.9421,4.0425,4.1254,4.4464,4.7079,4.954,5.2829,5.5942,5.8805,6.0939,6.2989,6.4396,6.3827,6.3099,6.1452,5.7637,5.5566,5.2879,4.755,4.5472,4.4019,4.2009,4.2364,4.3466,4.4944,0.0,4.9016,5.1354,5.1953,5.2344,5.2832,5.2168,5.1523,5.1094,5.0723,5.0644,5.0957,5.0644,5.0371,5.0273,5.0273,5.0215,5.0098,4.9988,5.1708,5.5399,5.5682,5.6853,5.8842,5.653,5.4345,5.2342,4.9957,4.8913,4.8874,0.0,0.0,4.8066,4.7266,4.685,4.6733,4.6055,4.5762,4.5723,4.5332,4.4961,4.4648,0.0,0.0,0.0,0.0,0.0,0.0,0.0,0.0,0.0,0.0,2.5405,2.571,0.0,0.0,0.0,0.0,0.0,0.0,0.0,0.0,0.0,2.7066,2.6028,2.5817,2.6538,2.678,2.6851,2.682,2.8831,3.001,3.0422,3.1213,3.1662,3.1788,3.2416,3.2441,3.2064,3.239,3.224,3.1692,3.1235,3.0758,3.0382,3.0538,0.0,0.0,3.1842,3.2893,3.4773,4.0978,4.4317,4.6321,4.9213,5.195,5.4662,5.7524,5.9433,6.0989,6.2772,6.3893,6.4396,6.3827,6.222,5.9859,5.6445,5.2327,0.0,4.3894,4.1456,3.9773,3.8894,4.1015,4.3487,4.5209,4.768,5.0175,5.2709,5.2773,5.2891,0.0,5.334,5.2851,5.2422,0.0,0.0,0.0,0.0,5.1445,5.0723,5.0703,5.0371,4.9668,5.1422,5.2577,5.2992,5.4917,5.6096,5.6443,5.4125,5.2768,5.2342,4.9957,4.8913,4.8874,4.8398,0.0,4.7656,4.7148,4.6674,4.6406,4.625,4.6191,4.6191,4.6113,4.6035,4.5918,0.0,0.0,0.0,0.0,0.0,0.0,0.0,0.0,2.5103,2.6233,2.6849,2.6984,2.6451,2.6378,0.0,0.0,0.0,0.0,0.0,0.0,0.0,0.0,2.636,2.6321,2.6901,2.7164,2.7433,2.7732,0.0,2.9503,2.9804,3.0055,3.0181,3.0206,3.0457,3.0407,3.0206,3.0457,3.0407,3.0181,3.0181,3.003,2.9829,0.0,0.0,0.0,3.1165,3.3043,3.5803,3.9521,4.4338,4.9239,5.1768,5.5238,5.8513,5.8934,6.1094,6.35,6.4304,6.5132,6.5552,6.4421,6.1768,5.8227,5.3457,0.0,0.0,3.9697,3.8341,3.7763,3.6861,3.8788,4.0977,4.2489,4.3911,4.641,5.0749,5.1191,5.1953,5.4414,5.4316,5.3867,0.0,0.0,0.0,0.0,0.0,5.1797,5.1172,5.1133,5.0742,4.9902,5.0976,5.1796,5.2387,5.3526,5.408,5.408,5.2947,5.1757,5.053,4.938,4.8913,4.8874,4.8398,0.0,4.7871,4.7441,4.7148,4.6953,4.6719,4.6621,4.6601,4.6387,4.6172,4.5957,0.0,0.0,0.0,0.0,0.0,0.0,0.0,2.4923,2.6083,2.7388,2.8061,2.801,2.7047,2.682,2.631,0.0,0.0,0.0,0.0,0.0,0.0,0.0,0.0,0.0,0.0,0.0,0.0,2.8555,2.8806,0.0,0.0,0.0,0.0,0.0,2.9804,2.9804,2.9804,2.9804,2.9914,0.0,0.0,3.0216,0.0,0.0,0.0,0.0,0.0,3.2842,3.6008,3.7444,4.2563,4.8672,5.083,5.5901,6.0722,5.9268,6.1818,6.5132,6.5258,6.6011,6.6388,6.4773,6.0951,5.6128,5.0323,4.5604,4.0995,3.5955,3.5769,3.6188,3.5234,3.6286,3.7797,3.9422,3.9927,4.2246,4.8379,4.9523,5.1094,5.4609,5.4902,0.0,5.4031,0.0,0.0,0.0,0.0,0.0,5.1397,5.1377,5.1035,5.0215,5.0176,5.0643,5.1643,5.1622,5.1376,5.0812,5.0812,4.9831,4.8088,4.8088,4.8366,4.8894,4.8496,0.0,0.0,4.7851,4.7598,4.7402,4.7026,4.6831,4.6714,4.6426,4.6094,4.582,0.0,0.0,0.0,0.0,0.0,0.0,0.0,2.4119,2.5347,2.781,2.7872,2.7876,2.8336,2.7809,2.6872,0.0,0.0,0.0,0.0,0.0,0.0,0.0,0.0,0.0,0.0,0.0,0.0,0.0,0.0,0.0,0.0,0.0,0.0,0.0,0.0,0.0,2.9804,2.9804,0.0,0.0,0.0,0.0,0.0,0.0,0.0,0.0,0.0,3.0864,3.1876,3.6228,3.9373,4.1753,4.3798,5.1787,6.0272,5.9601,6.1873,6.4697,6.5157,6.5735,6.5785,6.4178,5.899,5.2998,4.8218,4.2356,3.6985,3.3791,3.3728,3.409,3.3766,3.3765,3.4834,3.7863,3.8593,4.0996,4.7422,4.9687,5.1543,5.3867,0.0,0.0,5.405,0.0,0.0,0.0,0.0,0.0,5.1377,5.1377,5.1035,5.0215,5.0176,4.9887,4.9216,4.9216,4.805,4.5671,4.5671,4.5596,4.5361,4.5361,4.6635,4.8913,4.8855,0.0,0.0,4.8164,4.7695,4.6948,4.6909,4.6699,4.6348,4.6308,4.6289,4.625,0.0,0.0,0.0,0.0,0.0,0.0,2.3556,2.4065,2.5155,2.7546,2.8046,2.8141,2.8021,2.7391,2.6544,0.0,0.0,0.0,0.0,0.0,0.0,0.0,0.0,0.0,0.0,0.0,0.0,2.8015,0.0,0.0,0.0,0.0,0.0,0.0,0.0,0.0,0.0,3.04,0.0,0.0,0.0,0.0,0.0,0.0,0.0,0.0,0.0,0.0,3.1755,3.3002,3.5906,3.8915,3.8369,4.4277,5.1938,5.4707,5.8585,6.2395,6.4279,6.5685,6.6162,6.4178,5.8231,5.1621,4.6988,4.0923,3.5443,3.2484,3.2367,3.2862,3.2982,3.2229,3.2392,3.4944,3.4561,3.6016,4.1953,4.3848,4.6245,5.0733,5.2255,0.0,0.0,0.0,0.0,0.0,0.0,0.0,5.1377,5.1377,5.1035,5.0215,5.0176,4.902,4.6588,4.6523,4.5267,4.272,4.2497,4.332,4.4966,4.4825,4.6253,4.8913,4.8913,0.0,0.0,4.8594,4.8398,4.8047,4.7519,4.7207,4.7012,4.6484,4.6308,4.6269,0.0,0.0,0.0,0.0,0.0,2.1924,2.3401,2.3901,2.4774,2.6753,2.7602,2.7829,2.7375,2.6345,2.5664,2.5542,0.0,0.0,0.0,0.0,0.0,0.0,0.0,0.0,0.0,0.0,0.0,2.9167,2.9786,0.0,0.0,0.0,0.0,0.0,0.0,0.0,0.0,0.0,0.0,0.0,0.0,0.0,0.0,0.0,0.0,0.0,0.0,0.0,0.0,0.0,0.0,3.5785,3.4322,3.7842,4.3654,4.9267,5.4795,5.9659,6.2295,6.4521,6.5509,6.345,5.6962,4.9996,4.5966,3.9694,3.3989,3.1436,3.1402,3.1779,3.1595,3.1078,3.11,3.2333,3.2398,3.3933,3.8549,4.0293,4.2949,4.7969,0.0,5.1094,0.0,0.0,0.0,0.0,0.0,0.0,5.1621,5.1387,5.0918,5.0195,5.0293,4.8643,4.5049,4.5158,4.3461,4.0029,3.9724,4.1012,4.3656,4.3515,4.5361,4.8718,0.0,0.0,0.0,4.8913,4.8757,4.8464,4.7812,4.7422,4.7129,4.6523,4.6308,4.6269,0.0,0.0,0.0,0.0,0.0,0.0,0.0,2.3343,2.4088,2.5453,2.6183,2.6614,2.6614,2.4848,2.4178,2.5472,0.0,0.0,0.0,0.0,0.0,0.0,0.0,0.0,0.0,0.0,2.9566,3.0781,2.987,3.0023,3.1167,0.0,0.0,0.0,0.0,0.0,0.0,0.0,0.0,0.0,0.0,0.0,0.0,0.0,0.0,0.0,0.0,0.0,0.0,0.0,0.0,0.0,0.0,3.3626,3.7012,4.4263,5.1063,5.6746,5.8956,6.1592,6.3324,6.1642,5.4724,4.7678,4.5079,3.8361,3.2158,3.0562,3.0743,3.0719,2.9147,3.0395,3.1353,3.0381,3.3242,3.6409,3.8871,4.1055,4.3338,0.0,0.0,4.8301,5.0058,0.0,0.0,0.0,0.0,0.0,5.207,5.1269,5.0625,5.0195,5.0586,4.8929,4.5049,4.5447,4.2874,3.7331,3.705,3.8221,4.0547,4.0689,4.3485,0.0,0.0,0.0,0.0,4.8913,4.8405,4.7598,4.7578,4.707,4.6308,4.6308,4.6308,4.6308,0.0,0.0,0.0,0.0,0.0,0.0,0.0,2.1916,2.2113,2.3441,2.38,2.4081,2.4507,2.3191,2.2832,2.4118,0.0,0.0,0.0,0.0,0.0,0.0,0.0,0.0,0.0,0.0,2.9815,3.107,3.1248,3.1416,3.1617,3.2629,3.277,0.0,0.0,0.0,0.0,0.0,0.0,0.0,0.0,0.0,0.0,0.0,0.0,0.0,0.0,0.0,0.0,0.0,0.0,0.0,0.0,0.0,0.0,3.6935,4.3338,5.0017,5.2578,5.4787,5.5842,5.3783,4.923,4.4459,4.1278,3.721,3.3497,3.132,3.105,3.124,3.1432,3.1298,3.2082,3.4945,3.6348,3.7743,3.9627,4.2224,0.0,4.613,4.9941,5.2656,0.0,0.0,0.0,0.0,0.0,0.0,5.209,5.1543,5.1035,5.0625,4.8648,4.6144,4.312,4.1179,3.9348,3.7576,3.7121,3.9085,4.3158,4.3298,0.0,0.0,0.0,0.0,0.0,4.8535,4.8242,4.7949,4.7363,4.6973,4.6699,4.6406,4.6308,4.6269,0.0,0.0,0.0,0.0,0.0,0.0,0.0,2.1103,2.0997,2.1854,2.2546,2.305,2.3223,2.2486,2.2314,2.3182,0.0,0.0,0.0,0.0,0.0,0.0,0.0,0.0,0.0,2.9502,3.0173,3.1046,3.2069,3.2303,3.1919,3.322,3.3399,3.2611,3.2723,0.0,0.0,0.0,0.0,0.0,0.0,0.0,3.3124,0.0,0.0,0.0,0.0,0.0,0.0,0.0,0.0,0.0,0.0,0.0,0.0,0.0,3.7236,4.2534,4.6778,4.9615,5.0971,4.9364,4.5797,4.216,3.9886,3.6552,3.3479,3.189,3.1365,3.1305,3.1623,3.1424,3.2272,3.5476,3.6652,3.7687,3.9221,0.0,0.0,4.6076,0.0,0.0,0.0,0.0,0.0,0.0,0.0,0.0,5.2324,5.1601,5.1152,5.1035,4.8125,4.5211,4.2245,4.0352,3.8856,3.769,3.8126,4.0386,4.4144,4.4474,0.0,0.0,0.0,0.0,0.0,4.832,4.8105,4.791,4.7162,4.6792,4.666,4.6406,4.6308,4.6269,0.0,0.0,0.0,0.0,0.0,0.0,0.0,0.0,2.0685,2.0685,2.216,2.3064,2.2626,2.2403,2.2366,2.2596,0.0,0.0,0.0,0.0,0.0,0.0,0.0,0.0,0.0,2.9005,3.0483,3.0926,3.2395,3.2835,3.2342,3.3367,3.3527,3.2897,3.3163,0.0,0.0,0.0,0.0,0.0,0.0,0.0,0.0,0.0,0.0,0.0,0.0,0.0,0.0,0.0,0.0,0.0,0.0,0.0,0.0,0.0,0.0,0.0,0.0,4.5296,4.7662,4.7004,4.358,4.0306,4.0034,3.6186,0.0,3.2239,3.1736,3.1167,3.0556,3.1179,3.2196,3.3508,3.5292,3.7001,0.0,4.0616,0.0,0.0,4.9258,0.0,0.0,0.0,0.0,0.0,0.0,0.0,5.2656,5.1504,5.1016,5.1319,4.8749,4.5783,4.2625,4.2311,4.0895,3.8317,4.0126,4.2047,4.405,4.4615,0.0,0.0,0.0,0.0,0.0,4.8144,4.7891,4.75,4.7051,4.6508,4.6026,4.6026,4.5939,4.5807,0.0,0.0,0.0,0.0,0.0,0.0,0.0,0.0,0.0,0.0,2.109,2.1509,2.1421,2.1365,2.1404,0.0,0.0,0.0,0.0,0.0,0.0,0.0,0.0,0.0,0.0,2.7809,2.9376,3.2086,3.2832,3.3938,3.5467,3.6177,3.6163,3.5545,3.5126,3.4206,0.0,0.0,0.0,0.0,0.0,0.0,0.0,0.0,0.0,0.0,3.2574,3.204,0.0,0.0,0.0,0.0,0.0,0.0,0.0,0.0,3.1135,3.2315,3.3872,0.0,3.7789,3.681,3.637,3.5905,0.0,3.4502,3.3952,3.3052,3.2754,3.3113,3.4614,3.3552,3.4264,3.9756,0.0,4.094,4.2235,0.0,0.0,4.95,0.0,0.0,0.0,0.0,0.0,0.0,0.0,5.2558,5.2246,5.1621,5.1172,5.0957,4.8273,4.6624,4.6187,4.3501,4.2836,4.4122,4.4013,4.5109,4.7163,4.7304,0.0,0.0,0.0,0.0,4.8164,4.75,4.7168,4.7051,4.6621,4.523,4.346,4.346,4.2309,4.0988,0.0,0.0,0.0,0.0,0.0,0.0,0.0,0.0,0.0,0.0,0.0,0.0,0.0,0.0,0.0,0.0,0.0,0.0,0.0,0.0,0.0,0.0,0.0,0.0,2.6159,2.701,2.8678,3.1266,3.2645,3.4105,3.5547,3.6061,3.6104,3.5785,3.4953,3.3634,0.0,0.0,0.0,0.0,3.2243,0.0,0.0,0.0,0.0,0.0,3.3322,3.306,0.0,3.1499,3.0857,3.0362,0.0,0.0,0.0,0.0,3.0206,3.0777,3.12,3.2975,3.4552,3.3972,3.4098,3.4248,3.3897,3.3696,3.347,3.3165,3.309,3.3617,3.5326,3.4211,3.4652,0.0,4.0159,0.0,0.0,0.0,4.791,5.0234,0.0,0.0,0.0,0.0,0.0,0.0,0.0,5.2226,5.1797,5.1387,5.0957,5.0527,4.9061,4.7813,4.6842,4.4752,4.4407,4.5826,4.6463,4.717,4.793,4.832,4.8086,0.0,0.0,0.0,4.594,4.5442,4.4561,4.3497,4.3115,4.2129,4.0943,4.0943,4.0011,3.8955,0.0,0.0,0.0,0.0,0.0,0.0,0.0,0.0,0.0,0.0,0.0,0.0,0.0,0.0,0.0,0.0,0.0,0.0,0.0,0.0,0.0,0.0,0.0,2.397,2.4792,2.6415,2.8155,3.0067,3.2425,3.4022,3.4854,3.5529,3.5572,3.5021,3.3961,3.2766,0.0,0.0,0.0,0.0,3.2241,0.0,0.0,0.0,0.0,0.0,0.0,0.0,0.0,3.2146,3.1444,3.11,3.0438,0.0,0.0,0.0,0.0,0.0,3.1566,3.3296,3.4676,3.4268,3.4059,3.3962,3.4045,3.3097,3.2365,3.2864,3.3115,3.3617,3.4828,3.4316,0.0,0.0,0.0,0.0,4.4946,4.5921,4.7212,4.9863,0.0,0.0,0.0,0.0,0.0,0.0,0.0,5.1758,5.1221,5.0898,5.0508,5.0098,5.0078,4.8957,4.656,4.6239,4.6111,4.6111,4.7944,4.8424,4.7695,4.7962,4.7276,0.0,0.0,0.0,4.2674,4.2549,4.1255,3.9332,3.9039,3.8712,3.8364,3.8412,3.8022,3.752,0.0,0.0,0.0,0.0,0.0,0.0,0.0,0.0,0.0,0.0,0.0,0.0,0.0,0.0,0.0,0.0,0.0,0.0,0.0,0.0,0.0,0.0,2.3212,2.4433,2.6247,2.5866,2.7502,3.125,3.3174,3.5066,3.6973,3.8751,3.8109,3.5383,3.408,3.2766,3.1554,0.0,0.0,0.0,0.0,0.0,0.0,0.0,0.0,0.0,0.0,0.0,0.0,3.3671,3.2504,3.1296,3.1974,0.0,0.0,0.0,0.0,0.0,3.4405,3.5063,3.4658,3.23,3.2863,3.3494,3.1635,3.1717,3.224,3.2315,3.3119,3.4399,3.6433,3.5549,3.6333,0.0,0.0,4.5555,0.0,0.0,0.0,0.0,0.0,0.0,0.0,0.0,0.0,0.0,0.0,0.0,5.041,5.0312,5.0078,4.9648,4.9629,4.9247,4.8486,4.8729,4.8883,4.8883,4.8507,4.8242,4.804,4.5392,4.4197,0.0,0.0,3.992,3.98,3.9177,3.8686,3.8363,3.8522,3.7355,3.5547,3.5774,3.4517,3.2948,0.0,0.0,0.0,0.0,0.0,0.0,0.0,0.0,0.0,0.0,0.0,0.0,0.0,0.0,0.0,0.0,0.0,0.0,0.0,0.0,0.0,2.3768,2.4361,2.5285,2.6584,2.6908,2.9078,3.3125,3.5011,3.7001,3.902,3.8841,3.7225,3.4382,3.3395,3.2629,3.2104,3.2465,0.0,0.0,0.0,0.0,0.0,0.0,0.0,0.0,0.0,0.0,0.0,0.0,3.3446,3.27,3.2611,0.0,0.0,0.0,0.0,0.0,3.3606,3.4283,3.4281,3.2896,3.3705,3.4447,3.3125,3.2972,3.3273,3.3875,3.4402,3.5251,3.6842,0.0,3.8455,4.2868,0.0,0.0,0.0,0.0,0.0,0.0,0.0,0.0,0.0,0.0,0.0,0.0,0.0,0.0,0.0,0.0,4.9629,4.918,4.8926,4.8711,4.8516,4.8496,4.8594,4.8808,4.8164,4.7037,4.5501,4.4206,4.268,4.0907,0.0,3.8009,3.6577,3.6263,3.5329,3.417,3.4436,3.3894,3.2905,3.2877,3.2194,3.1289,0.0,0.0,0.0,0.0,0.0,0.0,0.0,0.0,0.0,0.0,0.0,0.0,0.0,0.0,0.0,0.0,0.0,0.0,0.0,0.0,2.4277,2.5076,2.5614,2.6373,2.7273,2.8607,3.115,3.4967,3.6926,3.8751,4.0337,3.8212,3.5938,3.3709,3.3036,3.2688,3.2629,3.2935,3.3274,0.0,0.0,0.0,0.0,0.0,0.0,0.0,0.0,0.0,0.0,0.0,0.0,0.0,0.0,0.0,0.0,3.315,3.2433,3.1836,3.3244,3.3878,3.4145,3.4175,3.4663,3.519,3.5248,3.4753,3.4678,3.6183,3.6686,3.6973,3.7423,3.8994,0.0,4.3132,0.0,0.0,0.0,0.0,0.0,0.0,0.0,0.0,0.0,0.0,0.0,0.0,0.0,0.0,0.0,0.0,4.9219,4.8913,4.8437,4.793,4.7343,4.6843,4.6786,4.7189,4.6786,4.5149,4.2445,4.2003,4.0276,3.7637,3.7201,3.562,3.3317,3.3289,3.2203,3.0621,3.0982,3.1209,3.1289,3.1009,3.0849,3.0715,0.0,0.0,0.0,0.0,0.0,0.0,0.0,0.0,0.0,0.0,0.0,0.0,0.0,0.0,0.0,0.0,0.0,0.0,0.0,0.0,2.5333,2.5115,2.625,2.7686,2.9365,3.0628,3.2961,3.6374,3.8285,3.9631,4.0337,3.7764,3.5805,3.4399,3.3734,3.3121,3.2666,3.3941,3.4108,3.3662,0.0,0.0,0.0,0.0,0.0,0.0,0.0,0.0,0.0,0.0,0.0,0.0,0.0,0.0,3.2929,3.4756,3.3973,3.3123,3.5929,3.5601,3.4647,3.5446,3.4874,3.4617,3.6564,3.6158,3.6158,3.8843,4.0173,4.0418,0.0,4.1605,4.3933,4.3697,0.0,0.0,0.0,0.0,0.0,0.0,0.0,0.0,0.0,0.0,0.0,0.0,0.0,0.0,0.0,0.0,0.0,4.8913,4.8437,4.7114,4.4872,4.4015,4.3788,4.4215,4.3788,4.2281,3.9765,3.685,3.541,3.4968,3.1927,3.0456,3.0223,2.9939,2.9918,3.0034,3.0608,3.1156,3.1597,3.1303,3.1022,3.0755,0.0,0.0,0.0,0.0,0.0,0.0,0.0,0.0,0.0,0.0,0.0,0.0,0.0,0.0,0.0,0.0,0.0,0.0,0.0,0.0,2.6029,2.6381,2.7361,2.8399,2.9562,3.2886,3.6237,3.9547,4.0715,4.0775,3.972,3.7105,3.5386,3.4453,3.3407,3.3275,3.3871,3.4366,3.4688,3.4875,3.511,0.0,0.0,0.0,0.0,0.0,0.0,0.0,0.0,0.0,3.4831,3.4131,3.5183,3.5001,3.4555,3.5294,3.4109,3.2848,3.3956,3.4204,3.428,3.4952,3.5311,3.5995,3.7811,3.8718,3.9797,4.2231,4.3388,0.0,0.0,0.0,4.3081,4.3976,0.0,0.0,0.0,0.0,0.0,0.0,0.0,0.0,0.0,0.0,0.0,0.0,0.0,0.0,0.0,0.0,0.0,4.6243,4.5516,4.3942,4.1515,4.0909,3.9945,3.8558,3.9755,3.9026,3.6651,3.5243,3.3567,3.1715,3.0452,2.982,2.9633,2.9526,2.9766,3.0234,3.0635,3.1036,3.1343,3.0862,3.0667,3.0533,0.0,0.0,0.0,0.0,0.0,0.0,0.0,0.0,0.0,0.0,0.0,0.0,0.0,0.0,0.0,0.0,0.0,0.0,2.5236,2.5865,2.6494,2.7179,2.8104,2.9218,3.049,3.4622,3.7973,4.0445,4.1343,4.0655,3.8452,3.6207,3.4815,3.416,3.3497,3.3841,3.4942,3.4713,3.5136,3.5915,3.5222,3.4648,0.0,0.0,0.0,0.0,0.0,0.0,0.0,0.0,3.4757,3.4338,3.522,3.5294,3.51,3.5408,3.3779,3.2017,3.2449,3.2738,3.3068,3.3972,3.5554,3.7562,4.0125,4.1304,4.2758,4.605,4.573,4.4468,4.2967,0.0,0.0,0.0,0.0,0.0,0.0,0.0,0.0,0.0,0.0,0.0,0.0,0.0,0.0,0.0,0.0,0.0,0.0,0.0,0.0,0.0,4.2787,4.0772,3.821,3.778,3.6343,3.4027,3.5319,3.5122,3.3596,3.3176,3.1817,2.9766,2.9579,2.9446,2.9339,2.9339,2.974,3.044,3.0782,3.0996,3.1036,3.0587,3.04,3.036,0.0,0.0,0.0,0.0,0.0,0.0,0.0,0.0,0.0,0.0,0.0,0.0,0.0,0.0,0.0,0.0,0.0,0.0,2.4515,2.5887,2.6857,2.7189,2.8408,3.0142,3.2392,3.5653,3.7704,3.8409,3.9738,3.905,3.6464,3.5116,3.4128,3.353,3.4191,3.4941,3.5646,3.4915,3.5442,3.6612,3.4458,3.439,0.0,0.0,0.0,0.0,0.0,0.0,0.0,0.0,3.4069,3.3724,3.507,3.4806,3.4194,3.5182,3.3067,3.0734,3.2188,3.1642,3.1014,3.2717,3.5604,3.9169,4.3607,4.3815,4.4622,5.0142,4.7179,4.3225,4.2051,4.1827,0.0,0.0,0.0,0.0,0.0,0.0,0.0,0.0,0.0,0.0,0.0,0.0,0.0,0.0,0.0,0.0,0.0,0.0,0.0,0.0,4.0635,3.7856,3.5105,3.4607,3.3314,3.1176,3.0635,3.056,3.0768,3.0181,2.9753,2.9446,2.8858,2.8735,2.9001,2.9001,2.9566,3.0467,3.0996,3.1036,3.0755,3.0507,3.04,3.036,0.0,0.0,0.0,0.0,0.0,0.0,0.0,0.0,0.0,0.0,0.0,0.0,0.0,0.0,0.0,0.0,0.0,0.0,2.6065,2.6463,2.6857,2.7189,2.7974,2.8615,2.9036,3.1824,3.5174,3.9092,3.902,3.7661,3.5086,3.4683,3.4377,3.4236,3.4889,3.5339,3.5596,3.4888,3.5136,3.5807,3.4244,3.3854,3.4229,0.0,0.0,0.0,0.0,0.0,0.0,0.0,0.0,0.0,3.507,3.5096,3.4629,3.4474,3.3054,3.154,3.1589,3.2259,3.309,3.3838,3.751,4.1756,4.4894,4.5742,4.6705,4.964,4.6819,4.3826,4.3844,0.0,0.0,0.0,0.0,0.0,0.0,0.0,0.0,0.0,0.0,0.0,0.0,0.0,0.0,0.0,0.0,0.0,0.0,0.0,0.0,0.0,3.6427,3.4636,3.2089,3.196,3.1655,3.1176,3.0635,3.0453,3.052,2.9873,2.9339,2.8858,2.8684,2.8735,2.9041,2.9713,3.0172,3.04,3.0314,3.0381,3.048,2.9927,2.9873,3.0034,0.0,0.0,0.0,0.0,0.0,0.0,0.0,0.0,0.0,0.0,0.0,0.0,0.0,0.0,0.0,0.0,0.0,0.0,0.0,2.6818,2.7156,2.7189,2.7838,2.8361,2.8736,3.0807,3.3469,3.6669,3.6776,3.5925,3.4099,3.4667,3.4769,3.4545,3.5476,3.5936,3.5912,3.4682,3.4904,3.5856,3.3932,3.3482,3.3959,0.0,0.0,0.0,0.0,0.0,0.0,0.0,0.0,0.0,3.507,3.5317,3.5001,3.4225,3.2845,3.1575,3.1543,3.2335,3.3682,3.5695,3.8951,4.2331,4.4879,4.7046,0.0,0.0,4.6468,4.4235,4.4062,4.4117,0.0,0.0,0.0,0.0,0.0,0.0,0.0,0.0,0.0,0.0,0.0,0.0,0.0,0.0,0.0,0.0,0.0,0.0,0.0,0.0,3.3084,3.1699,3.01,3.0207,3.0421,3.0702,3.0354,3.0172,3.0038,2.9526,2.8978,2.843,2.8551,2.8735,2.9041,2.974,3.0052,3.0038,2.982,2.986,2.9998,2.9486,2.9566,2.99,0.0,0.0,0.0,0.0,0.0,0.0,0.0,0.0,0.0,0.0,2.2487,0.0,0.0,0.0,0.0,0.0,0.0,0.0,0.0,0.0,2.7622,2.7221,2.7858,2.8888,3.0303,3.1492,3.2181,3.2314,3.3651,3.4009,3.3425,3.4771,3.507,3.4563,3.5895,3.6499,3.6369,3.4424,3.474,3.637,3.3678,3.3363,3.444,3.3819,0.0,0.0,0.0,0.0,0.0,0.0,0.0,0.0,3.51,3.5484,3.5238,3.4119,3.2506,3.1227,3.1781,3.2071,3.3258,3.7668,3.9954,4.1791,4.424,4.7609,4.9637,4.776,0.0,4.4473,4.3393,0.0,0.0,0.0,0.0,0.0,0.0,0.0,0.0,0.0,0.0,0.0,0.0,0.0,0.0,0.0,0.0,0.0,0.0,0.0,0.0,3.2727,3.0592,2.9312,2.9001,2.9312,2.9593,0.0,2.9873,2.9726,2.9432,2.9121,2.8711,2.8205,2.847,2.8751,2.8975,2.9325,2.9446,2.9446,2.9419,2.9419,2.9406,2.9068,2.9308,2.9793,0.0,0.0,0.0,0.0,0.0,0.0,0.0,0.0,0.0,0.0,0.0,0.0,0.0,0.0,0.0,0.0,0.0,0.0,0.0,0.0,2.7622,2.7221,2.7531,2.8125,2.8916,2.9211,2.9862,3.0847,3.2266,3.2841,3.2751,3.4099,3.4637,3.4563,3.5895,3.6233,3.5657,3.4716,3.4851,3.562,3.3955,3.3773,3.4471,3.4332,3.4368,0.0,0.0,0.0,0.0,0.0,0.0,0.0,3.525,3.5288,3.4669,3.2804,3.2035,3.1762,3.1579,3.1822,3.3004,3.673,4.0255,4.3478,4.5928,4.6014,4.5389,4.481,4.4306,4.4011,0.0,0.0,0.0,0.0,0.0,0.0,0.0,0.0,0.0,0.0,0.0,0.0,0.0,0.0,0.0,0.0,0.0,0.0,0.0,0.0,0.0,2.9909,2.9387,2.9068,2.9001,2.9055,2.9285,0.0,2.9579,2.9419,2.9095,2.9028,2.8711,2.8205,2.847,2.8644,2.8724,2.8975,2.9095,2.9068,2.8885,2.8938,2.9055,2.8804,2.8881,2.9175,0.0,0.0,0.0,0.0,0.0,0.0,0.0,0.0,0.0,0.0,0.0,0.0,0.0,0.0,0.0,0.0,0.0,0.0,0.0,0.0,2.8642,2.8691,2.856,2.8645,2.8904,2.8953,2.9621,3.093,3.1332,3.2011,3.2953,3.4013,3.4667,3.5011,3.6044,3.6118,3.5459,3.4787,3.4888,3.5413,3.4404,3.418,3.4471,3.4134,3.4009,3.4009,3.4053,0.0,0.0,0.0,0.0,0.0,0.0,0.0,3.3981,3.2788,3.2116,3.1902,3.2295,3.2834,3.4147,3.7604,4.079,4.3205,4.3552,4.296,4.235,4.2295,4.2863,4.3535,0.0,0.0,0.0,0.0,0.0,0.0,0.0,0.0,0.0,0.0,0.0,0.0,0.0,0.0,0.0,0.0,0.0,2.8539,0.0,2.7357,2.7139,2.6944,2.8033,2.8604,2.8604,2.8764,2.8911,2.9072,2.9205,2.9112,2.8788,2.8671,2.8444,2.8192,2.8353,2.847,2.8604,2.8604,2.8698,2.8761,2.8497,2.8564,2.8791,2.8497,2.8657,2.8975,0.0,0.0,0.0,0.0,0.0,0.0,0.0,0.0,0.0,0.0,0.0,0.0,0.0,0.0,0.0,0.0,0.0,0.0,0.0,0.0,0.0,3.0087,2.983,2.9714,2.9744,2.9919,3.0612,3.1843,3.1161,3.1907,3.392,3.4197,3.4757,3.5519,3.6058,3.602,3.5457,3.4895,3.5001,3.5457,3.4895,3.4667,3.4607,3.4069,3.3754,3.3604,3.302,3.2751,3.2751,3.3305,0.0,0.0,0.0,0.0,3.3405,3.2932,3.2151,3.1707,3.2777,3.3873,3.5387,3.8241,4.0483,4.1542,4.0003,4.0,4.0312,4.0391,4.1777,0.0,0.0,0.0,0.0,0.0,0.0,0.0,0.0,0.0,0.0,0.0,0.0,0.0,0.0,0.0,0.0,0.0,0.0,2.3222,2.1641,2.3525,2.4597,2.4592,2.6828,2.8058,2.8112,2.8323,2.847,2.8524,2.8764,2.8791,2.8591,2.8326,2.8179,2.8179,2.8179,2.8326,2.8511,2.8286,2.8339,2.8497,2.8286,2.8339,2.8497,2.8286,2.85,2.8845,0.0,0.0,0.0,0.0,0.0,0.0,0.0,0.0,0.0,0.0,0.0,0.0,0.0,0.0,0.0,0.0,0.0,0.0,2.7826,0.0,0.0,2.9341,2.9996,3.0617,3.1112,3.1767,3.2442,3.3166,3.2538,3.3535,3.5966,3.4379,3.4292,3.5519,3.5579,3.5572,3.5508,3.5402,3.5407,3.5492,3.5386,3.537,3.537,3.528,3.4861,3.4338,3.4248,3.3859,3.3365,3.3455,3.3425,0.0,0.0,0.0,3.3241,3.1876,3.1184,3.0956,3.1259,3.3192,3.5251,3.5826,3.7262,3.8586,3.8745,3.9082,3.9492,0.0,4.1328,0.0,0.0,0.0,0.0,0.0,0.0,0.0,0.0,0.0,0.0,0.0,0.0,0.0,0.0,0.0,0.0,0.0,2.2932,2.1474,2.1107,2.3126,2.4202,2.4104,2.6239,2.755,2.7749,2.7802,2.7991,2.8245,2.8286,2.8419,2.8591,2.8326,2.8179,2.8179,2.8179,2.8205,2.8245,2.8205,2.8205,2.8245,2.8205,2.8205,2.8245,2.8205,2.8232,2.8299,0.0,0.0,0.0,0.0,0.0,0.0,0.0,0.0,0.0,0.0,0.0,0.0,0.0,0.0,0.0,2.8496,2.8525,2.8622,2.8846,2.9019,2.9362,2.9961,3.0635,3.1309,3.1899,3.2298,3.2806,3.3451,3.2817,3.3863,3.6436,3.5199,3.5519,3.7105,3.6746,3.6179,3.5487,3.5094,3.4947,3.4956,3.4944,3.4937,3.4907,3.4532,3.3963,3.3335,3.2946,0.0,0.0,0.0,3.2392,3.2452,3.2811,0.0,0.0,0.0,3.0838,3.0292,3.0445,3.2266,3.4173,3.4246,3.5215,3.623,3.668,3.7305,3.791,3.834,0.0,0.0,0.0,0.0,0.0,0.0,0.0,0.0,0.0,0.0,0.0,0.0,0.0,0.0,0.0,0.0,0.0,0.0,1.8493,1.7146,1.6956,2.0284,2.2068,2.183,2.5379,2.7282,2.7215,2.7375,2.7563,2.7697,2.7697,2.7844,2.8096,2.7949,2.8031,2.8179,2.8179,2.8179,2.8179,2.8179,2.8179,2.8179,2.8179,2.8179,2.8179,2.8179,2.8179,2.8179,0.0,0.0,0.0,0.0,0.0,0.0,0.0,0.0,0.0,0.0,0.0,0.0,0.0,0.0,0.0,0.0,2.8981,2.9095,2.9284,2.9432,2.9756,3.0292,3.1069,3.176,3.2283,3.2592,3.2983,3.3515,3.2845,3.4063,3.6986,3.6297,3.7285,3.9589,3.8242,3.7027,3.5945,3.5287,3.5124,3.5207,3.4506,3.4248,3.4158,3.3484,3.2736,3.1974,3.1809,0.0,0.0,0.0,0.0,0.0,0.0,0.0,0.0,0.0,0.0,2.9074,2.8802,3.0202,3.1779,3.1898,3.293,3.3907,3.3944,0.0,3.5448,0.0,0.0,0.0,0.0,0.0,0.0,0.0,0.0,0.0,0.0,0.0,0.0,0.0,0.0,0.0,0.0,0.0,0.0,0.0,1.5017,1.3933,1.3693,1.7942,2.0189,1.9775,2.4368,2.6747,2.66,2.7041,2.7309,2.7309,2.7309,2.7416,2.7589,2.7669,2.7816,2.8072,2.8152,2.8179,2.8179,2.8179,2.8179,2.8179,2.8179,2.8179,2.8179,2.8179,2.8179,2.8179,0.0,0.0,0.0,0.0,0.0,0.0,0.0,0.0,0.0,0.0,0.0,0.0,2.8964,2.8975,2.8981,2.8981,2.8981,2.8852,2.8481,2.9159,2.9588,2.9565,3.0981,0.0,3.2303,3.2996,3.3394,3.3515,3.2845,3.4508,3.8388,3.7641,3.9361,4.2921,3.9738,3.7994,3.7353,3.6671,3.6756,3.7107,3.4589,3.3544,3.3484,3.2811,0.0,0.0,0.0,0.0,0.0,0.0,0.0,0.0,0.0,0.0,0.0,0.0,0.0,0.0,2.5332,2.6185,2.7609,2.7918,2.9844,3.1386,3.0229,0.0,3.1627,0.0,0.0,0.0,0.0,0.0,0.0,0.0,0.0,0.0,0.0,0.0,0.0,0.0,0.0,0.0,0.0,0.0,0.0,0.0,1.3976,1.3687,1.3437,1.7451,1.9474,1.8881,2.3255,2.5732,2.6038,2.6881,2.7309,2.7309,2.7309,2.7309,2.7336,2.7575,2.7709,2.7736,2.8058,2.8179,2.8179,2.8179,2.8179,2.8179,2.8179,2.8179,2.8179,2.8179,2.8179,2.8179,0.0,0.0,0.0,0.0,0.0,0.0,0.0,0.0,0.0,0.0,0.0,0.0,0.0,2.8981,2.8981,2.8981,2.8981,2.894,2.8785,2.9788,3.0241,2.9916,3.1628,3.2479,3.2303,3.3501,3.3717,3.285,3.3078,3.4359,3.6558,3.631,3.7614,4.0127,3.9379,3.87,3.7963,3.6039,3.5096,0.0,0.0,0.0,0.0,0.0,0.0,0.0,0.0,0.0,0.0,0.0,0.0,0.0,0.0,0.0,0.0,0.0,2.7073,2.6332,2.5306,2.529,2.5826,2.7068,2.8237,2.8782,2.7738,2.8793,2.9659,2.8426,0.0,0.0,0.0,0.0,0.0,0.0,0.0,0.0,0.0,0.0,0.0,0.0,0.0,0.0,0.0,0.0,0.0,0.0,0.0,1.7593,1.703,1.9577,2.0687,1.9922,2.3166,2.509,2.5422,2.5892,2.6146,2.6146,2.6372,2.656,2.676,2.7201,2.7522,2.7709,2.8058,2.8179,2.8179,2.8179,2.8179,2.8179,2.8179,2.8179,2.8179,2.8179,2.8179,2.8179,0.0,0.0,0.0,0.0,0.0,0.0,0.0,0.0,0.0,0.0,0.0,0.0,0.0,0.0,2.8981,2.8981,2.8981,2.894,2.8797,2.9788,3.0248,2.9924,3.1359,3.211,3.1921,3.2892,3.3095,3.2466,3.2732,3.3764,3.5497,3.5513,3.6656,3.8751,3.8733,3.8601,3.829,0.0,0.0,3.4651,0.0,0.0,3.2123,0.0,0.0,0.0,0.0,0.0,0.0,0.0,0.0,0.0,0.0,0.0,0.0,0.0,0.0,2.5696,2.465,2.4356,2.464,2.5939,2.655,2.6507,2.5344,2.6109,2.6592,2.4923,0.0,0.0,0.0,0.0,0.0,0.0,0.0,0.0,0.0,0.0,0.0,0.0,0.0,0.0,0.0,0.0,0.0,0.0,0.0,0.0,1.8853,2.0637,2.1654,2.1618,2.3264,2.4399,2.493,2.5224,2.5411,2.5518,2.5718,2.5959,2.6305,2.6787,2.7229,2.7562,2.7911,2.8098,2.8179,2.8179,2.8179,2.8179,2.8179,2.8179,2.8179,2.8179,2.8179,2.8179,0.0,0.0,0.0,0.0,0.0,0.0,0.0,0.0,0.0,2.7671,0.0,0.0,0.0,0.0,0.0,2.9025,2.9025,2.8858,2.8468,2.9215,2.9618,2.953,3.0249,3.0802,3.121,3.1224,3.1639,3.2416,3.1777,3.2851,3.5442,3.5451,3.6836,3.9242,3.7943,3.7734,3.8272,0.0,3.7375,3.7058,0.0,3.2362,3.3544,0.0,0.0,0.0,3.4695,3.4157,0.0,0.0,0.0,0.0,0.0,0.0,0.0,0.0,0.0,0.0,0.0,0.0,0.0,2.426,2.4693,2.4609,2.2971,0.0,2.2356,2.0199,0.0,0.0,0.0,0.0,0.0,0.0,0.0,0.0,0.0,0.0,0.0,0.0,0.0,0.0,0.0,0.0,0.0,0.0,1.9916,1.9338,1.8603,2.0373,2.2117,2.3692,2.3447,2.3679,2.4532,2.489,2.5184,2.5478,2.5478,2.5651,2.5998,2.6253,2.6707,2.7322,2.7575,2.7911,2.8179,2.8179,2.8179,2.8179,2.8179,2.8179,2.8179,2.8179,2.8179,2.8179,0.0,0.0,0.0,0.0,0.0,0.0,0.0,0.0,2.6451,0.0,0.0,0.0,2.899,2.9497,2.979,2.979,2.979,2.9754,2.9651,3.0376,3.0674,3.0309,3.1036,3.1379,3.12,3.2239,3.2644,3.2416,3.2793,3.3353,3.4034,3.4046,3.4951,3.658,3.6686,3.6567,3.6297,3.6101,0.0,3.7135,3.4143,3.3754,0.0,0.0,0.0,0.0,0.0,3.2961,3.2452,0.0,3.2168,3.2258,0.0,0.0,0.0,0.0,0.0,0.0,2.4926,0.0,0.0,0.0,0.0,0.0,0.0,0.0,0.0,1.8961,0.0,0.0,0.0,0.0,0.0,0.0,0.0,0.0,0.0,0.0,0.0,0.0,0.0,0.0,0.0,0.0,0.0,0.0,2.4051,2.3491,2.2644,2.2119,2.2042,2.2485,2.2605,2.2886,2.3388,2.391,2.4275,2.4569,2.4746,2.5144,2.5651,2.6159,2.6707,2.7322,2.7575,2.7911,2.8179,2.8179,2.8179,2.8179,2.8179,2.8179,2.8179,2.8179,2.8179,2.8179,0.0,0.0,0.0,0.0,0.0,0.0,2.5935,2.6728,2.7377,0.0,0.0,0.0,2.9438,3.0682,3.1116,3.0161,3.0372,3.0371,2.9895,3.0576,3.0811,3.0413,3.1133,3.1593,3.165,3.252,3.3051,3.3295,3.3198,3.327,3.3527,3.3514,3.3903,3.4711,3.5639,3.5878,3.5519,0.0,0.0,0.0,3.4233,0.0,0.0,3.4187,3.3738,0.0,0.0,0.0,3.4741,3.3395,3.3006,0.0,0.0,0.0,0.0,0.0,0.0,0.0,0.0,0.0,0.0,0.0,0.0,0.0,1.9247,1.9432,0.0,0.0,0.0,0.0,0.0,0.0,0.0,0.0,0.0,0.0,0.0,0.0,0.0,0.0,0.0,0.0,0.0,2.5919,2.5718,2.5424,2.513,2.4583,2.3688,2.2505,2.189,2.201,2.2031,2.2258,2.2672,2.3188,2.3576,2.3848,2.4262,2.4666,2.5133,2.5758,2.6413,2.7094,2.7388,2.7804,2.8179,2.8179,2.8179,2.8179,2.8179,2.8179,2.8179,2.8179,2.8179,2.8179,0.0,0.0,0.0,2.5861,2.6703,2.7346,2.7824,2.8496,2.9011,0.0,2.937,2.9812,3.0615,3.238,3.2722,3.0747,3.1125,3.1009,2.9989,3.0549,3.0791,3.049,3.1089,3.1742,3.2429,3.2496,3.3207,3.4516,3.3249,3.2984,3.37,3.3581,3.3544,3.3664,0.0,0.0,0.0,0.0,0.0,3.4338,3.3903,3.4951,0.0,0.0,3.6866,0.0,3.8063,3.829,3.7823,3.4689,3.3138,0.0,0.0,0.0,0.0,0.0,2.6469,0.0,0.0,0.0,0.0,0.0,0.0,0.0,1.9137,1.856,1.7706,0.0,0.0,0.0,0.0,0.0,0.0,0.0,0.0,0.0,0.0,0.0,0.0,0.0,0.0,0.0,2.517,2.4983,2.473,2.4426,2.4168,2.3661,2.2893,2.2037,2.1689,2.1884,2.1703,2.1836,2.2311,2.2653,2.3042,2.3552,2.4156,2.4566,2.4908,2.554,2.618,2.6841,2.7134,2.7643,2.8179,2.8179,2.8179,2.8179,2.8179,2.8179,2.8179,2.8179,2.8179,2.8179,0.0,0.0,0.0,2.5459,2.6531,2.7648,2.8956,2.9244,2.9781,3.1054,3.1994,3.3035,3.4378,3.4389,3.4126,3.3683,3.324,3.2869,3.2642,3.2768,3.2829,3.2747,3.2882,3.3051,3.3186,3.3772,3.4212,3.4516,3.3762,3.3745,3.4409,3.378,3.3799,3.4324,3.4578,0.0,0.0,0.0,0.0,3.3784,3.4741,0.0,3.8644,3.7092,3.6866,3.7434,3.7554,3.7614,3.7302,0.0,3.357,3.1987,0.0,0.0,0.0,0.0,0.0,0.0,0.0,0.0,0.0,0.0,0.0,0.0,1.8908,1.8956,1.9118,0.0,0.0,0.0,0.0,0.0,0.0,0.0,0.0,0.0,0.0,0.0,0.0,0.0,0.0,0.0,2.3375,2.3362,2.3308,2.3255,2.2939,2.2686,2.2512,2.193,2.1502,2.1283,2.1489,2.1636,2.1756,2.205,2.3142,2.5096,2.5579,2.6161,2.6779,2.7509,2.747,2.6841,2.7134,2.7643,2.8179,2.8179,2.8179,2.8179,2.8179,2.8179,2.8179,2.8179,2.8179,2.8179,0.0,0.0,2.5642,2.7528,2.8601,0.0,3.1724,3.1652,3.1949,3.3505,3.4839,3.5645,3.56,3.5949,3.5723,3.4618,3.4167,3.3795,0.0,3.3413,3.3413,3.3413,3.3413,3.3558,3.3931,3.4303,3.4675,3.5036,3.4068,3.395,3.4588,3.3856,3.3484,3.3544,3.4532,3.4458,0.0,0.0,3.4801,3.4562,3.522,0.0,3.7853,3.6883,3.6866,3.7447,3.7793,3.754,3.6828,3.5259,3.4025,0.0,0.0,2.9472,2.9696,0.0,2.7864,2.684,0.0,0.0,0.0,2.2947,0.0,0.0,0.0,1.8688,1.8587,1.7283,1.6802,1.6661,1.6813,0.0,0.0,0.0,0.0,0.0,0.0,0.0,0.0,0.0,0.0,0.0,2.1924,2.2158,2.2305,2.2452,2.2151,2.1991,2.1991,2.1609,2.1269,2.1109,2.1256,2.1368,2.1368,2.2443,2.358,2.4767,2.5424,2.6031,2.6576,2.6702,2.6638,2.6413,2.6854,2.7375,2.7965,2.7965,2.8045,2.8179,2.8179,2.8179,2.8179,2.8179,2.8179,2.8179,2.5803,0.0,2.7199,2.9499,3.0615,3.1911,3.3975,3.3897,3.4157,3.5645,3.7166,3.7674,3.6591,0.0,0.0,0.0,3.4878,3.4404,0.0,0.0,0.0,3.3818,3.3818,3.4032,3.4483,3.4641,3.5081,3.5847,3.4447,3.4193,3.5003,3.4101,3.3455,3.314,3.4366,3.4532,3.3933,0.0,0.0,3.5519,0.0,3.5908,3.6493,3.6493,3.6866,3.746,3.7912,3.7479,3.6406,3.4803,0.0,3.3142,2.8916,2.9342,0.0,0.0,0.0,0.0,0.0,0.0,0.0,0.0,0.0,2.1205,0.0,0.0,0.0,1.7193,1.6638,1.6524,1.7189,1.7752,0.0,0.0,0.0,0.0,0.0,0.0,0.0,0.0,0.0,0.0,0.0,2.102,2.1328,2.1729,2.1448,2.1328,2.1489,2.1243,2.1109,2.1109,2.1109,2.1267,2.1569,2.3151,2.4276,2.4999,2.5461,2.5898,2.6295,2.58,2.571,2.6024,2.6573,2.7148,2.7696,2.7696,2.7843,2.8098,2.8165,2.8179,2.8179,2.8179,2.8179,2.8179,2.6598,2.6116,0.0,2.873,3.0287,3.1732,3.3288,3.3998,3.4923,3.6445,3.7968,3.9051,0.0,0.0,0.0,0.0,0.0,0.0,3.9082,0.0,0.0,3.534,3.5329,3.507,3.4516,3.5137,3.5859,3.6648,3.5198,3.5157,3.6426,3.5034,3.4667,3.51,3.3529,0.0,0.0,0.0,3.3858,0.0,3.5519,3.5908,0.0,3.6493,3.6866,3.7344,3.707,3.6599,3.5859,0.0,3.3129,3.2086,0.0,3.0116,0.0,0.0,0.0,0.0,0.0,0.0,0.0,0.0,2.2802,0.0,0.0,0.0,1.9926,1.8639,0.0,1.839,1.8688,0.0,0.0,0.0,0.0,0.0,0.0,0.0,0.0,0.0,0.0,0.0,0.0,1.9629,1.9977,2.0793,2.0307,2.0334,2.1122,2.1122,2.1109,2.1109,2.1109,2.1821,2.3294,2.3542,2.5277,2.8516,2.7527,2.7442,2.8067,2.7514,2.6766,2.6024,2.6573,2.7148,2.7696,2.7696,2.7722,2.7776,2.8085,2.8179,2.8179,2.8179,2.8179,2.8179,2.67,2.6463,0.0,2.9228,3.0142,3.1495,3.4258,3.6806,3.8464,3.87,4.0392,0.0,0.0,0.0,0.0,0.0,0.0,3.7719,0.0,0.0,0.0,0.0,0.0,0.0,0.0,3.6141,3.6479,3.6795,3.5328,3.5317,3.6681,3.5187,3.4428,3.4322,3.3844,0.0,3.4352,0.0,3.4725,0.0,0.0,0.0,0.0,3.6344,3.6734,3.7043,3.6942,3.6212,3.4897,0.0,3.2241,0.0,0.0,0.0,0.0,0.0,0.0,0.0,0.0,0.0,0.0,0.0,0.0,0.0,0.0,0.0,1.9902,0.0,0.0,0.0,0.0,0.0,0.0,0.0,1.9923,0.0,0.0,0.0,0.0,0.0,0.0,0.0,0.0,0.0,0.0,0.0,1.9492,1.9736,2.008,2.0414,2.057,2.057,2.057,2.1471,2.329,2.4267,2.608,2.8679,2.7384,2.7127,2.7719,2.6105,2.468,2.3599,2.4172,2.4106,2.3598,2.3598,2.4413,2.5669,2.5823,2.6726,2.7951,2.8125,2.8179,2.8179,2.7342,0.0,0.0,0.0,0.0,3.1891,0.0,0.0,0.0,0.0,0.0,0.0,4.4736,4.3809,0.0,0.0,4.1728,3.9848,0.0,0.0,3.6916,0.0,0.0,0.0,0.0,0.0,3.6671,3.7074,3.5591,3.5591,3.6983,3.5462,3.4518,3.4053,0.0,3.4697,3.4622,0.0,3.6118,3.6357,3.7088,3.6475,3.5143,3.5633,3.6002,3.6244,3.5796,3.4942,3.3668,3.1487,3.1484,0.0,2.9729,0.0,0.0,0.0,0.0,0.0,2.428,0.0,0.0,0.0,0.0,0.0,0.0,0.0,0.0,0.0,0.0,0.0,0.0,0.0,2.1312,0.0,0.0,2.114,0.0,0.0,0.0,0.0,0.0,0.0,0.0,0.0,0.0,0.0,0.0,1.8933,1.9254,1.972,2.0037,2.0197,2.0197,2.111,2.2976,2.4207,2.5757,2.7623,2.6191,2.5848,2.6453,2.4458,2.3153,2.2503,2.3186,2.2966,2.2201,2.2267,2.3324,2.4936,2.5009,2.6048,2.7495,2.7831,2.7991,2.8058,2.8942,2.8315,0.0,0.0,0.0,0.0,0.0,0.0,0.0,0.0,0.0,0.0,0.0,0.0,0.0,0.0,0.0,4.0809,4.3164,0.0,3.6396,0.0,0.0,3.5728,0.0,0.0,0.0,3.7775,3.6303,3.633,3.7732,3.6181,3.5459,3.5459,3.5459,3.6148,3.7268,3.7315,3.7704,3.8242,3.7644,3.6043,3.4058,0.0,3.4508,3.481,3.2857,0.0,0.0,3.1578,3.1055,0.0,0.0,0.0,0.0,0.0,0.0,0.0,0.0,0.0,0.0,2.2227,0.0,0.0,0.0,0.0,2.1035,0.0,0.0,0.0,0.0,2.2129,2.1602,2.0762,0.0,0.0,0.0,0.0,0.0,0.0,0.0,0.0,0.0,0.0,0.0,0.0,0.0,0.0,1.885,1.9225,1.9653,2.0184,2.0197,2.0999,2.2706,2.2751,2.3766,2.5664,2.3989,2.365,2.4446,2.3416,2.338,2.4166,2.5031,2.571,2.6241,2.648,2.6639,2.676,2.708,2.7067,2.6881,2.7229,2.7468,2.7709,0.0,0.0,0.0,0.0,0.0,0.0,0.0,3.8264,0.0,0.0,0.0,0.0,0.0,0.0,4.7792,0.0,0.0,4.4333,4.3924,4.1208,0.0,0.0,0.0,3.7772,0.0,0.0,0.0,0.0,0.0,3.7325,3.7793,3.6722,3.6243,3.6212,3.5718,3.5998,0.0,0.0,0.0,0.0,0.0,3.6616,3.6202,0.0,0.0,3.2988,3.2756,3.2234,0.0,3.1055,3.0984,3.0913,2.9633,2.8562,2.7531,2.5886,2.4595,0.0,0.0,0.0,2.3162,2.248,0.0,0.0,0.0,0.0,0.0,0.0,0.0,0.0,0.0,0.0,2.1687,2.1093,2.1106,0.0,0.0,0.0,0.0,0.0,0.0,0.0,0.0,0.0,0.0,0.0,0.0,0.0,0.0,1.8438,1.8971,1.933,1.9559,2.0545,2.2361,2.2361,2.3362,2.5269,2.3632,2.3186,2.3823,2.278,2.2001,2.1544,2.2423,2.2363,2.1652,2.1977,2.308,2.4705,2.613,2.7452,2.8619,2.9448,2.9821,2.9895,3.1295,0.0,0.0,0.0,0.0,0.0,0.0,0.0,0.0,0.0,4.5679,0.0,5.0191,0.0,4.9974,0.0,4.8365,4.6565,4.4182,4.2766,0.0,3.9916,3.9752,0.0,0.0,0.0,0.0,0.0,0.0,3.7811,3.7793,3.6707,3.6337,3.66,3.6881,3.6792,3.66,3.8245,3.8344,0.0,0.0,3.619,0.0,0.0,3.3496,3.2554,0.0,3.1579,3.0809,3.0638,3.0708,3.0503,2.8683,2.7591,2.6695,2.5061,2.3874,2.3062,2.2927,2.2984,0.0,2.2596,2.2088,0.0,2.1268,0.0,0.0,0.0,0.0,0.0,0.0,0.0,0.0,2.1094,2.0739,0.0,0.0,1.6949,0.0,0.0,0.0,0.0,0.0,0.0,0.0,0.0,0.0,0.0,0.0,0.0,1.8357,1.8758,1.9187,2.0046,2.1321,2.1249,2.192,2.3357,2.2319,2.207,2.2541,2.2066,2.1497,2.0971,2.1726,2.17,2.1229,2.2396,2.3876,2.5633,2.7883,2.9487,3.0608,3.1423,3.1431,3.0918,0.0,0.0,0.0,0.0,3.4596,0.0,0.0,0.0,4.2164,0.0,4.5665,4.8023,5.0886,5.0581,5.0735,5.2208,5.0213,0.0,4.4296,4.4384,0.0,0.0,3.9019,3.845,3.5645,0.0,0.0,0.0,0.0,0.0,3.7778,3.6258,3.5943,3.6739,3.866,0.0,3.6723,4.006,3.989,3.7315,3.6716,3.4968,3.2713,3.2676,3.3082,3.3398,3.1376,3.0281,2.988,3.0437,3.0281,2.9585,2.8406,2.7319,2.6186,2.4615,2.367,2.3003,2.2635,2.281,2.3003,2.2615,0.0,0.0,0.0,0.0,2.2422,0.0,0.0,0.0,0.0,0.0,0.0,2.0723,1.9825,1.8606,0.0,0.0,0.0,0.0,0.0,0.0,0.0,0.0,0.0,0.0,0.0,0.0,0.0,0.0,1.7889,1.8477,1.9107,1.9562,1.9813,1.9575,1.9693,2.0197,2.0197,2.0388,2.0726,2.1301,2.1877,2.2405,2.3102,2.3888,2.4867,2.7569,2.8852,2.9382,3.2227,3.3131,3.2821,3.3033,3.2292,3.0877,3.2481,3.3616,3.5021,0.0,3.5213,3.5518,0.0,0.0,0.0,0.0,4.7559,4.9364,5.1036,5.1037,5.0717,5.0157,4.9948,0.0,0.0,0.0,0.0,4.2999,4.2113,4.0637,3.8426,3.8896,0.0,3.6265,0.0,0.0,3.7793,3.6783,3.6753,3.7489,3.7364,3.7011,3.66,3.7931,3.7807,3.6733,3.6553,3.5676,0.0,0.0,3.3221,3.3073,3.1689,3.0583,2.993,3.0884,3.0557,2.9468,2.7525,2.6707,2.6088,2.4002,2.3264,2.3081,2.2964,2.3023,2.3084,2.2986,2.2732,2.244,0.0,0.0,0.0,0.0,0.0,0.0,0.0,0.0,0.0,0.0,0.0,0.0,0.0,0.0,0.0,0.0,0.0,0.0,0.0,0.0,0.0,0.0,0.0,0.0,0.0,0.0,0.0,1.8477,1.9265,1.9826,2.009,2.0024,2.005,2.0197,2.0197,2.0388,2.0712,2.1056,2.143,2.1915,2.4008,2.5183,2.5845,2.8596,3.0098,3.1009,3.492,3.6771,3.6943,3.4427,3.3371,3.2969,3.3145,0.0,0.0,3.7372,0.0,0.0,3.9632,0.0,0.0,4.6113,4.8149,0.0,5.0288,5.087,5.069,4.9396,4.9853,0.0,0.0,0.0,0.0,4.5065,4.3585,4.1863,3.987,3.9409,0.0,3.6058,0.0,0.0,3.7248,3.6461,3.6523,3.7265,3.7107,3.6828,3.6523,3.6866,3.6956,3.6836,3.6297,0.0,0.0,3.3439,3.2867,3.2506,3.1675,3.1009,3.0583,3.1205,3.0834,2.9707,2.7269,2.6504,2.6069,2.3757,2.3101,2.3101,2.3101,2.3101,2.3101,2.3101,2.2947,2.2713,2.2537,2.2695,2.2834,0.0,0.0,0.0,0.0,0.0,0.0,0.0,0.0,0.0,0.0,0.0,0.0,0.0,0.0,0.0,0.0,0.0,0.0,0.0,0.0,0.0,0.0,0.0,0.0,1.9888,2.0388,2.0858,2.1286,2.0713,2.0361,2.0197,2.033,2.0508,2.0712,2.0975,2.167,2.274,2.4228,2.5507,2.678,2.9527,3.1096,3.2134,3.576,3.7676,3.7926,3.4108,3.2692,3.2429,0.0,0.0,0.0,0.0,0.0,0.0,0.0,4.3309,0.0,4.645,0.0,4.9696,4.9456,5.0421,5.0601,4.9396,0.0,4.9202,4.6839,4.7788,4.763,4.5753,4.4416,4.2831,4.0965,3.9524,0.0,0.0,0.0,0.0,3.6569,3.5862,3.5879,3.6615,3.7172,3.7019,0.0,3.6374,3.6656,3.7058,3.5968,3.4889,3.3922,3.3124,3.2515,3.2076,3.1747,3.1532,3.1432,3.1461,3.111,3.0149,2.7615,2.6672,2.609,2.3951,2.3212,2.3101,2.3101,2.3101,2.3101,2.3101,2.3101,2.3003,2.2654,2.2576,2.2576,2.2576,2.2576,2.2674,0.0,0.0,0.0,0.0,0.0,0.0,0.0,0.0,0.0,0.0,0.0,0.0,0.0,0.0,0.0,0.0,0.0,0.0,0.0,0.0,0.0,2.1454,2.1628,2.1994,2.2541,0.0,2.0968,2.0761,2.1183,2.1389,2.1403,2.1634,2.2672,2.4276,2.4559,2.5771,2.7729,3.0529,3.2265,3.3447,3.5716,3.6809,3.6658,3.2892,3.1018,3.0082,0.0,0.0,0.0,0.0,0.0,4.3787,4.5962,4.7417,4.8379,4.8738,5.0953,5.1887,5.0219,5.0249,5.0069,4.9366,4.9853,0.0,0.0,0.0,0.0,4.781,4.6501,4.5104,4.3638,4.0785,3.882,0.0,0.0,0.0,3.6569,3.5862,3.5879,3.6569,3.6096,3.5815,3.5669,3.5669,0.0,3.5818,3.5609,3.4889,3.3991,3.3982,3.346,3.2673,3.2768,3.221,3.1482,3.1913,3.1391,3.0363,2.8916,2.7563,2.6256,2.4893,2.3844,2.3101,2.3101,2.3101,2.3101,2.3101,2.3101,2.3081,2.3003,2.2984,2.2984,2.2984,2.2984,2.2927,2.2654,0.0,0.0,0.0,0.0,0.0,0.0,0.0,0.0,0.0,0.0,0.0,0.0,0.0,0.0,0.0,0.0,0.0,0.0,0.0,0.0,0.0,2.0913,0.0,0.0,0.0,2.33,2.3691,2.4611,2.5065,2.5065,2.5129,2.5315,2.5764,2.7442,2.8452,2.9003,3.186,3.4663,3.7045,3.6372,3.52,3.3661,3.168,2.9228,2.6939,0.0,0.0,0.0,0.0,0.0,0.0,0.0,5.0242,0.0,4.9912,5.087,5.0996,4.9381,5.0099,5.0361,4.9366,5.0182,5.0308,4.9366,4.9583,4.9314,4.8327,4.7369,0.0,4.4326,4.1066,3.908,3.8409,0.0,0.0,3.6022,3.5683,3.57,3.6022,3.5667,3.5878,0.0,0.0,0.0,3.6447,3.5759,3.5198,3.4681,3.3788,3.3474,3.3456,3.2567,3.2261,3.2286,3.2215,3.1863,3.1202,2.9808,2.8607,2.7527,2.6422,2.5508,2.4851,2.4851,2.4851,2.4723,2.4125,2.3994,2.3822,2.3234,2.3101,2.3101,2.3101,2.3101,2.2986,2.2576,2.2344,0.0,0.0,0.0,0.0,0.0,0.0,0.0,0.0,0.0,0.0,0.0,0.0,0.0,0.0,0.0,0.0,0.0,0.0,0.0,0.0,0.0,0.0,0.0,0.0,0.0,2.503,2.5896,2.6296,2.6312,2.6556,2.7002,2.7657,2.8689,2.9457,3.0192,3.225,3.4779,3.7223,3.5638,3.405,3.2424,3.0741,2.8384,2.6118,0.0,4.1765,0.0,0.0,4.5822,0.0,4.9897,5.2037,5.2785,5.1056,5.0847,5.0278,4.8865,4.9972,5.0391,4.9366,5.0212,5.0421,4.9546,4.9823,4.9561,4.8558,4.7728,4.6441,4.4556,4.1425,3.9439,0.0,0.0,0.0,0.0,3.5519,3.5429,0.0,0.0,0.0,0.0,0.0,3.6088,3.6909,3.5908,3.5375,3.5001,3.3396,3.3276,3.3788,3.2157,3.2236,3.304,3.2541,3.2315,3.1993,3.0706,2.9759,2.8887,2.7941,2.7182,2.6659,2.6526,2.6504,2.6297,2.5378,2.5168,2.4851,2.3714,2.3474,2.3387,2.3147,2.3101,2.2986,2.2576,2.2557,0.0,0.0,0.0,0.0,0.0,0.0,0.0,0.0,0.0,0.0,0.0,0.0,0.0,0.0,0.0,0.0,0.0,0.0,0.0,0.0,0.0,2.6188,2.7104,0.0,2.687,0.0,2.7518,2.793,2.7947,2.8303,2.9004,2.9886,2.9812,3.0359,3.1367,3.2383,3.4046,3.5842,3.4481,3.2922,3.128,2.9894,2.7822,2.581,0.0,0.0,0.0,0.0,0.0,0.0,0.0,5.2432,5.3832,5.3025,5.2929,5.2187,5.0249,4.9703,4.9426,4.9307,4.9396,4.9643,5.0099,4.9643,4.9337,4.9187,4.7967,4.6651,4.5244,4.2581,4.0576,0.0,0.0,0.0,0.0,0.0,0.0,0.0,0.0,0.0,0.0,3.528,3.5579,3.5669,3.5549,3.4938,3.4082,3.3525,3.3165,3.2863,3.2331,3.2541,3.309,3.304,3.2641,3.2169,3.2014,3.0947,2.9594,2.8929,2.8039,2.7127,2.6616,2.6504,2.6483,2.638,2.6359,2.6026,2.4893,2.4638,2.436,2.3299,2.3101,2.2986,2.2576,2.281,2.2906,0.0,0.0,0.0,0.0,0.0,0.0,0.0,0.0,0.0,0.0,0.0,0.0,0.0,0.0,0.0,0.0,0.0,0.0,2.3721,0.0,2.6079,2.6471,2.8049,2.9292,3.0131,3.154,3.2223,3.2223,3.2262,3.2355,3.2421,3.2082,3.2163,3.2637,3.2734,3.316,3.3698,3.354,3.1602,2.8959,2.9018,2.721,2.4839,0.0,0.0,0.0,0.0,0.0,0.0,0.0,5.2306,5.2905,5.2636,5.2606,5.2007,5.0398,4.9979,4.9853,4.9853,4.9516,4.9726,5.0727,4.9875,4.9277,4.9277,4.8409,4.7279,4.5933,4.3718,4.1743,0.0,0.0,0.0,0.0,0.0,0.0,0.0,0.0,3.5206,3.5715,3.5985,3.6297,3.6656,3.6656,3.617,3.5402,3.4375,3.3877,3.3572,3.2567,3.2591,3.309,3.309,3.2939,3.2742,3.2742,3.2066,3.1188,3.0946,3.0121,2.9216,2.9024,2.8735,2.8311,2.7646,2.7461,2.6994,2.521,2.4808,2.4489,2.3321,2.3101,2.3042,2.2888,2.2984,2.3042,0.0,0.0,0.0,0.0,0.0,0.0,0.0,0.0,0.0,0.0,0.0,0.0,0.0,0.0,0.0,0.0,0.0,0.0,2.5807,0.0,2.7222,2.8685,3.0208,3.1297,3.1942,3.3063,3.3586,3.3586,3.3586,3.3281,3.2773,3.2374,3.2433,3.2793,3.2793,3.3047,3.3311,3.2424,3.0758,2.8765,2.7981,2.6583,2.5173,4.6052,0.0,4.68,0.0,4.9314,5.0002,5.1648,5.2067,5.2127,5.1947,5.1738,5.1236,5.0285,4.986,4.965,4.965,4.9254,4.9396,5.0301,4.9516,4.9007,4.9007,4.8379,0.0,4.633,4.4586,4.2791,4.0984,3.9439,0.0,0.0,0.0,0.0,0.0,3.5206,3.5625,3.6523,3.6686,3.7015,3.7387,3.7387,3.6982,3.6237,3.5244,3.4771,3.4451,3.3144,3.3046,3.3577,3.3577,3.3454,3.3216,3.2924,3.2541,3.2169,3.2014,3.1336,3.0588,3.0588,3.0206,2.9624,2.8787,2.8609,2.8108,2.6191,2.5546,2.4872,2.3408,2.3101,2.3101,2.3101,2.3101,2.3101,2.3101,0.0,0.0,0.0,0.0,0.0,0.0,2.1241,2.1119,2.1257,0.0,0.0,0.0,0.0,0.0,0.0,0.0,0.0,0.0,0.0,0.0,0.0,3.2098,3.297,3.3215,3.4398,3.5071,3.5224,3.5596,3.4965,3.3673,3.3384,3.3138,3.2988,3.2988,3.3144,3.3235,3.1781,3.0303,2.8824,2.7342,2.6137,2.5264,4.787,4.8259,4.8865,5.0817,5.1708,5.1947,5.1295,5.1768,5.1977,5.1295,5.0637,5.0196,5.0196,4.9075,4.8319,4.8319,4.8319,4.8319,4.8349,4.8319,4.8319,0.0,0.0,4.6988,4.63,4.4984,4.3658,4.2381,0.0,0.0,3.7357,0.0,3.5519,3.5519,3.6178,3.6493,3.6553,3.7135,3.7404,3.7387,3.7387,3.6827,3.5992,3.6003,3.5739,3.5231,3.4173,3.4169,3.4697,3.4697,3.422,3.3529,3.2528,3.2194,3.2114,3.1562,3.1035,3.0588,3.0588,3.0206,2.9804,2.9779,2.9779,2.9463,2.8327,2.7238,2.584,2.3582,2.3101,2.3101,2.3101,2.3101,2.3101,2.3101,0.0,0.0,0.0,0.0,0.0,0.0,2.2186,2.236,2.2829,0.0,0.0,0.0,0.0,0.0,0.0,0.0,0.0,2.797,2.8574,0.0,3.1484,3.3466,3.4339,3.4095,3.6111,3.7347,3.7895,3.9092,3.8222,3.5754,3.5754,3.4871,3.3386,3.3386,3.3386,3.3235,3.1781,3.0303,2.8824,2.7342,2.5853,2.4653,4.7489,4.7967,4.8498,4.9105,5.0099,5.0757,5.0548,5.1086,5.1415,5.1236,5.0272,4.9583,4.9583,4.8828,4.8498,0.0,4.8169,4.7997,0.0,4.8139,4.7818,4.8289,4.7668,4.7219,4.701,4.5663,4.4347,4.301,0.0,0.0,0.0,3.7883,3.7225,3.6789,3.7015,3.7375,3.7841,3.8482,3.8763,3.8763,3.8763,3.8305,3.7618,3.7342,3.6861,3.6278,3.5652,3.5551,3.5714,3.5714,3.5293,3.4534,3.3172,3.2688,3.2513,3.2095,3.1562,3.1135,3.1135,3.0758,3.0357,3.0357,3.008,2.9582,2.8823,2.6934,2.4914,2.3408,2.3101,2.3101,2.3101,2.3101,2.3101,2.3101,2.2869,0.0,0.0,0.0,0.0,0.0,0.0,2.3115,0.0,2.29,0.0,0.0,0.0,0.0,0.0,0.0,0.0,0.0,3.1108,0.0,3.4618,3.5852,3.6235,3.5744,3.6653,3.6479,3.5328,3.5985,3.5527,3.4164,3.4164,3.387,3.3386,3.3386,3.281,3.1748,3.0286,2.8806,2.7322,2.5817,2.5143,2.4957,4.7638,4.7997,4.8379,4.8648,4.9314,4.9883,4.9883,5.0398,5.0817,5.0817,5.0152,4.9546,4.9307,4.8917,0.0,4.8558,4.7788,4.7668,4.8498,4.7758,4.7489,4.7908,4.7519,4.7309,4.7309,0.0,0.0,4.4057,4.269,4.1254,3.975,3.908,3.8691,3.8542,3.8542,3.8751,3.917,3.9619,3.9631,3.9391,3.9391,3.9152,3.874,3.851,3.8153,3.7703,3.7053,3.678,3.678,3.678,3.6387,3.5608,3.4085,3.3369,3.2942,3.2143,3.1512,3.1185,3.1587,3.1311,3.0859,3.0638,3.0507,3.0149,2.9111,2.7557,2.5973,2.4658,2.4038,2.3735,2.3735,2.3387,2.3101,2.3101,2.2771,2.2396,2.2069,0.0,0.0,0.0,0.0,0.0,0.0,2.3433,0.0,0.0,0.0,0.0,0.0,0.0,0.0,3.2062,3.2761,0.0,3.6005,3.7173,3.7147,3.5944,3.6635,3.6162,3.4794,3.6018,3.5749,3.4289,3.447,3.4124,3.3355,3.2702,3.1949,3.0992,2.885,2.7524,2.6635,2.5126,2.4719,2.4917,4.8087,4.8229,0.0,0.0,4.9187,0.0,4.9239,4.9793,5.0196,5.0196,5.0196,4.9979,4.9426,4.9307,4.8798,4.7549,0.0,0.0,0.0,4.7339,4.7369,4.7309,4.7309,4.7309,4.7309,4.5992,4.5244,4.5155,4.2701,4.1194,4.0516,3.99,3.9918,4.0457,4.0457,4.0427,4.0397,4.0397,4.0008,3.9391,3.9451,3.9451,3.9421,3.9451,3.9451,3.9265,3.8256,3.7919,3.7919,3.7919,3.7401,3.6564,3.5125,3.414,3.3264,3.1835,3.106,3.0864,3.1918,3.1838,3.1336,3.0859,3.1085,3.102,2.9347,2.8957,2.853,2.6932,2.5653,2.485,2.485,2.3885,2.3081,2.3062,2.2693,2.2129,2.131,0.0,0.0,0.0,0.0,0.0,0.0,2.4415,2.4059,0.0,0.0,0.0,0.0,0.0,3.0011,3.2488,3.3738,3.4951,3.6229,3.761,3.7177,3.4984,3.5882,3.5987,3.5509,3.7864,3.7634,3.5325,3.5769,3.4848,3.2931,3.1322,3.0698,3.0563,2.7564,2.6502,2.6486,2.5103,2.4599,2.4599,0.0,0.0,4.7578,4.7758,4.8199,4.8528,4.8528,4.9471,5.0196,5.0196,5.0196,5.0159,5.0009,4.9583,4.9157,4.8858,4.8828,4.8409,4.7369,4.7788,4.7818,4.7339,4.7309,4.7309,4.7309,4.5992,4.4796,4.3788,4.316,4.2551,4.1912,4.1762,4.1493,4.1164,4.1164,4.0894,4.0397,4.0397,4.0008,3.9451,3.996,3.984,3.9451,3.9978,3.984,3.9355,3.909,3.9017,3.9017,3.9017,3.8022,3.6603,3.5571,3.4178,3.2782,3.1696,3.1311,3.1361,3.2039,3.2114,3.1989,3.1842,3.1938,3.1593,2.9941,2.9591,2.9209,2.799,2.6498,2.542,2.542,2.4152,2.2984,2.2693,2.201,2.1451,2.1226,2.1133,0.0,0.0,2.2681,2.3408,2.2532,2.2915,2.3012,0.0,0.0,0.0,0.0,2.7915,3.0785,3.3339,3.6232,3.827,3.9391,3.8668,3.7079,3.461,3.2965,3.1959,3.1508,3.1647,3.117,3.0316,3.0421,3.019,2.969,2.907,2.8309,2.7476,2.6703,2.5869,2.5066,2.472,2.4599,2.4639,4.7309,4.7309,4.7309,4.7309,4.7608,4.7848,4.7848,4.8955,4.9793,4.9793,5.0278,5.0548,5.0226,5.0159,4.9935,4.9337,4.9277,4.8858,4.7818,4.8087,4.7997,4.7339,4.7309,4.7309,4.7309,4.6292,4.5104,4.3758,4.3439,4.313,4.2791,4.2791,4.2611,4.2282,4.2282,4.1893,4.1283,4.0984,4.0457,3.984,3.99,3.972,3.9397,3.9254,3.9276,3.9337,3.8852,3.898,3.9319,3.8833,3.8042,3.6958,3.5217,3.4018,3.3066,3.2046,3.1763,3.1888,3.2441,3.2616,3.2616,3.2616,3.2416,3.1972,3.1104,3.0905,3.0664,2.9788,2.8487,2.7275,2.6519,2.5058,2.3728,2.2893,2.2063,2.1531,2.1526,2.1527,0.0,2.1482,2.2751,2.3411,2.2818,2.3202,2.3283,2.2816,0.0,0.0,2.4887,2.8084,3.0768,3.2641,3.5657,3.752,3.812,3.6658,3.5244,3.3812,3.1385,3.009,2.9865,2.9291,2.9228,2.962,2.9809,3.0238,3.0654,2.8905,2.7892,2.723,2.5635,2.4745,2.4412,2.4546,2.4599,2.4639,4.7309,4.7309,4.7309,4.7309,4.7309,4.7309,4.7309,4.8349,4.9187,4.9299,5.0331,5.0877,5.0398,5.0877,5.078,4.9666,4.9486,4.9127,4.8349,4.8319,4.7997,4.7339,4.7309,4.7309,4.7309,4.654,4.5523,4.4296,4.3638,4.329,4.329,4.329,4.329,4.329,4.329,4.297,4.2351,4.1792,4.1104,4.0367,3.9888,3.9571,3.9283,3.8317,3.8466,3.9017,3.7956,3.8144,3.8797,3.7948,3.7596,3.7058,3.4781,3.3936,3.3636,3.2714,3.2466,3.2566,3.309,3.3291,3.3341,3.3341,3.2893,3.2466,3.2466,3.239,3.2215,3.1738,3.073,2.9461,2.7956,2.6403,2.4934,2.3695,2.2737,2.211,2.2079,0.0,2.2031,2.244,2.2971,2.344,2.3848,2.4141,2.4079,2.353,2.4434,2.5102,0.0,2.8032,3.0007,3.0983,3.3728,3.5094,3.4847,3.3598,3.2888,3.2625,3.0185,2.9062,2.9106,2.8541,2.8943,3.0115,3.0697,3.1628,3.2459,2.9444,2.8212,2.79,2.487,2.3922,2.4235,2.4439,2.4559,2.4639,4.7309,4.7309,4.7309,4.7309,4.7309,4.7309,4.7309,4.7967,4.8648,4.9239,4.9912,5.0548,5.0996,5.1146,5.1116,5.093,5.0398,4.9561,4.8379,4.8319,4.7997,4.7339,4.7309,4.7309,4.7309,4.6082,4.5095,4.4296,4.3638,4.329,4.329,4.329,4.329,4.329,4.329,4.297,4.2381,4.2291,4.1523,4.0427,4.0894,4.0397,3.9342,3.8849,3.8399,3.7919,3.6819,3.6565,3.6747,3.7079,3.6607,3.5782,3.5368,3.4606,3.3861,3.369,3.3646,3.3646,3.3746,3.4123,3.4452,3.4452,3.4025,3.3646,3.3646,3.3291,3.2939,3.2864,3.1583,3.0262,2.9548,2.8061,2.6607,2.5545,2.4179,2.3114,2.2787,0.0,2.2031,2.244,2.3203,2.3848,2.4277,2.4062,2.4277,2.523,2.4801,2.5156,2.6641,2.7536,2.8284,2.878,3.2641,3.4119,3.2857,3.2608,3.1875,3.0607,2.8076,2.7027,2.7282,2.6423,2.6286,2.6839,2.8373,2.9144,2.9293,2.8527,2.7479,2.6353,2.5805,2.501,2.4209,2.4249,2.4422,2.4639,4.7309,4.7309,4.7309,4.7309,4.7309,4.7309,4.7309,4.7878,4.8528,4.9187,4.9853,5.0338,5.0637,5.0667,5.0518,5.0182,4.9553,4.8925,4.8349,4.8319,4.7997,4.7339,4.7309,4.7309,4.7309,4.6352,4.5514,4.4855,4.4177,4.3668,4.329,4.329,4.329,4.329,4.329,4.316,4.2851,4.2541,4.1822,4.0868,4.025,3.9415,3.8408,3.7105,3.6948,3.7217,3.5871,3.5952,3.6643,3.6353,3.5921,3.5394,3.4826,3.4492,3.4251,3.3997,3.4123,3.4327,3.4327,3.4502,3.452,3.3811,3.3981,3.4145,3.3421,3.3385,3.352,3.352,3.2702,3.1592,3.0436,2.9166,2.7859,2.6616,2.4984,0.0,0.0,2.3256,2.3066,2.3496,2.4102,2.4769,2.541,2.5293,2.543,2.6035,2.5918,2.6147,2.6947,2.7448,2.7878,2.8281,3.0656,3.1588,3.0916,3.1111,3.0886,3.0167,2.8535,2.794,2.8274,2.7117,2.7307,2.8627,2.942,3.0324,3.1107,3.0033,2.8659,2.7107,2.6311,2.5191,2.4008,2.4329,2.4479,2.4639,4.7244,4.7062,4.6953,4.7266,4.7309,4.7309,4.7309,4.7728,4.8319,4.8977,4.9464,4.983,4.9979,4.9979,4.9793,4.9337,4.8678,4.8319,4.8319,4.8169,4.7848,4.7339,4.7309,4.7309,4.7309,4.6629,4.5971,4.5304,4.4646,4.4027,4.3549,4.3349,4.3379,4.3549,4.3349,4.329,4.326,4.2791,4.2152,4.1268,3.9943,3.8832,3.7787,3.5796,3.5736,3.6518,3.4929,3.5127,3.6066,3.5526,3.5305,3.5185,3.449,3.4552,3.4803,3.4377,3.4653,3.5054,3.4929,3.4979,3.4757,3.3431,3.3988,3.4537,3.3193,3.3498,3.4048,3.3922,3.3571,3.2806,3.1274,3.0113,2.8993,2.7741,0.0,0.0,0.0,2.4293,2.4141,2.4645,2.5019,2.5566,2.6445,2.6543,2.6582,2.668,2.6894,2.7109,2.7305,2.7565,2.7878,2.8281,2.8953,2.9344,2.9442,2.9844,3.0059,3.0059,2.9201,2.9038,2.9475,2.8487,2.9025,3.0803,3.124,3.2155,3.3292,3.1963,3.0125,2.8114,2.703,2.5473,2.387,2.4342,2.4546,2.4639,4.7062,4.6344,4.5891,4.7084,4.7309,4.7309,4.7309,4.7339,4.7608,4.8289,4.8386,4.8678,4.9307,4.9366,4.9337,4.9277,4.8678,4.8319,4.8319,4.7728,4.7369,4.7309,4.7309,4.7309,4.7309,4.6629,4.5971,4.5304,4.4646,4.4267,4.4207,4.3609,4.3638,4.4207,4.3579,4.329,4.329,4.325,4.2502,4.1403,4.1268,4.0165,3.8446,3.6749,3.5893,3.54,3.3803,3.3287,3.3528,3.4454,3.4763,3.4841,3.5253,3.5408,3.5433,3.5382,3.5805,3.6155,3.5606,3.5855,3.5949,3.4607,3.4867,3.5084,3.3767,3.406,3.4502,3.3997,3.3872,3.3473,3.231,3.1098,3.0112,2.9508,0.0,0.0,2.5954,2.5045,2.4664,2.5503,2.5615,2.5991,2.6869,2.6973,2.7129,2.7565,2.7226,2.7363,2.8144,2.7878,2.7878,2.8281,2.8359,2.8574,2.8965,2.9394,2.9637,2.9629,2.8835,2.8799,2.9506,2.9524,2.9987,3.09,3.2524,3.3292,3.3386,3.326,3.1226,2.8213,2.8359,2.653,2.3843,2.4115,2.4409,2.4599,4.6054,4.5734,4.5801,4.7084,4.7309,4.7309,4.7309,4.7309,4.7549,4.8229,4.8319,4.8409,4.8648,4.8678,4.8528,4.8087,4.7818,4.7668,4.7668,4.7429,4.7309,4.7309,4.7309,4.7309,4.7309,4.707,4.6411,4.5304,4.5035,4.4476,4.3668,4.3409,4.3459,4.3668,4.3409,4.329,4.329,4.329,4.2821,4.1876,4.0126,3.8757,3.7546,3.5529,3.4663,3.4463,3.4202,3.4098,3.4223,3.4954,3.5182,3.5232,3.5433,3.5757,3.6056,3.6056,3.623,3.6331,3.613,3.623,3.6097,3.4727,3.5257,3.5702,3.4366,3.4646,3.5132,3.4929,3.4628,3.4251,3.3825,3.241,3.1218,3.0835,0.0,2.6842,2.6693,2.6068,2.5762,2.6094,2.6342,2.6758,2.7363,2.7448,2.7624,2.8054,2.791,2.7949,2.8281,2.8171,2.8125,2.8281,2.8301,2.8359,2.8535,2.8945,2.9297,2.9598,2.9537,2.9951,3.0755,3.1081,3.1549,3.208,3.2746,3.3184,3.3304,3.1954,3.0156,2.813,2.7487,2.5822,2.387,2.4302,2.4506,2.4572,4.5229,4.5092,4.532,4.7019,4.7309,4.7309,4.7309,4.7309,4.7459,4.7908,4.7967,4.7967,4.7967,4.7967,4.7788,4.7339,4.7309,4.7309,4.7309,4.7309,4.7309,4.7309,4.7309,4.7309,4.7309,4.7309,4.6651,4.5304,4.5514,4.5035,4.3938,4.3728,4.3728,4.3908,4.3489,4.329,4.329,4.329,4.2743,4.1666,3.9544,3.7999,3.672,3.4843,3.4049,3.3922,3.4123,3.4198,3.4299,3.4828,3.513,3.5282,3.5433,3.5906,3.6405,3.6405,3.6405,3.6455,3.6607,3.6632,3.6296,3.4775,3.5526,3.6249,3.475,3.511,3.5732,3.5533,3.523,3.4904,3.4728,3.299,3.1528,3.1328,2.9022,2.7202,2.7035,2.6758,2.6641,2.6803,2.7051,2.7383,2.7839,2.7897,2.8015,2.8262,2.8301,2.8301,2.8301,2.8301,2.8301,2.8301,2.8301,2.8301,2.8301,2.8711,2.9141,2.9598,3.0,3.0664,3.1494,3.1315,3.1711,3.2567,3.2065,3.197,3.2124,3.0772,2.9028,2.7142,2.6531,2.5256,2.387,2.4315,2.4466,2.4439,4.4909,4.4373,4.4326,4.6866,4.7309,4.7309,4.7309,4.7309,4.7309,4.7309,4.7309,4.7309,4.7309,4.7309,4.7309,4.7309,4.7309,4.7309,4.7309,4.7309,4.7309,4.7309,4.7309,4.7309,4.7309,4.7309,4.6651,4.5304,4.5971,4.5942,4.5274,4.4616,4.4646,4.5214,4.3878,4.329,4.329,4.329,4.2255,4.0567,4.0014,3.8393,3.6174,3.5104,3.4352,3.3822,3.3316,3.3115,3.319,3.3721,3.4274,3.4803,3.5332,3.5931,3.6405,3.6405,3.6405,3.6531,3.706,3.721,3.6771,3.4895,3.5844,3.6722,3.4847,3.5451,3.623,3.5631,3.5508,3.5332,3.4781,3.2629,3.0897,3.0897,2.8715,2.7006,2.7006,2.7006,2.7187,2.7643,2.7702,2.7858,2.8262,2.8301,2.8301,2.8301,2.8301,2.8301,2.8301,2.8301,2.8301,2.8301,2.8301,2.8301,2.8301,2.8711,2.9141,2.9598,3.0,3.0644,3.1415,2.9828,3.0202,3.2057,3.039,2.9692,2.9728,3.0014,2.815,2.5165,2.5756,2.5091,2.3843,2.4088,2.4195,2.4195,4.5007,4.5092,4.5343,4.7019,4.7309,4.7309,4.7309,4.7309,4.7309,4.7309,4.7309,4.7309,4.7309,4.7309,4.7309,4.7309,4.7309,4.7309,4.7309,4.7309,4.7309,4.7309,4.7309,4.7309,4.7309,4.7309,4.689,4.6001,4.6211,4.5702,4.4596,4.4386,4.4147,4.3878,4.3489,4.329,4.325,4.2447,4.179,4.1089,3.8491,3.7074,3.627,3.4723,3.3799,3.3416,3.4022,3.3972,3.3746,3.4276,3.4828,3.538,3.5931,3.6256,3.648,3.6859,3.6959,3.7085,3.7613,3.8065,3.8141,3.7171,3.7069,3.7039,3.6502,3.6395,3.6331,3.618,3.613,3.5798,3.4677,3.3061,3.1581,3.0625,2.9027,2.791,2.791,2.791,2.7969,2.8086,2.8132,2.8191,2.8281,2.8301,2.8301,2.8301,2.8301,2.8301,2.8301,2.8301,2.8301,2.8301,2.8301,2.8437,2.873,2.8574,2.8848,2.9598,2.9715,2.9623,2.9312,2.9167,2.8801,2.8232,2.7737,2.7719,2.7895,2.6452,2.5542,2.5003,2.4181,2.3652,2.35,2.3794,2.3937,2.391,4.4589,4.5216,4.5801,4.7084,4.7309,4.7309,4.7309,4.7309,4.7309,4.7309,4.7309,4.7309,4.7309,4.7309,4.7309,4.7309,4.7309,4.7309,4.7309,4.7309,4.7309,4.7309,4.7309,4.7309,4.7309,4.7309,4.6958,4.63,4.657,4.6151,4.5074,4.4805,4.4496,4.4057,4.3549,4.3041,4.2569,4.1906,4.1056,4.0034,3.7735,3.6407,3.5646,3.4385,3.3567,3.319,3.3822,3.3847,3.3621,3.3947,3.4552,3.533,3.6155,3.6556,3.6783,3.711,3.7337,3.7638,3.8191,3.8617,3.8869,3.8718,3.8266,3.7813,3.7563,3.7286,3.6984,3.6758,3.6708,3.6251,3.4702,3.339,3.2093,3.0557,2.9306,2.8476,2.832,2.8301,2.8301,2.8301,2.8301,2.8067,2.7511,2.743,2.743,2.743,2.7987,2.8301,2.8301,2.8301,2.8301,2.8301,2.8301,2.8496,2.8879,2.8672,2.8965,2.9852,2.9852,2.9326,2.8397,2.8028,2.7326,2.6315,2.5683,2.5562,2.5754,2.4525,2.3948,2.3804,2.3004,2.2953,2.3319,2.3527,2.3594,2.3567,4.4212,4.5149,4.5936,4.7084,4.7309,4.7309,4.7309,4.7309,4.7309,4.7309,4.7309,4.7309,4.7309,4.7309,4.7309,4.7309,4.7309,4.7309,4.7309,4.7309,4.7309,4.7309,4.7309,4.7309,4.7309,4.7309,4.6988,4.639,4.6988,4.6958,4.63,4.5603,4.5274,4.5155,4.3777,4.2569,4.1587,4.1378,4.0053,3.8032,3.7385,3.617,3.4653,3.4123,3.3567,3.3111,3.3219,3.324,3.3265,3.3341,3.401,3.4954,3.6055,3.6758,3.721,3.7261,3.7638,3.8216,3.8818,3.8969,3.9095,3.9572,3.9346,3.8818,3.8216,3.804,3.7815,3.7216,3.7067,3.648,3.4501,3.3457,3.2305,3.0517,2.9527,2.8828,2.8398,2.834,2.834,2.834,2.8233,2.7622,2.6263,2.6009,2.5964,2.61,2.733,2.8147,2.8281,2.8301,2.8301,2.8301,2.832,2.8555,2.8965,2.9004,2.9414,3.0195,3.0195,2.9496,2.814,2.6681,2.5832,2.5497,2.4023,2.3387,2.3417,2.3636,2.3046,2.1977,2.2231,2.2678,2.3212,2.3212,2.3225,2.3252,4.627,4.6769,4.6975,4.7266,4.7309,4.7309,4.7309,4.7309,4.7309,4.7309,4.7309,4.7309,4.7309,4.7309,4.7309,4.7309,4.7309,4.7309,4.7309,4.7309,4.7309,4.7309,4.7309,4.7309,4.7309,4.7309,4.7249,4.7078,4.7249,4.6958,4.63,4.5603,4.5035,4.4456,4.2708,4.1844,4.1483,3.964,3.8555,3.7964,3.6488,3.5408,3.4653,3.4123,3.3567,3.3219,3.4058,3.4345,3.4476,3.5326,3.5468,3.5456,3.618,3.6758,3.7286,3.7688,3.8241,3.8843,3.9396,3.9547,3.9546,3.9672,3.9597,3.9371,3.8843,3.8341,3.7643,3.6371,3.6094,3.5312,3.2704,3.2052,3.1422,2.9993,2.9577,2.9277,2.882,2.8789,2.8789,2.8789,2.7657,2.681,2.6588,2.5204,2.4793,2.6018,2.6418,2.7087,2.8228,2.8301,2.8301,2.8301,2.8613,2.8984,2.9442,2.9746,3.0019,3.0195,3.0195,2.8925,2.65,2.6167,2.4609,2.2153,2.179,2.1632,2.1646,2.1701,2.1728,2.1689,2.1743,2.2098,2.2619,2.2619,2.2766,2.3,4.6466,4.71,4.7309,4.7309,4.7309,4.7309,4.7309,4.7309,4.7309,4.7309,4.7309,4.7309,4.7309,4.7309,4.7309,4.7309,4.7309,4.7309,4.7309,4.7309,4.7309,4.7309,4.7309,4.7309,4.7309,4.7309,4.7309,4.7309,4.7309,4.713,4.6749,4.5753,4.5095,4.4674,4.254,4.1295,4.0682,3.8872,3.7792,3.7217,3.6288,3.5581,3.5029,3.4477,3.3947,3.3593,3.4408,3.5207,3.5925,3.6204,3.6326,3.6359,3.6393,3.6934,3.7638,3.7914,3.8592,3.9346,3.9622,3.9697,3.9697,3.9697,3.9697,3.9622,3.9346,3.9044,3.8516,3.7485,3.6723,3.5494,3.3085,3.2241,3.1368,2.9841,2.9774,2.9726,2.9297,2.9219,2.9219,2.9219,2.7791,2.6162,2.4611,2.3532,2.3525,2.4893,2.569,2.6818,2.8493,2.8398,2.8379,2.8574,2.8613,2.8926,2.9598,2.9813,3.0098,3.0527,3.0527,2.8935,2.6015,2.6015,2.4224,2.1109,2.1109,2.1109,2.1109,2.1109,2.1315,2.1582,2.1582,2.1943,2.2385,2.2385,2.2605,2.2893,4.619,4.692,4.7309,4.7309,4.7309,4.7309,4.7309,4.7309,4.7309,4.7309,4.7309,4.7309,4.7309,4.7309,4.7249,4.716,4.7249,4.7309,4.7309,4.7309,4.7309,4.7309,4.7309,4.7309,4.7309,4.7309,4.7309,4.7309,4.7309,4.7309,4.7279,4.5933,4.5304,4.5203,4.2715,4.0979,3.982,3.8604,3.7502,3.6556,3.6556,3.6182,3.5629,3.538,3.4816,3.4303,3.5245,3.6532,3.768,3.6989,3.7052,3.7322,3.673,3.721,3.8015,3.8115,3.8894,3.9697,3.9697,3.9697,3.9697,3.9697,3.9697,3.9697,3.9697,3.9697,3.9495,3.8789,3.7691,3.625,3.4411,3.3122,3.1884,3.0442,3.0277,3.0185,2.9755,2.9696,2.9696,2.9696,2.8019,2.5517,2.2127,2.1905,2.2406,2.3432,2.5103,2.6783,2.8334,2.8342,2.8457,2.8809,2.8535,2.875,2.9481,2.9637,3.0067,3.0781,3.0859,2.9187,2.6015,2.6015,2.4224,2.1109,2.1109,2.1082,2.1042,2.1082,2.1229,2.1435,2.1489,2.1863,2.2352,2.2458,2.2645,2.2893,4.7116,4.7249,4.7309,4.7309,4.7309,4.7309,4.7309,4.7309,4.7309,4.7309,4.7309,4.7309,4.7309,4.7309,4.707,4.648,4.698,4.7309,4.7309,4.7309,4.7309,4.7309,4.7309,4.7309,4.7309,4.7309,4.7309,4.7309,4.7309,4.7309,4.7279,4.5933,4.5304,4.5203,4.2715,4.0979,3.982,3.8604,3.771,3.7085,3.7085,3.6758,3.6373,3.7286,3.6677,3.5616,3.8178,3.9559,4.0,3.8914,3.8319,3.7903,3.7265,3.7513,3.809,3.8642,3.922,3.9697,3.9697,3.9697,3.9697,3.9697,3.9697,3.9697,3.9697,3.9697,3.9311,3.7988,3.7517,3.6935,3.5382,3.3939,3.2895,3.2656,3.1598,3.0644,3.0176,3.0117,3.0117,3.0117,2.7566,2.4494,2.1179,2.1564,2.2078,2.2236,2.4647,2.6209,2.6464,2.7638,2.832,2.8379,2.8672,2.8887,2.8976,2.9746,3.0176,3.0293,3.0703,2.9187,2.6015,2.6015,2.4224,2.1109,2.1109,2.0962,2.0762,2.1002,2.0989,2.0846,2.1069,2.1523,2.2111,2.2653,2.2867,2.2893,4.7249,4.7309,4.7309,4.7309,4.7309,4.7309,4.7309,4.7309,4.7309,4.7309,4.7309,4.7309,4.7309,4.7309,4.7189,4.6869,4.6779,4.6899,4.7279,4.6929,4.6899,4.7279,4.7309,4.7309,4.7309,4.7309,4.713,4.6719,4.6719,4.6561,4.6172,4.5185,4.4736,4.4644,4.254,4.1316,4.0753,3.9195,3.837,3.8142,3.7779,3.7697,3.7818,3.8011,3.782,3.7664,3.9235,4.0585,4.1339,3.9494,3.8994,3.889,3.7607,3.7563,3.8115,3.8718,3.9296,3.9697,3.9697,3.9697,3.9697,3.9697,3.9923,4.0149,4.0149,4.0149,3.9866,3.8918,3.8084,3.7293,3.6649,3.4653,3.3106,3.3106,3.1854,3.082,3.0605,3.0586,2.991,2.8079,2.6636,2.4464,2.1022,2.1644,2.2566,2.3237,2.5044,2.6582,2.7616,2.8076,2.8398,2.8633,2.8594,2.8672,2.8898,2.9531,2.9989,3.0195,3.0664,2.9648,2.7314,2.6409,2.4717,2.2435,2.1506,2.0949,2.0712,2.0846,2.082,2.0726,2.0815,2.1261,2.1823,2.2251,2.2472,2.2619]},{"header":{"parameterUnit":"m.s-1","parameterCategory":1,"la1":30.6,"la2":28.766,"lo1":-90.7593,"lo2":-88.6598,"dy":0.0162,"dx":0.0183,"nx":116,"ny":114,"refTime":"2023-05-24T12:00:00:Z","depth":0,"parameterNumber":3,"parameterNumberName":"V-component_of_WINDS"},"data":[0.0,0.0,0.0,0.0,0.0,0.0,0.0,0.0,0.0,0.0,0.0,0.0,0.0,0.0,0.0,0.0,0.0,0.0,0.0,0.0,0.0,0.0,0.0,0.0,0.0,0.0,0.0,0.0,0.0,0.0,0.0,0.0,0.0,0.0,0.0,0.0,0.0,0.0,0.0,0.0,0.0,0.0,0.0,0.0,0.0,0.0,0.0,0.0,0.0,0.0,0.0,0.0,0.0,0.0,0.0,0.0,0.0,0.0,0.0,0.0,0.0,0.0,0.0,0.0,0.0,0.0,0.0,0.0,0.0,0.0,0.0,0.0,0.0,0.0,0.0,0.0,0.0,0.0,0.0,0.0,0.0,0.0,0.0,0.0,0.0,0.0,0.0,0.0,0.0,0.0,0.0,0.0,0.0,0.0,0.0,0.0,0.0,0.0,0.0,0.0,0.0,0.0,0.0,0.0,0.0,0.0,0.0,0.0,0.0,0.0,0.0,0.0,0.0,0.0,0.0,0.0,0.0,0.0,0.0,0.0,0.0,0.0,0.0,0.0,0.0,0.0,0.0,0.0,0.0,0.0,0.0,0.0,0.0,0.0,0.0,0.0,0.0,0.0,0.0,0.0,0.0,0.0,0.0,0.0,0.0,0.0,0.0,0.0,0.0,0.0,0.0,0.0,0.0,0.0,0.0,0.0,0.0,0.0,0.0,0.0,0.0,0.0,0.0,0.0,0.0,0.0,0.0,0.0,0.0,0.0,0.0,0.0,0.0,0.0,0.0,0.0,0.0,0.0,0.0,0.0,0.0,0.0,0.0,0.0,0.0,0.0,0.0,0.0,0.0,0.0,0.0,0.0,0.0,0.0,0.0,0.0,0.0,0.0,0.0,0.0,0.0,0.0,0.0,0.0,0.0,0.0,0.0,0.0,0.0,0.0,0.0,0.0,0.0,0.0,0.0,0.0,0.0,0.0,0.0,0.0,0.0,0.0,0.0,0.0,0.0,0.0,0.0,0.0,0.0,0.0,0.0,0.0,0.0,0.0,0.0,0.0,0.0,0.0,0.0,0.0,0.0,0.0,0.0,0.0,0.0,0.0,0.0,0.0,0.0,0.0,0.0,0.0,0.0,0.0,0.0,0.0,0.0,0.0,0.0,0.0,0.0,0.0,0.0,0.0,0.0,0.0,0.0,0.0,0.0,0.0,0.0,0.0,0.0,0.0,0.0,0.0,0.0,0.0,0.0,0.0,0.0,0.0,0.0,0.0,0.0,0.0,0.0,0.0,0.0,0.0,0.0,0.0,0.0,0.0,0.0,0.0,0.0,0.0,0.0,0.0,0.0,0.0,0.0,0.0,0.0,0.0,0.0,0.0,0.0,0.0,0.0,0.0,0.0,0.0,0.0,0.0,0.0,0.0,0.0,0.0,0.0,0.0,0.0,0.0,0.0,0.0,0.0,0.0,0.0,0.0,0.0,0.0,0.0,0.0,0.0,0.0,0.0,0.0,0.0,0.0,0.0,0.0,0.0,0.0,0.0,0.0,0.0,0.0,0.0,0.0,0.0,0.0,0.0,0.0,0.0,0.0,0.0,0.0,0.0,0.0,0.0,0.0,0.0,0.0,0.0,0.0,0.0,0.0,0.0,0.0,0.0,0.0,0.0,0.0,0.0,0.0,0.0,0.0,0.0,0.0,0.0,0.0,0.0,0.0,0.0,0.0,0.0,0.0,0.0,0.0,0.0,0.0,0.0,0.0,0.0,0.0,0.0,0.0,0.0,0.0,0.0,0.0,0.0,0.0,0.0,0.0,0.0,0.0,0.0,0.0,0.0,0.0,0.0,0.0,0.0,0.0,0.0,0.0,0.0,0.0,0.0,0.0,0.0,0.0,0.0,0.0,0.0,0.0,0.0,0.0,0.0,0.0,0.0,0.0,0.0,0.0,0.0,0.0,0.0,0.0,0.0,0.0,0.0,0.0,0.0,0.0,0.0,0.0,0.0,0.0,0.0,0.0,0.0,0.0,0.0,0.0,0.0,0.0,0.0,0.0,0.0,0.0,0.0,0.0,0.0,0.0,0.0,0.0,0.0,0.0,0.0,0.0,0.0,0.0,0.0,0.0,0.0,0.0,0.0,0.0,0.0,0.0,0.0,0.0,0.0,0.0,0.0,0.0,0.0,0.0,0.0,0.0,0.0,0.0,0.0,0.0,0.0,0.0,0.0,0.0,0.0,0.0,0.0,0.0,0.0,0.0,0.0,0.0,0.0,0.0,0.0,0.0,0.0,0.0,0.0,0.0,0.0,0.0,0.0,0.0,0.0,0.0,0.0,0.0,0.0,0.0,0.0,0.0,0.0,0.0,0.0,0.0,0.0,0.0,0.0,0.0,0.0,0.0,0.0,0.0,0.0,0.0,0.0,0.0,0.0,0.0,0.0,0.0,0.0,0.0,0.0,0.0,0.0,0.0,0.0,0.0,0.0,0.0,0.0,0.0,0.0,0.0,0.0,0.0,0.0,0.0,0.0,0.0,0.0,0.0,0.0,0.0,0.0,0.0,0.0,0.0,0.0,0.0,0.0,0.0,0.0,0.0,0.0,0.0,0.0,0.0,0.0,0.0,0.0,0.0,0.0,0.0,0.0,0.0,0.0,0.0,0.0,0.0,0.0,0.0,0.0,0.0,0.0,0.0,0.0,0.0,0.0,0.0,0.0,0.0,0.0,0.0,0.0,0.0,0.0,0.0,0.0,0.0,0.0,0.0,0.0,0.0,0.0,0.0,0.0,0.0,0.0,0.0,0.0,0.0,0.0,0.0,0.0,0.0,0.0,0.0,0.0,0.0,0.0,0.0,0.0,0.0,0.0,0.0,0.0,0.0,0.0,0.0,0.0,0.0,0.0,0.0,0.0,0.0,0.0,0.0,0.0,0.0,0.0,0.0,0.0,0.0,0.0,0.0,0.0,0.0,0.0,0.0,0.0,0.0,0.0,0.0,0.0,0.0,0.0,0.0,0.0,0.0,0.0,0.0,0.0,0.0,0.0,0.0,0.0,0.0,0.0,0.0,0.0,0.0,0.0,0.0,0.0,0.0,0.0,0.0,0.0,0.0,0.0,0.0,0.0,0.0,0.0,0.0,0.0,0.0,0.0,0.0,0.0,0.0,0.0,0.0,0.0,0.0,0.0,0.0,0.0,0.0,0.0,0.0,0.0,0.0,0.0,0.0,0.0,0.0,0.0,0.0,0.0,0.0,0.0,0.0,0.0,0.0,0.0,0.0,0.0,0.0,0.0,0.0,0.0,0.0,0.0,0.0,0.0,0.0,0.0,0.0,0.0,0.0,0.0,0.0,0.0,0.0,0.0,0.0,0.0,0.0,0.0,0.0,0.0,0.0,0.0,0.0,0.0,0.0,0.0,0.0,0.0,0.0,0.0,0.0,0.0,0.0,0.0,0.0,0.0,0.0,0.0,0.0,0.0,0.0,0.0,0.0,0.0,0.0,0.0,0.0,0.0,0.0,0.0,0.0,0.0,0.0,0.0,0.0,0.0,0.0,0.0,0.0,0.0,0.0,0.0,0.0,0.0,0.0,0.0,0.0,0.0,0.0,0.0,0.0,0.0,0.0,0.0,0.0,0.0,0.0,0.0,0.0,0.0,0.0,0.0,0.0,0.0,0.0,0.0,0.0,0.0,0.0,0.0,0.0,0.0,0.0,0.0,0.0,0.0,0.0,0.0,0.0,0.0,0.0,0.0,0.0,0.0,0.0,0.0,0.0,0.0,0.0,0.0,0.0,0.0,0.0,0.0,0.0,0.0,0.0,0.0,0.0,0.0,0.0,0.0,0.0,0.0,0.0,0.0,0.0,0.0,0.0,0.0,0.0,0.0,0.0,0.0,0.0,0.0,0.0,0.0,0.0,0.0,0.0,0.0,0.0,0.0,0.0,0.0,0.0,0.0,0.0,0.0,0.0,0.0,0.0,0.0,0.0,0.0,0.0,0.0,0.0,0.0,0.0,0.0,0.0,0.0,0.0,0.0,0.0,0.0,0.0,0.0,0.0,0.0,0.0,0.0,0.0,0.0,0.0,0.0,0.0,0.0,0.0,0.0,0.0,0.0,0.0,0.0,0.0,0.0,0.0,0.0,0.0,0.0,0.0,0.0,0.0,0.0,0.0,0.0,0.0,0.0,0.0,0.0,0.0,0.0,0.0,0.0,0.0,0.0,0.0,0.0,0.0,0.0,0.0,0.0,0.0,0.0,0.0,0.0,0.0,0.0,0.0,0.0,0.0,0.0,0.0,0.0,0.0,0.0,0.0,0.0,0.0,0.0,0.0,0.0,0.0,0.0,0.0,0.0,0.0,0.0,0.0,0.0,0.0,0.0,0.0,0.0,0.0,0.0,0.0,0.0,0.0,0.0,0.0,0.0,0.0,0.0,0.0,0.0,0.0,0.0,0.0,0.0,0.0,0.0,0.0,0.0,0.0,0.0,0.0,0.0,0.0,0.0,0.0,0.0,0.0,0.0,0.0,0.0,0.0,0.0,0.0,0.0,0.0,0.0,0.0,0.0,0.0,0.0,0.0,0.0,0.0,0.0,0.0,0.0,0.0,0.0,0.0,0.0,0.0,0.0,0.0,0.0,0.0,0.0,0.0,0.0,0.0,0.0,0.0,0.0,0.0,0.0,0.0,0.0,0.0,0.0,0.0,0.0,0.0,0.0,0.0,0.0,0.0,0.0,0.0,0.0,0.0,0.0,0.0,0.0,0.0,0.0,0.0,0.0,0.0,0.0,0.0,0.0,0.0,0.0,0.0,0.0,0.0,0.0,0.0,0.0,0.0,0.0,0.0,0.0,0.0,0.0,0.0,0.0,0.0,0.0,0.0,0.0,0.0,0.0,0.0,0.0,0.0,0.0,0.0,0.0,0.0,0.0,0.0,0.0,0.0,0.0,0.0,0.0,0.0,0.0,0.0,0.0,0.0,0.0,0.0,0.0,0.0,0.0,0.0,0.0,0.0,0.0,0.0,0.0,0.0,0.0,0.0,0.0,0.0,0.0,0.0,0.0,0.0,0.0,0.0,0.0,0.0,0.0,0.0,0.0,0.0,0.0,0.0,0.0,0.0,0.0,0.0,0.0,0.0,0.0,0.0,0.0,0.0,0.0,0.0,0.0,0.0,0.0,0.0,0.0,0.0,0.0,0.0,0.0,0.0,0.0,0.0,0.0,0.0,0.0,0.0,0.0,0.0,0.0,0.0,0.0,0.0,0.0,0.0,0.0,0.0,0.0,0.0,0.0,0.0,0.0,0.0,0.0,0.0,0.0,0.0,0.0,0.0,0.0,0.0,0.0,0.0,0.0,0.0,0.0,0.0,0.0,0.0,0.0,0.0,0.0,0.0,0.0,0.0,0.0,0.0,0.0,0.0,0.0,0.0,0.0,0.0,0.0,0.0,0.0,0.0,0.0,0.0,0.0,0.0,0.0,0.0,0.0,0.0,0.0,0.0,0.0,0.0,0.0,0.0,0.0,0.0,0.0,0.0,0.0,0.0,0.0,0.0,0.0,0.0,0.0,0.0,0.0,0.0,0.0,0.0,0.0,0.0,0.0,0.0,0.0,0.0,0.0,0.0,0.0,0.0,0.0,0.0,0.0,0.0,0.0,0.0,0.0,0.0,0.0,0.0,0.0,0.0,0.0,0.0,0.0,0.0,0.0,0.0,0.0,0.0,0.0,0.0,0.0,0.0,0.0,0.0,0.0,0.0,0.0,0.0,0.0,0.0,0.0,0.0,0.0,0.0,0.0,0.0,0.0,0.0,0.0,0.0,0.0,0.0,0.0,0.0,0.0,0.0,0.0,0.0,0.0,0.0,0.0,0.0,0.0,0.0,0.0,0.0,0.0,0.0,0.0,0.0,0.0,0.0,0.0,0.0,0.0,0.0,0.0,0.0,0.0,0.0,0.0,0.0,0.0,0.0,0.0,0.0,0.0,0.0,0.0,0.0,0.0,0.0,0.0,0.0,0.0,0.0,0.0,0.0,0.0,0.0,0.0,0.0,0.0,0.0,0.0,0.0,0.0,0.0,0.0,0.0,0.0,0.0,0.0,0.0,0.0,0.0,0.0,0.0,0.0,0.0,2.9902,0.0,0.0,0.0,0.0,0.0,0.0,0.0,0.0,0.0,0.0,0.0,0.0,0.0,0.0,0.0,0.0,0.0,0.0,0.0,0.0,0.0,0.0,0.0,0.0,0.0,0.0,0.0,0.0,0.0,0.0,0.0,0.0,0.0,0.0,0.0,0.0,0.0,0.0,0.0,3.0206,2.976,2.8907,2.9528,2.9804,2.9829,0.0,0.0,0.0,0.0,0.0,0.0,0.0,0.0,0.0,0.0,0.0,0.0,0.0,0.0,0.0,0.0,0.0,0.0,0.0,0.0,0.0,0.0,0.0,0.0,0.0,0.0,0.0,0.0,0.0,0.0,0.0,0.0,0.0,0.0,0.0,0.0,0.0,0.0,0.0,0.0,0.0,0.0,0.0,0.0,0.0,0.0,0.0,0.0,0.0,0.0,0.0,0.0,0.0,0.0,0.0,0.0,0.0,0.0,0.0,0.0,0.0,0.0,0.0,0.0,0.0,0.0,0.0,0.0,0.0,0.0,0.0,3.1776,0.0,0.0,0.0,0.0,0.0,0.0,0.0,0.0,0.0,0.0,0.0,0.0,0.0,0.0,0.0,0.0,0.0,0.0,0.0,0.0,0.0,0.0,0.0,0.0,2.8574,2.9704,2.9804,2.9804,0.0,0.0,0.0,0.0,0.0,0.0,0.0,3.041,3.0512,3.0312,3.0143,3.0075,3.0086,3.0695,3.0997,3.1003,3.1185,0.0,0.0,0.0,0.0,0.0,0.0,0.0,0.0,0.0,0.0,0.0,0.0,0.0,0.0,0.0,0.0,0.0,0.0,0.0,0.0,0.0,0.0,0.0,0.0,0.0,0.0,0.0,0.0,0.0,0.0,0.0,0.0,0.0,0.0,0.0,0.0,0.0,0.0,0.0,0.0,0.0,0.0,0.0,0.0,0.0,0.0,0.0,0.0,0.0,0.0,0.0,0.0,0.0,0.0,0.0,0.0,0.0,0.0,0.0,0.0,0.0,0.0,0.0,4.078,4.1305,4.1526,4.1753,4.154,4.087,3.8156,3.6127,3.4713,0.0,0.0,0.0,0.0,0.0,0.0,0.0,0.0,0.0,0.0,0.0,0.0,0.0,0.0,0.0,0.0,0.0,0.0,0.0,0.0,0.0,0.0,2.8097,2.8574,2.9704,2.9804,2.9804,0.0,0.0,0.0,0.0,0.0,0.0,3.1026,3.0732,3.0111,2.9132,3.0556,3.2452,3.4733,3.5396,3.5691,3.5558,3.2199,3.1153,3.1965,0.0,0.0,0.0,0.0,0.0,0.0,0.0,0.0,0.0,0.0,0.0,0.0,0.0,0.0,0.0,0.0,0.0,0.0,0.0,0.0,0.0,0.0,0.0,0.0,0.0,0.0,0.0,0.0,0.0,0.0,0.0,0.0,0.0,0.0,0.0,0.0,0.0,0.0,0.0,0.0,0.0,3.5046,3.4353,0.0,0.0,0.0,0.0,0.0,0.0,0.0,0.0,0.0,0.0,0.0,0.0,0.0,0.0,4.1769,4.3133,4.4303,4.5285,4.7131,4.7131,4.5573,4.6723,4.6923,4.6299,4.6448,0.0,3.8246,3.6334,0.0,0.0,0.0,0.0,0.0,0.0,0.0,0.0,0.0,0.0,0.0,0.0,0.0,0.0,0.0,0.0,0.0,0.0,0.0,0.0,0.0,2.8097,2.8764,3.0448,3.1273,3.1627,3.1394,3.2448,0.0,0.0,0.0,3.1983,3.1983,3.1793,3.1819,3.2094,3.431,3.5868,3.6792,3.7386,3.7966,3.8393,3.567,3.4437,3.4407,3.493,0.0,0.0,0.0,0.0,0.0,0.0,0.0,0.0,0.0,0.0,0.0,0.0,0.0,0.0,0.0,0.0,0.0,0.0,0.0,0.0,0.0,0.0,0.0,0.0,0.0,0.0,0.0,0.0,0.0,0.0,0.0,0.0,0.0,0.0,0.0,0.0,0.0,0.0,0.0,3.8103,3.7956,3.6266,3.6852,3.7121,0.0,0.0,0.0,0.0,0.0,0.0,0.0,0.0,0.0,4.2081,4.335,4.4951,4.6985,4.8308,4.9783,5.1319,5.257,5.2899,5.2396,5.2965,5.2905,5.233,5.263,5.0355,4.6172,4.2149,3.9808,3.8546,0.0,0.0,0.0,0.0,3.7091,3.825,0.0,0.0,0.0,0.0,0.0,0.0,0.0,0.0,0.0,0.0,0.0,0.0,2.8566,2.8911,2.9855,3.1902,3.2962,3.3365,3.2879,3.3851,0.0,3.3003,3.2947,3.2947,3.2947,3.3032,3.4085,3.6182,3.8126,3.9195,3.9404,3.9963,4.0645,4.129,3.9854,3.8362,3.6878,3.6863,3.639,3.5673,0.0,0.0,0.0,0.0,0.0,0.0,0.0,0.0,0.0,0.0,0.0,0.0,0.0,0.0,0.0,0.0,0.0,0.0,0.0,0.0,0.0,0.0,0.0,0.0,0.0,0.0,0.0,0.0,0.0,0.0,0.0,0.0,0.0,0.0,0.0,0.0,0.0,3.9918,4.0516,3.8182,3.981,4.0426,0.0,0.0,0.0,0.0,0.0,0.0,4.3127,4.4769,4.6297,4.7834,4.9307,5.075,5.2223,5.321,5.464,5.6436,5.6971,5.745,5.7872,5.8052,5.7693,5.6971,5.712,5.5683,5.2845,4.7878,4.3959,4.1056,4.0198,3.944,3.8905,3.9634,4.0933,4.2468,0.0,0.0,0.0,0.0,0.0,0.0,0.0,0.0,0.0,0.0,0.0,2.762,3.0121,3.1114,3.2354,3.4251,3.4491,3.4261,3.3596,3.3849,3.4014,3.3927,3.3927,3.3927,3.3927,3.4363,3.6522,4.0487,4.0813,4.1996,4.3966,4.4642,4.4991,4.5003,4.4284,4.199,3.8611,3.7467,3.6882,3.6724,3.6724,0.0,0.0,0.0,0.0,0.0,0.0,0.0,0.0,0.0,0.0,0.0,0.0,0.0,0.0,0.0,0.0,0.0,0.0,0.0,0.0,0.0,0.0,0.0,0.0,0.0,0.0,0.0,0.0,0.0,0.0,0.0,0.0,0.0,0.0,0.0,0.0,0.0,0.0,3.9481,4.1575,0.0,0.0,0.0,0.0,4.3765,4.4762,4.6333,4.8768,5.012,5.1733,5.3729,5.4466,5.5777,5.7666,5.7756,5.8501,5.9874,5.9904,5.9934,5.9994,6.0625,6.0206,5.8979,5.9608,5.8437,5.5683,5.1594,4.8701,4.6766,4.5451,4.4893,4.4792,4.4204,4.4851,4.5968,0.0,0.0,0.0,0.0,0.0,0.0,0.0,0.0,2.6177,2.7719,2.8799,3.0422,3.2919,3.3873,3.5153,3.7234,3.7434,3.7059,3.6108,3.6129,3.5811,3.5014,3.5385,3.5976,3.682,3.8249,4.0323,4.3046,4.4866,4.6334,4.751,4.7331,4.7219,4.716,4.6061,4.462,4.2839,4.0729,3.9055,3.7765,3.7084,3.6576,0.0,0.0,0.0,0.0,0.0,0.0,0.0,0.0,0.0,0.0,0.0,0.0,0.0,0.0,0.0,0.0,0.0,0.0,0.0,0.0,0.0,0.0,0.0,0.0,0.0,0.0,0.0,0.0,0.0,0.0,0.0,0.0,0.0,0.0,0.0,0.0,0.0,4.5684,4.7698,0.0,4.6869,4.644,4.6783,4.7991,4.9212,5.1024,5.3593,5.494,5.656,5.859,5.889,5.9937,6.1882,6.1523,6.1972,6.3258,6.281,6.26,6.26,6.245,6.1882,6.1044,6.1283,6.0356,5.8617,5.7154,5.3892,4.971,4.8813,4.8454,4.8424,4.8185,4.9202,5.0631,0.0,0.0,0.0,0.0,0.0,0.0,0.0,0.0,2.6723,2.8471,3.0487,3.2771,3.5571,3.6921,3.8477,4.0598,4.0187,3.9309,3.816,3.7464,3.6626,3.5549,3.6537,3.7871,3.9397,4.1803,4.4018,4.5992,4.8207,4.9374,4.9583,4.9134,4.8835,4.8588,4.7698,4.683,4.5873,4.4107,4.1852,3.9313,3.8139,3.7719,3.7509,0.0,0.0,0.0,0.0,0.0,0.0,0.0,0.0,0.0,0.0,0.0,0.0,0.0,0.0,0.0,0.0,0.0,0.0,0.0,0.0,0.0,0.0,0.0,0.0,0.0,0.0,0.0,0.0,0.0,0.0,0.0,0.0,0.0,0.0,0.0,4.8865,5.0444,5.236,5.2935,5.1355,5.1259,5.1618,5.2462,5.3982,5.6017,5.8707,5.9638,6.1014,6.3049,6.2869,6.3378,6.4665,6.4276,6.4395,6.4994,6.4575,6.4336,6.4336,6.3677,6.3139,6.272,6.251,6.1792,6.0745,6.0745,5.8171,5.4107,5.321,5.2611,5.2223,5.2223,5.3054,5.4127,0.0,0.0,0.0,0.0,0.0,0.0,0.0,2.5568,2.677,2.8555,3.1455,3.4592,3.7891,4.0186,4.2301,4.4227,4.2551,4.0816,3.9511,3.7554,3.6224,3.5639,3.7434,3.9457,4.1553,4.4745,4.7399,4.9366,5.0661,5.0936,5.0285,5.0255,4.9949,4.9366,4.9359,4.8618,4.7399,4.7369,4.5125,4.1493,4.0068,3.9611,3.9603,0.0,0.0,0.0,0.0,0.0,0.0,0.0,0.0,0.0,0.0,0.0,0.0,0.0,0.0,0.0,0.0,0.0,0.0,0.0,0.0,0.0,0.0,0.0,0.0,0.0,0.0,0.0,0.0,0.0,0.0,0.0,0.0,0.0,4.6271,4.9853,5.2606,5.3378,5.5204,5.5653,5.3737,5.473,5.6017,5.7244,5.9189,6.1403,6.3947,6.4096,6.5024,6.6999,6.64,6.6101,6.6131,6.6101,6.5742,6.5084,6.5084,6.5054,6.4994,6.4336,6.4006,6.3977,6.3377,6.272,6.2121,6.2121,6.1343,6.0057,5.8683,5.7393,5.6282,5.6282,5.6252,5.6132,0.0,0.0,0.0,0.0,0.0,0.0,0.0,2.6428,2.7996,3.0878,3.418,3.751,4.0842,4.3001,4.4825,4.6352,4.3359,4.1044,4.0187,3.7404,3.6537,3.8255,3.932,4.1683,4.5574,4.7945,4.986,5.1379,5.2725,5.3025,5.2366,5.1887,5.1558,5.1349,5.0391,4.974,4.9381,4.8925,4.784,4.6133,4.287,4.1024,3.999,0.0,0.0,0.0,0.0,0.0,0.0,0.0,0.0,0.0,0.0,0.0,0.0,0.0,0.0,0.0,0.0,0.0,0.0,0.0,0.0,0.0,0.0,0.0,0.0,0.0,0.0,0.0,0.0,0.0,0.0,0.0,0.0,5.0002,4.986,5.2875,5.6072,5.862,6.0266,6.1162,6.1044,6.1822,6.2452,6.2781,6.4246,6.5413,6.6131,6.664,6.7389,6.8405,6.7777,6.7928,6.8884,6.7958,6.7389,6.7148,6.667,6.6191,6.5712,6.4545,6.4006,6.3977,6.3377,6.3018,6.2838,6.2838,6.2629,6.209,6.0266,5.9039,5.8231,5.7752,5.7274,5.6885,0.0,0.0,0.0,0.0,0.0,0.0,0.0,2.6791,2.8476,3.1763,3.5706,3.929,4.2111,4.4397,4.5933,4.6411,4.3619,4.1164,3.9649,3.7764,3.7764,4.0127,4.2192,4.4945,4.8424,5.0996,5.2815,5.3887,5.5209,5.5359,5.4456,5.4311,5.3952,5.3414,5.2342,5.1714,5.1439,5.078,5.0145,4.9284,4.6711,4.4885,4.3389,4.033,4.0208,4.1381,3.8996,3.9468,4.0818,3.8101,0.0,0.0,0.0,0.0,0.0,0.0,0.0,0.0,0.0,0.0,0.0,0.0,0.0,0.0,0.0,0.0,0.0,0.0,0.0,0.0,0.0,0.0,0.0,0.0,5.2247,5.5448,5.6436,5.8022,6.0114,6.2839,6.4336,6.5293,6.5622,6.6281,6.6759,6.7028,6.7807,6.8465,6.9004,6.8945,6.9275,7.0171,6.9335,6.9215,6.9993,6.9245,6.8706,6.8437,6.8016,6.7627,6.7238,6.6161,6.5503,0.0,6.4575,6.3977,6.3468,6.3468,6.3347,0.0,0.0,0.0,0.0,0.0,5.9102,5.88,0.0,0.0,0.0,0.0,0.0,0.0,0.0,2.6851,2.8521,3.1903,3.6394,4.0008,4.1852,4.4407,4.5762,4.5334,4.3379,4.1212,3.8888,3.8829,3.9846,4.2092,4.5903,4.8873,5.0847,5.4072,5.6013,5.6521,5.7752,5.7723,5.6551,5.7064,5.6675,5.5508,5.482,5.4162,5.3498,5.2815,5.2187,5.1594,5.0936,4.971,4.79,4.4217,4.4227,4.5942,4.4077,4.3199,4.2663,4.0811,0.0,0.0,0.0,0.0,0.0,0.0,0.0,0.0,0.0,0.0,0.0,0.0,0.0,0.0,0.0,0.0,0.0,0.0,0.0,0.0,0.0,0.0,0.0,0.0,5.7244,6.0984,6.4126,6.4276,6.4694,6.6251,6.7478,6.8287,6.8437,6.8974,6.9602,7.0168,7.029,7.0799,7.1936,0.0,0.0,0.0,0.0,7.035,7.0442,7.035,6.9991,6.9333,6.9243,6.9183,6.9093,6.8347,6.7688,6.7059,6.64,6.5383,6.4216,6.4216,6.3827,6.3197,6.3048,6.26,6.2032,6.1373,6.1076,6.1014,0.0,0.0,0.0,0.0,0.0,0.0,0.0,2.7196,2.873,3.2714,3.6363,3.896,3.9888,4.2322,4.4267,4.5214,4.2521,4.0804,4.0834,4.1332,4.3199,4.6822,5.0235,5.2965,5.5025,5.7749,5.8949,5.853,5.9308,5.9308,5.853,5.865,5.8291,5.7487,5.6855,5.6222,5.5564,5.4905,5.4551,5.4371,5.3713,5.1379,4.8109,4.6262,4.5514,4.5304,4.3898,4.4676,4.5971,4.3477,4.2966,4.2909,4.0362,3.8131,0.0,0.0,0.0,0.0,0.0,0.0,0.0,0.0,0.0,0.0,0.0,0.0,0.0,0.0,0.0,0.0,0.0,0.0,0.0,5.7363,6.1732,6.5473,6.7717,6.9273,6.9963,6.9303,6.9484,7.0023,7.1071,7.1248,7.1607,7.2295,7.2355,7.2445,7.2684,7.2475,0.0,7.3492,7.2744,7.2595,7.3133,7.2624,7.1996,7.1308,0.0,0.0,6.9784,6.8556,6.7928,6.7778,6.7089,6.634,6.5622,6.5622,6.4904,6.3707,6.269,6.2211,6.2032,6.1373,6.1076,6.1104,0.0,0.0,0.0,0.0,0.0,0.0,0.0,2.7299,2.879,3.2958,3.5805,3.7823,3.8781,4.0647,4.1863,4.1833,4.0337,4.0247,4.2222,4.3928,4.6792,5.105,5.3743,5.6077,5.8108,5.9757,6.0446,6.0116,6.0775,6.0745,6.0116,6.0446,6.0236,5.955,5.889,5.8437,5.8108,5.7423,5.6974,5.6645,5.6645,5.5059,5.2426,5.0152,4.9254,4.9097,4.7788,4.7938,4.8514,4.686,4.618,4.5593,4.3275,4.1369,3.9762,0.0,0.0,0.0,0.0,0.0,0.0,0.0,0.0,0.0,0.0,0.0,0.0,0.0,0.0,4.7253,0.0,0.0,5.886,6.245,6.6101,6.9034,7.0709,7.2086,7.2415,7.1131,7.1517,7.2176,7.2834,7.3193,7.3522,7.3881,7.3881,7.3881,7.3881,7.3582,7.3552,7.3881,7.3253,7.3073,7.3402,7.3073,7.2744,7.2385,7.2056,7.1757,7.1427,7.038,6.9784,6.9393,6.8796,6.7926,6.6939,6.6281,6.5413,6.4454,6.4211,6.3494,6.254,6.2211,6.2511,6.3091,0.0,0.0,0.0,0.0,0.0,0.0,0.0,2.7333,2.8852,3.2631,3.4861,3.6464,3.7362,3.8631,3.908,3.811,3.8859,4.0756,4.4057,4.6869,5.0451,5.497,5.7034,5.883,6.0446,6.1164,6.1493,6.1493,6.2032,6.2002,6.1493,6.2032,6.1942,6.1283,6.0715,6.0443,6.0266,5.9727,5.9189,5.8713,5.9279,5.883,5.7573,5.479,5.3832,5.3767,5.2306,5.1265,5.0488,4.9905,4.8798,4.7399,4.5783,4.4503,4.3264,4.1555,4.0331,0.0,0.0,0.0,0.0,0.0,0.0,0.0,0.0,0.0,4.3868,4.6916,4.9339,5.2439,5.7501,6.0625,6.3617,6.7178,6.9842,7.1876,7.2954,7.3672,7.3672,7.2628,7.3432,7.4091,7.4091,7.4569,7.4903,7.4903,7.4903,7.4903,7.4903,7.436,7.4091,7.4091,7.3582,7.3283,7.3283,7.3283,7.3283,7.3283,7.3163,7.3103,7.3073,7.2385,7.1787,7.1248,7.05,6.9514,6.8318,6.7245,6.6432,6.5887,6.6675,6.5883,6.4295,6.3993,6.4596,6.5517,0.0,0.0,0.0,0.0,0.0,0.0,0.0,0.0,2.9101,3.1409,3.3484,3.4548,3.4083,3.525,3.6237,3.6673,4.0457,4.4247,4.754,5.0774,5.4366,5.8381,6.0475,6.1642,6.1882,6.251,6.2898,6.2898,6.2958,6.2958,6.2898,6.2958,6.2629,6.1972,6.1912,6.1553,6.0956,6.0896,6.0807,6.0747,6.0837,6.0805,6.0565,5.9578,5.8141,5.6406,5.4551,5.3054,5.1887,5.1229,5.0122,4.9037,4.8798,4.7842,4.6629,4.5824,4.3219,4.0799,4.1607,4.0675,3.9519,3.9562,4.0303,4.1931,0.0,0.0,5.044,5.3482,5.6638,5.9737,6.2661,6.5413,6.7958,7.0111,7.2206,7.3612,7.3762,7.436,7.4753,7.4604,7.4723,7.4813,7.4813,7.4873,7.4903,7.4903,7.4903,7.4903,7.4903,7.4843,7.4813,7.4813,7.4723,7.4693,7.4693,7.4693,7.4693,7.4693,7.4061,7.3791,7.3762,7.3103,7.2774,7.2624,7.1368,7.041,6.9759,6.9821,6.9369,6.8836,6.9658,6.9473,6.8548,6.7228,6.6829,6.699,0.0,0.0,0.0,0.0,0.0,0.0,0.0,0.0,0.0,3.1185,3.2228,3.2931,3.3455,3.3993,3.4797,3.5873,3.999,4.4529,4.922,5.3511,5.7877,6.2404,6.3807,6.4278,6.3865,6.4112,6.3874,6.3108,6.3108,6.3108,6.3108,6.3108,6.2958,6.266,6.266,6.251,6.2241,6.2241,6.2032,6.1732,6.2121,6.2032,6.1583,6.0505,5.883,5.6885,5.5329,5.3653,0.0,5.1415,5.087,5.0331,4.9942,4.9194,4.8259,4.7189,4.5221,4.3362,4.3001,4.3238,4.3666,4.4108,4.5913,4.8342,5.127,5.3513,5.5874,5.9129,6.2076,6.4904,6.7537,6.9572,7.1368,0.0,7.3911,7.4599,7.5018,7.4958,7.4484,7.3316,7.3821,7.445,7.4873,7.4903,7.4903,7.4903,7.4903,7.4903,7.4903,7.4903,7.4903,7.4903,7.4903,7.4903,7.4903,7.4903,7.4903,7.4903,7.4634,7.448,7.445,7.3791,7.3043,7.2295,7.1727,7.1439,7.1352,7.1439,7.1587,7.1809,7.2169,7.2105,7.1512,6.884,6.8311,6.8926,0.0,0.0,0.0,0.0,0.0,0.0,0.0,0.0,0.0,0.0,3.1122,3.1675,3.2811,3.2913,3.3547,3.5208,3.9146,4.3974,4.9694,5.4675,5.9439,6.4006,6.5104,6.5277,6.4565,6.4568,6.4069,6.3108,6.3108,6.3108,6.3108,6.3108,6.3108,6.3108,6.3108,6.3108,6.3108,6.3108,6.2838,6.2421,6.2898,6.2599,6.1672,6.0116,5.8082,5.5867,5.476,5.2725,5.0511,5.0009,4.971,4.9531,4.9441,4.9105,4.8588,4.7818,4.6501,4.5125,4.4356,4.5463,4.7228,4.8805,5.1528,5.4461,5.6825,5.9039,6.1403,6.4395,6.679,6.9034,7.1308,7.2535,7.3612,7.4958,7.5023,7.5108,7.5826,7.4988,7.387,7.2616,7.3011,7.3812,7.4909,7.5156,7.555,7.6199,7.5829,7.556,7.556,7.556,7.556,7.556,7.603,7.6233,7.6233,7.5796,7.556,7.5557,7.5112,7.4903,7.4903,7.439,7.3552,7.2478,7.2731,7.2815,7.2887,7.357,7.4113,7.4494,7.4731,7.4705,7.4147,7.1146,7.0511,7.1084,0.0,0.0,0.0,0.0,0.0,0.0,0.0,0.0,0.0,0.0,0.0,0.0,0.0,3.1393,3.2208,3.4513,3.8398,4.3144,4.8776,5.3732,5.8096,6.1732,6.3295,6.3779,6.3164,6.3165,6.3137,6.3108,6.3108,6.3108,6.3108,6.3108,6.3108,6.3108,6.3108,6.3108,6.3108,6.3108,6.3108,6.3078,6.3108,6.2301,6.0896,5.8922,5.6166,5.3228,5.2546,4.9793,4.648,4.645,4.6001,4.5693,4.698,4.7369,4.7489,4.8087,4.686,4.5424,4.6031,4.7219,4.9164,5.3025,5.5961,5.8773,6.212,6.4874,6.7298,6.9395,7.0861,7.2146,7.3552,7.3821,7.43,7.5647,7.5318,7.5108,7.5826,7.421,7.3184,7.3875,7.283,7.2914,0.0,7.5869,7.7213,7.9496,7.8155,7.7225,7.7225,7.7225,7.7225,7.7225,7.8816,7.965,7.965,7.8059,7.7225,7.7193,7.5628,7.4903,7.4903,7.4903,7.448,7.3893,7.4754,7.4716,7.4314,7.6751,7.7313,7.6782,7.7573,7.742,7.6608,7.5006,7.3958,7.3295,0.0,0.0,0.0,0.0,0.0,0.0,0.0,0.0,0.0,0.0,0.0,0.0,0.0,0.0,0.0,0.0,3.8049,4.2138,4.7935,5.3554,5.7853,6.0571,6.4986,6.662,6.4991,6.6384,6.6259,6.4429,6.4429,6.3986,6.3108,6.3108,6.3108,6.3108,6.3108,6.3347,6.3647,6.3287,6.3347,6.3588,6.2301,6.1224,6.0116,5.7274,5.3862,5.0354,0.0,4.6471,4.4895,4.4476,4.4177,4.4057,4.4506,4.4954,4.5433,4.6112,4.7091,4.8289,4.9793,5.2456,5.5658,5.9219,6.1732,6.4126,6.7029,6.8645,6.9782,7.044,7.0949,7.1248,7.1248,7.1607,7.2355,7.3702,7.445,7.5523,7.7249,7.6896,7.5794,7.3897,7.4482,0.0,0.0,0.0,0.0,7.8881,7.8996,7.8972,7.8972,7.8972,7.8972,7.8972,7.9497,7.9803,7.9803,7.8155,7.729,7.729,7.5661,7.5455,7.6469,7.6469,7.6723,7.7183,7.7459,7.7513,7.7438,7.8315,7.8803,7.8999,7.8276,7.7841,7.7435,7.5912,7.5168,7.4762,0.0,0.0,0.0,0.0,0.0,0.0,0.0,0.0,0.0,0.0,0.0,0.0,0.0,0.0,0.0,0.0,0.0,4.0623,4.5939,5.0897,5.4747,5.7252,6.1086,6.2662,6.1603,6.2448,6.2411,6.1469,6.1118,6.0993,6.1168,6.0999,6.1074,6.1313,6.1792,6.2241,6.257,6.1942,6.1762,6.1672,5.9249,5.7723,5.6526,5.2995,4.9793,0.0,4.4407,4.312,4.2472,4.2053,4.2083,4.2263,4.2263,4.319,4.4536,4.5693,4.8259,5.1342,5.4221,5.7573,6.1074,6.4694,6.667,6.8345,7.053,7.1338,7.1427,7.0709,7.0171,6.9572,6.8675,6.8286,6.9134,7.2178,7.3215,7.4928,7.8619,7.8563,7.7552,7.6011,7.6342,7.6701,0.0,0.0,0.0,8.0264,8.0552,8.0647,8.0647,8.0647,8.0647,8.0647,8.1242,8.1534,8.1534,7.9312,7.758,7.6467,7.5966,7.6302,7.7322,7.7932,7.8531,7.9158,7.95,7.9671,7.9777,7.9799,8.0144,8.0412,7.8653,7.8,7.7831,7.6251,7.5709,7.554,0.0,0.0,0.0,0.0,0.0,0.0,0.0,0.0,0.0,0.0,0.0,0.0,0.0,0.0,0.0,0.0,0.0,0.0,4.2772,4.5891,4.8873,5.1847,5.2272,5.2812,5.3661,5.2418,5.2744,5.4776,5.3799,5.4674,5.7315,5.6919,5.7094,5.7756,5.9069,5.9638,5.9578,5.8979,5.8351,5.7457,5.4221,5.2157,5.0518,4.6711,4.4407,4.298,4.1115,4.0008,3.9421,3.9451,3.993,4.0576,4.0666,4.2462,4.4945,4.707,5.0481,5.4576,5.9129,6.2331,6.5293,6.9245,7.062,7.1368,7.2624,7.2834,7.2176,7.0019,6.8525,6.7179,0.0,0.0,6.5072,7.1129,7.1894,7.3927,8.0066,7.9408,7.8743,0.0,0.0,0.0,0.0,0.0,0.0,8.349,0.0,8.2378,8.2378,8.2378,8.2378,8.2345,8.3811,8.4553,8.4473,8.1268,7.8059,7.4903,7.6535,7.7354,7.7483,7.9158,7.9986,8.0103,8.0894,8.1223,8.1142,8.1252,8.1283,8.1046,7.8889,7.8044,7.7874,7.6352,7.5811,7.5709,0.0,0.0,0.0,0.0,0.0,0.0,0.0,0.0,0.0,0.0,0.0,0.0,0.0,0.0,0.0,0.0,0.0,0.0,3.8367,4.1365,4.3644,4.4918,4.9231,5.1711,5.1856,5.3105,5.3545,5.3113,5.2271,5.1929,5.2108,5.2006,5.2043,5.2252,5.309,5.3473,5.3473,5.3294,5.312,5.2761,5.0451,4.8745,4.7317,4.5313,4.3449,4.1803,4.1313,4.0397,3.9481,3.9978,4.1216,4.2831,4.4326,4.5933,4.8057,5.2007,5.5628,5.9246,6.3378,6.6759,6.9752,7.2265,7.3013,7.3103,7.2954,7.1787,6.9722,6.6221,6.3677,6.1431,0.0,0.0,0.0,6.8854,7.3598,0.0,8.3581,8.4298,0.0,8.3509,0.0,8.2446,8.1882,8.3016,0.0,0.0,8.5026,8.4875,8.4875,8.4875,8.4606,8.4008,8.4392,8.4035,8.283,7.9588,7.6929,7.4903,7.6535,7.7964,7.922,8.0855,8.2226,8.3354,8.3033,8.2563,8.2018,8.1534,8.0978,8.0378,7.9261,7.8822,7.872,7.7739,7.7401,7.7299,0.0,0.0,0.0,0.0,0.0,0.0,0.0,0.0,0.0,0.0,0.0,0.0,0.0,0.0,0.0,0.0,0.0,0.0,0.0,3.7808,3.9395,4.0428,4.3057,4.4928,4.5832,4.6143,4.6678,4.7511,4.6296,4.631,4.7429,4.7254,4.7347,4.7646,4.8633,4.9052,4.9022,4.8745,4.8424,0.0,0.0,4.3958,4.31,4.1504,4.0367,3.9679,3.9996,4.0726,4.1724,4.3,4.4147,4.5553,4.8416,5.0631,5.3025,5.739,6.1194,6.4725,6.8106,7.1218,7.3702,7.4569,7.454,7.3702,7.1278,6.9453,6.6789,6.1641,5.8919,5.6705,5.4042,5.7444,6.224,0.0,0.0,0.0,8.6252,8.7679,8.7969,0.0,8.6974,0.0,8.4979,8.529,8.5926,0.0,8.6467,8.6264,8.6264,8.6264,8.6095,8.5628,8.5317,8.3838,8.115,7.9342,7.758,7.5966,7.7611,7.925,8.0914,8.2515,8.3756,8.4546,0.0,8.3253,8.2813,8.1731,8.108,8.0581,7.9532,7.9101,7.9025,7.8247,7.7773,7.7435,0.0,0.0,0.0,0.0,0.0,0.0,0.0,0.0,0.0,0.0,0.0,0.0,0.0,0.0,0.0,0.0,0.0,0.0,0.0,0.0,3.5828,3.7206,3.6148,3.6446,3.8395,3.6688,3.7232,4.0237,3.8856,3.9765,4.278,4.2531,4.2711,4.3309,4.4566,4.5074,4.4954,4.4466,4.3868,4.301,4.0169,3.8973,3.8703,0.0,3.6806,3.7375,3.8123,4.0666,4.4087,4.698,4.8177,4.9164,5.3049,5.6107,5.9039,6.2959,6.667,7.0081,7.2624,7.4984,7.6659,7.6066,7.5198,7.3316,6.8766,6.6221,6.3019,5.6731,5.4192,5.2402,5.0009,5.3799,5.9483,6.6087,0.0,8.0282,8.8391,8.9985,9.0662,9.1508,9.0357,8.9241,8.8497,8.7854,8.7719,8.826,8.7719,8.7245,8.7076,8.7076,8.6974,8.6771,8.5932,8.3763,8.0137,7.9893,7.9064,7.7644,7.9343,8.0855,8.2259,8.3865,8.4614,8.4546,0.0,0.0,8.3253,8.1866,8.1249,8.1046,7.9769,7.9261,7.9194,7.8517,7.7874,7.7333,0.0,0.0,0.0,0.0,0.0,0.0,0.0,0.0,0.0,0.0,2.1012,2.2522,0.0,0.0,0.0,0.0,0.0,0.0,0.0,0.0,0.0,3.3423,3.3844,3.4495,3.5418,3.5579,3.5672,3.5793,3.5963,3.6364,3.6987,3.7447,3.7734,3.7883,3.8631,3.8661,3.8212,3.8601,3.8422,3.7811,3.7225,3.6656,3.6207,3.6434,0.0,0.0,3.799,3.92,4.1395,4.8835,5.2815,5.5264,5.865,6.1912,6.5144,6.8555,7.0829,7.2684,7.4809,7.6061,7.6659,7.6066,7.4151,7.1338,6.7268,6.2361,0.0,5.2252,4.9351,4.7347,4.6352,5.1678,5.8837,6.671,7.3508,8.1082,9.0495,9.1406,9.1609,0.0,9.2387,9.1541,9.0797,0.0,0.0,0.0,0.0,8.9106,8.7854,8.782,8.7245,8.6027,8.4533,8.3128,8.1795,8.0468,7.965,7.9405,8.1003,8.1939,8.2259,8.3865,8.4614,8.4546,8.3828,0.0,8.2543,8.1663,8.0945,8.0378,8.0107,8.0006,8.0006,7.987,7.9735,7.9532,0.0,0.0,0.0,0.0,0.0,0.0,0.0,0.0,1.8873,2.0289,2.1839,2.32,2.4212,2.4922,0.0,0.0,0.0,0.0,0.0,0.0,0.0,0.0,3.2335,3.2869,3.3556,3.3846,3.4181,3.4592,0.0,3.516,3.5519,3.5818,3.5968,3.5998,3.6297,3.6237,3.5998,3.6297,3.6237,3.5968,3.5968,3.5789,3.5549,0.0,0.0,0.0,3.7182,3.9379,4.2622,4.71,5.2899,5.9138,6.4286,6.7608,7.0121,7.2859,7.4526,7.5677,7.6634,7.7622,7.8035,7.6689,7.3612,6.9393,6.3707,0.0,0.0,4.7309,4.5693,4.4954,4.3978,5.0493,5.7714,6.2844,6.9427,7.743,8.7568,8.8666,8.9985,9.4248,9.4079,9.33,0.0,0.0,0.0,0.0,0.0,8.9715,8.8632,8.8564,8.7888,8.6433,8.5577,8.4213,8.223,8.1447,8.1033,8.1033,8.1824,8.2628,8.3476,8.4251,8.4614,8.4546,8.3828,0.0,8.2915,8.2171,8.1663,8.1325,8.0919,8.075,8.0716,8.0344,7.9972,7.96,0.0,0.0,0.0,0.0,0.0,0.0,0.0,1.7798,1.9323,2.1159,2.2825,2.3923,2.4194,2.4388,2.505,0.0,0.0,0.0,0.0,0.0,0.0,0.0,0.0,0.0,0.0,0.0,0.0,3.4069,3.4368,0.0,0.0,0.0,0.0,0.0,3.5519,3.5519,3.5519,3.5519,3.5375,0.0,0.0,3.5067,0.0,0.0,0.0,0.0,0.0,3.914,4.296,4.5272,5.1176,5.8847,6.6168,7.0434,7.301,7.4594,7.6254,7.7622,7.7771,7.8669,7.9118,7.7108,7.3124,6.7787,6.0776,5.52,4.9786,4.3714,4.3007,4.3319,4.279,4.915,5.5642,5.9209,6.5235,7.3172,8.3795,8.5885,8.8497,9.4586,9.5093,0.0,9.3702,0.0,0.0,0.0,0.0,0.0,8.9134,8.91,8.8395,8.6974,8.6907,8.5548,8.2746,8.2713,8.282,8.3121,8.3121,8.3758,8.4995,8.4995,8.4838,8.458,8.3998,0.0,0.0,8.2881,8.2441,8.2103,8.1554,8.1215,8.1012,8.0412,7.9837,7.9363,0.0,0.0,0.0,0.0,0.0,0.0,0.0,1.7443,1.9648,2.1825,2.2747,2.3417,2.3962,2.463,2.4678,0.0,0.0,0.0,0.0,0.0,0.0,0.0,0.0,0.0,0.0,0.0,0.0,0.0,0.0,0.0,0.0,0.0,0.0,0.0,0.0,0.0,3.5519,3.5519,0.0,0.0,0.0,0.0,0.0,0.0,0.0,0.0,0.0,3.6823,3.8369,4.5852,4.884,5.0933,5.9869,6.6959,7.1909,7.1503,7.3983,7.7018,7.7652,7.834,7.84,7.6485,7.2361,6.7152,6.0823,5.4153,4.8036,4.3593,4.165,4.1354,4.3316,4.6687,5.1704,5.9433,6.4308,7.1007,8.2137,8.6061,8.9275,9.33,0.0,0.0,9.3736,0.0,0.0,0.0,0.0,0.0,8.91,8.91,8.8395,8.6974,8.6907,8.6081,8.4392,8.4392,8.4927,8.6009,8.6009,8.6093,8.6217,8.6217,8.5668,8.4614,8.4512,0.0,0.0,8.3422,8.2611,8.1418,8.1351,8.0885,8.0276,8.0209,8.0175,8.0107,0.0,0.0,0.0,0.0,0.0,0.0,1.6208,1.7848,1.983,2.2406,2.3274,2.3587,2.3487,2.3445,2.3407,0.0,0.0,0.0,0.0,0.0,0.0,0.0,0.0,0.0,0.0,0.0,0.0,3.17,0.0,0.0,0.0,0.0,0.0,0.0,0.0,0.0,0.0,3.4856,0.0,0.0,0.0,0.0,0.0,0.0,0.0,0.0,0.0,0.0,3.8012,4.0528,4.3654,4.6842,4.889,5.4922,6.238,6.8239,7.1784,7.436,7.6604,7.828,7.8849,7.6485,7.1669,6.585,5.9604,5.2793,4.661,4.2381,4.1335,4.1592,4.2935,4.5815,4.9761,5.5317,5.7662,6.2381,7.2665,7.5946,8.02,8.7983,9.0623,0.0,0.0,0.0,0.0,0.0,0.0,0.0,8.91,8.91,8.8395,8.6974,8.6907,8.6533,8.5693,8.5684,8.6266,8.7468,8.7012,8.6649,8.6379,8.588,8.5298,8.4614,8.4614,0.0,0.0,8.4167,8.3828,8.3219,8.2306,8.1765,8.1426,8.0513,8.0209,8.0141,0.0,0.0,0.0,0.0,0.0,1.4718,1.6634,1.8195,1.9994,2.2324,2.3135,2.3351,2.292,2.2081,2.1919,2.2772,0.0,0.0,0.0,0.0,0.0,0.0,0.0,0.0,0.0,0.0,0.0,3.1073,3.2258,0.0,0.0,0.0,0.0,0.0,0.0,0.0,0.0,0.0,0.0,0.0,0.0,0.0,0.0,0.0,0.0,0.0,0.0,0.0,0.0,0.0,0.0,4.2789,4.1821,4.5753,5.2605,6.2285,6.7666,7.1098,7.424,7.6808,7.8071,7.5617,7.0736,6.4936,5.857,5.1964,4.6039,4.2194,4.1389,4.1838,4.3338,4.5378,4.8177,5.225,5.3721,5.7536,6.6601,6.9789,7.439,8.3084,0.0,8.8497,0.0,0.0,0.0,0.0,0.0,0.0,8.941,8.9004,8.8192,8.6941,8.711,8.6969,8.6424,8.6632,8.7408,8.8732,8.7927,8.7204,8.6612,8.5983,8.52,8.4275,0.0,0.0,0.0,8.4614,8.4343,8.3836,8.2813,8.2137,8.1629,8.0581,8.0209,8.0141,0.0,0.0,0.0,0.0,0.0,0.0,0.0,1.8279,2.0213,2.1382,2.197,2.2307,2.2307,2.0827,2.0288,2.1421,0.0,0.0,0.0,0.0,0.0,0.0,0.0,0.0,0.0,0.0,2.9599,3.0815,3.1752,3.2836,3.4013,0.0,0.0,0.0,0.0,0.0,0.0,0.0,0.0,0.0,0.0,0.0,0.0,0.0,0.0,0.0,0.0,0.0,0.0,0.0,0.0,0.0,0.0,4.2132,4.4208,5.2809,6.0922,6.7627,7.026,7.3402,7.5467,7.3462,6.9572,6.458,5.8023,5.1842,4.6626,4.3597,4.1784,4.1704,4.4882,4.5275,4.6702,5.1513,5.458,5.9053,6.6821,7.1109,7.5158,0.0,0.0,8.3659,8.6704,0.0,0.0,0.0,0.0,0.0,9.0188,8.8801,8.7685,8.6941,8.7617,8.7481,8.6424,8.7186,8.8393,8.9986,8.9172,8.8165,8.7077,8.7011,8.5691,0.0,0.0,0.0,0.0,8.4614,8.3734,8.2441,8.2408,8.1528,8.0209,8.0209,8.0209,8.0209,0.0,0.0,0.0,0.0,0.0,0.0,0.0,1.7123,1.8555,1.9647,1.9949,2.0161,2.0564,1.9459,1.9158,2.0238,0.0,0.0,0.0,0.0,0.0,0.0,0.0,0.0,0.0,0.0,2.8109,2.9227,2.9947,3.1007,3.235,3.2169,3.2415,0.0,0.0,0.0,0.0,0.0,0.0,0.0,0.0,0.0,0.0,0.0,0.0,0.0,0.0,0.0,0.0,0.0,0.0,0.0,0.0,0.0,0.0,4.4018,5.1648,5.9608,6.266,6.5293,6.655,6.4096,6.1615,5.8401,5.3012,4.9044,4.5528,4.2134,4.1018,4.1316,4.3312,4.4081,4.6299,5.2053,5.3698,5.662,6.3262,6.8317,0.0,7.9499,8.6501,9.1203,0.0,0.0,0.0,0.0,0.0,0.0,9.0222,8.9275,8.8395,8.7685,8.8217,8.8761,8.9272,8.984,9.0359,9.0856,8.948,8.7786,8.5857,8.5786,0.0,0.0,0.0,0.0,0.0,8.4065,8.3558,8.305,8.2035,8.1359,8.0885,8.0378,8.0209,8.0141,0.0,0.0,0.0,0.0,0.0,0.0,0.0,1.6451,1.7638,1.8318,1.8524,1.8833,1.9421,1.8474,1.8252,1.9409,0.0,0.0,0.0,0.0,0.0,0.0,0.0,0.0,0.0,2.5958,2.7377,2.9366,2.9644,3.0822,3.2873,3.2291,3.2218,3.2575,3.2017,0.0,0.0,0.0,0.0,0.0,0.0,0.0,2.7979,0.0,0.0,0.0,0.0,0.0,0.0,0.0,0.0,0.0,0.0,0.0,0.0,0.0,4.4377,5.069,5.5748,5.9129,6.0745,5.883,5.6807,5.4206,5.0031,4.6889,4.4127,4.1606,4.0876,4.1168,4.2639,4.3751,4.5928,5.0313,5.1921,5.4771,6.0975,0.0,0.0,7.9305,0.0,0.0,0.0,0.0,0.0,0.0,0.0,0.0,9.0628,8.9376,8.8598,8.8395,8.9215,8.994,9.0595,9.0899,9.1124,9.1274,8.9142,8.698,8.4914,8.5094,0.0,0.0,0.0,0.0,0.0,8.3693,8.3321,8.2983,8.1791,8.1148,8.0818,8.0378,8.0209,8.0141,0.0,0.0,0.0,0.0,0.0,0.0,0.0,0.0,1.728,1.728,1.7509,1.7939,1.861,1.7642,1.7435,1.8709,0.0,0.0,0.0,0.0,0.0,0.0,0.0,0.0,0.0,2.5103,2.7207,3.0558,3.0441,3.1847,3.4682,3.3696,3.2983,3.2398,3.0992,0.0,0.0,0.0,0.0,0.0,0.0,0.0,0.0,0.0,0.0,0.0,0.0,0.0,0.0,0.0,0.0,0.0,0.0,0.0,0.0,0.0,0.0,0.0,0.0,5.3982,5.6739,5.6017,5.3877,5.1243,4.835,4.5137,0.0,4.1732,4.1034,4.1126,4.2788,4.4118,4.5504,4.7303,4.9821,5.3773,0.0,6.4763,0.0,0.0,8.5317,0.0,0.0,0.0,0.0,0.0,0.0,0.0,9.1203,8.9207,8.8361,8.8998,9.0254,9.0832,9.0633,9.0608,9.0784,9.1097,8.8303,8.5971,8.417,8.48,0.0,0.0,0.0,0.0,0.0,8.3389,8.2949,8.2272,8.1494,8.086,8.0326,8.0326,8.0376,8.0451,0.0,0.0,0.0,0.0,0.0,0.0,0.0,0.0,0.0,0.0,1.5695,1.552,1.5707,1.5452,1.573,0.0,0.0,0.0,0.0,0.0,0.0,0.0,0.0,0.0,0.0,2.463,2.6219,2.8108,2.9562,3.0726,3.1655,3.1796,3.1575,3.1035,3.0267,2.9118,0.0,0.0,0.0,0.0,0.0,0.0,0.0,0.0,0.0,0.0,3.0877,3.2427,0.0,0.0,0.0,0.0,0.0,0.0,0.0,0.0,3.7105,3.8512,4.0367,0.0,4.5035,4.3868,4.3828,4.3604,0.0,4.1622,4.1417,4.0185,3.9823,4.0438,4.2792,4.3284,4.4856,4.9535,0.0,5.5328,6.1741,0.0,0.0,8.5628,0.0,0.0,0.0,0.0,0.0,0.0,0.0,9.1034,9.0493,8.941,8.8632,8.826,8.949,9.0404,9.0891,9.0692,9.0188,8.9348,8.7438,8.5511,8.3679,8.3823,0.0,0.0,0.0,0.0,8.3422,8.2272,8.1697,8.1494,8.075,8.0867,8.1522,8.1522,8.2037,8.2661,0.0,0.0,0.0,0.0,0.0,0.0,0.0,0.0,0.0,0.0,0.0,0.0,0.0,0.0,0.0,0.0,0.0,0.0,0.0,0.0,0.0,0.0,0.0,0.0,2.284,2.3765,2.5652,2.8556,2.9009,3.0306,3.2324,3.1869,3.1523,3.1176,2.9688,2.8222,0.0,0.0,0.0,0.0,2.7085,0.0,0.0,0.0,0.0,0.0,3.0301,3.1613,0.0,3.3705,3.4346,3.4889,0.0,0.0,0.0,0.0,3.5998,3.6436,3.5971,3.8567,4.1224,4.0487,4.0636,4.0816,4.0397,4.0157,3.9888,3.9481,3.9391,4.0019,4.2053,4.2865,4.4804,0.0,5.2396,0.0,0.0,0.0,8.2983,8.7008,0.0,0.0,0.0,0.0,0.0,0.0,0.0,9.0459,8.9715,8.9004,8.826,8.7516,8.8167,8.8984,8.9983,8.9514,8.8945,8.8266,8.6472,8.466,8.3016,8.3693,8.3287,0.0,0.0,0.0,8.3198,8.2402,8.2393,8.2784,8.2058,8.2129,8.2683,8.2683,8.2835,8.2948,0.0,0.0,0.0,0.0,0.0,0.0,0.0,0.0,0.0,0.0,0.0,0.0,0.0,0.0,0.0,0.0,0.0,0.0,0.0,0.0,0.0,0.0,0.0,2.0654,2.2495,2.2962,2.524,2.9482,2.8845,3.0399,3.3916,3.2807,3.2064,3.1567,2.9166,2.7494,0.0,0.0,0.0,0.0,2.6844,0.0,0.0,0.0,0.0,0.0,0.0,0.0,0.0,3.3035,3.3756,3.4126,3.4822,0.0,0.0,0.0,0.0,0.0,3.4335,3.751,4.0915,4.039,4.0055,3.9984,4.0528,3.9487,3.8571,3.9122,3.9421,4.0019,4.1553,4.348,0.0,0.0,0.0,0.0,7.1407,7.6994,8.1671,8.6366,0.0,0.0,0.0,0.0,0.0,0.0,0.0,8.9647,8.8829,8.8158,8.7482,8.6771,8.6738,8.7196,8.8146,8.7653,8.7411,8.7411,8.5391,8.3768,8.2611,8.3809,8.3031,0.0,0.0,0.0,8.3079,8.2836,8.3314,8.4109,8.36,8.3493,8.3697,8.3803,8.3552,8.305,0.0,0.0,0.0,0.0,0.0,0.0,0.0,0.0,0.0,0.0,0.0,0.0,0.0,0.0,0.0,0.0,0.0,0.0,0.0,0.0,0.0,0.0,1.8944,2.0592,2.2318,2.3112,2.4681,2.7046,2.9414,3.0989,3.1893,3.306,3.2369,3.0087,2.8724,2.7494,2.6448,0.0,0.0,0.0,0.0,0.0,0.0,0.0,0.0,0.0,0.0,0.0,0.0,3.1536,3.2682,3.3893,3.3255,0.0,0.0,0.0,0.0,0.0,3.4593,3.711,3.8703,3.5833,3.6219,3.7281,3.7245,3.7841,3.8422,3.8512,3.9469,4.0995,4.3419,4.7068,5.0181,0.0,0.0,6.7937,0.0,0.0,0.0,0.0,0.0,0.0,0.0,0.0,0.0,0.0,0.0,0.0,8.7313,8.7144,8.6738,8.5993,8.596,8.5729,8.5264,8.58,8.6072,8.6072,8.4442,8.3558,8.3313,8.3276,8.3342,0.0,0.0,8.2879,8.3326,8.2022,8.1564,8.1803,8.2375,8.3168,8.4126,8.4793,8.5566,8.5973,0.0,0.0,0.0,0.0,0.0,0.0,0.0,0.0,0.0,0.0,0.0,0.0,0.0,0.0,0.0,0.0,0.0,0.0,0.0,0.0,0.0,1.7527,1.9573,2.1217,2.2282,2.3288,2.5138,2.7795,3.0101,3.1741,3.2742,3.2591,3.1235,2.885,2.8021,2.6927,2.5652,2.5194,0.0,0.0,0.0,0.0,0.0,0.0,0.0,0.0,0.0,0.0,0.0,0.0,3.1774,3.2486,3.2575,0.0,0.0,0.0,0.0,0.0,3.3679,3.5695,3.7411,3.5978,3.7722,3.967,3.9259,3.9338,3.9697,4.0415,4.1044,4.2573,4.6213,0.0,5.385,6.0587,0.0,0.0,0.0,0.0,0.0,0.0,0.0,0.0,0.0,0.0,0.0,0.0,0.0,0.0,0.0,0.0,8.596,8.5182,8.4742,8.437,8.4031,8.3998,8.4167,8.4539,8.3422,8.3032,8.3261,8.3469,8.3427,8.318,0.0,8.3043,8.3129,8.2414,8.2478,8.3134,8.3912,8.4553,8.5027,8.4954,8.5256,8.5385,0.0,0.0,0.0,0.0,0.0,0.0,0.0,0.0,0.0,0.0,0.0,0.0,0.0,0.0,0.0,0.0,0.0,0.0,0.0,0.0,1.7357,1.7784,1.9877,2.1619,2.2859,2.4004,2.6138,2.9308,3.0984,3.2516,3.3847,3.2064,3.0156,2.8254,2.7354,2.6235,2.4981,2.451,2.3981,0.0,0.0,0.0,0.0,0.0,0.0,0.0,0.0,0.0,0.0,0.0,0.0,0.0,0.0,0.0,0.0,3.2083,3.2753,3.3548,3.2991,3.4891,3.7059,3.7296,3.9222,4.1247,4.1914,4.1463,4.1373,4.3169,4.3818,4.5153,4.8882,5.2638,0.0,6.9362,0.0,0.0,0.0,0.0,0.0,0.0,0.0,0.0,0.0,0.0,0.0,0.0,0.0,0.0,0.0,0.0,8.5249,8.4614,8.3896,8.3647,8.3891,8.3007,8.2905,8.3619,8.2905,8.283,8.3416,8.3901,8.3618,8.2826,8.3066,8.3033,8.2722,8.2523,8.3078,8.4132,8.5123,8.5747,8.5967,8.5196,8.4756,8.4389,0.0,0.0,0.0,0.0,0.0,0.0,0.0,0.0,0.0,0.0,0.0,0.0,0.0,0.0,0.0,0.0,0.0,0.0,0.0,0.0,1.5849,1.7729,1.8963,2.122,2.4559,2.5728,2.7688,3.0487,3.216,3.3291,3.3847,3.1687,3.0011,2.8769,2.6803,2.5558,2.4868,2.3028,2.271,2.3434,0.0,0.0,0.0,0.0,0.0,0.0,0.0,0.0,0.0,0.0,0.0,0.0,0.0,0.0,3.2254,3.0514,3.1267,3.2836,3.3468,3.5717,3.7976,3.8303,3.7768,3.832,4.3001,4.314,4.314,4.6292,4.793,4.9249,0.0,5.7793,6.6061,7.3998,0.0,0.0,0.0,0.0,0.0,0.0,0.0,0.0,0.0,0.0,0.0,0.0,0.0,0.0,0.0,0.0,0.0,8.4614,8.3896,8.402,8.5062,8.3659,8.3337,8.4039,8.3337,8.3543,8.4553,8.4246,8.4057,8.3903,8.2766,8.2278,8.2198,8.1428,8.1644,8.2517,8.4095,8.56,8.6811,8.6004,8.5233,8.4499,0.0,0.0,0.0,0.0,0.0,0.0,0.0,0.0,0.0,0.0,0.0,0.0,0.0,0.0,0.0,0.0,0.0,0.0,0.0,0.0,1.6722,1.8644,2.0223,2.2213,2.475,2.7595,3.0407,3.3147,3.4126,3.4176,3.3366,3.1135,2.917,2.7405,2.5954,2.451,2.3062,2.2317,2.1886,2.1661,2.1279,0.0,0.0,0.0,0.0,0.0,0.0,0.0,0.0,0.0,2.965,2.9507,2.9719,3.0292,3.074,3.0011,3.1119,3.2669,3.2935,3.6202,3.9609,4.0163,4.0576,4.1637,4.4812,4.6142,4.748,5.0384,5.1708,0.0,0.0,0.0,7.0907,7.5691,0.0,0.0,0.0,0.0,0.0,0.0,0.0,0.0,0.0,0.0,0.0,0.0,0.0,0.0,0.0,0.0,0.0,8.4948,8.3831,8.3741,8.4884,8.3876,8.3863,8.4853,8.3348,8.3217,8.4291,8.3661,8.3211,8.289,8.2405,8.1929,8.1415,8.1122,8.1782,8.3067,8.4168,8.527,8.6114,8.4792,8.4115,8.3748,0.0,0.0,0.0,0.0,0.0,0.0,0.0,0.0,0.0,0.0,0.0,0.0,0.0,0.0,0.0,0.0,0.0,0.0,1.457,1.558,1.7082,1.9208,2.0796,2.2879,2.5528,2.9051,3.1863,3.39,3.4653,3.4076,3.2265,3.0382,2.8635,2.702,2.5966,2.4531,2.2936,2.2786,2.1982,2.084,2.132,2.2528,0.0,0.0,0.0,0.0,0.0,0.0,0.0,0.0,2.9132,2.8781,2.9553,3.0011,3.0177,2.9876,3.119,3.2723,3.2626,3.5805,3.9409,4.0487,4.2372,4.4715,4.7766,4.9224,5.1013,5.488,5.6158,5.7952,6.2518,0.0,0.0,0.0,0.0,0.0,0.0,0.0,0.0,0.0,0.0,0.0,0.0,0.0,0.0,0.0,0.0,0.0,0.0,0.0,0.0,0.0,8.3636,8.3595,8.4453,8.3747,8.4083,8.5425,8.3586,8.3246,8.4209,8.3157,8.2348,8.1782,8.1269,8.0901,8.0608,8.0608,8.1709,8.3491,8.4572,8.5159,8.527,8.3895,8.3381,8.3271,0.0,0.0,0.0,0.0,0.0,0.0,0.0,0.0,0.0,0.0,0.0,0.0,0.0,0.0,0.0,0.0,0.0,0.0,1.41,1.4927,1.6579,1.9193,2.031,2.2895,2.715,2.9949,3.1637,3.2194,3.3345,3.2767,3.0563,2.9434,2.8605,2.8042,2.7045,2.6003,2.4959,2.4505,2.3099,2.1351,2.2888,2.4164,0.0,0.0,0.0,0.0,0.0,0.0,0.0,0.0,2.8555,2.8298,2.9428,3.0457,3.1026,3.0081,3.1379,3.303,3.2719,3.4531,3.7002,3.899,4.2432,4.6732,5.2085,5.2217,5.312,5.9757,6.1485,6.2672,6.5611,6.9611,0.0,0.0,0.0,0.0,0.0,0.0,0.0,0.0,0.0,0.0,0.0,0.0,0.0,0.0,0.0,0.0,0.0,0.0,0.0,0.0,8.3314,8.367,8.3973,8.3292,8.3901,8.58,8.4168,8.3821,8.4535,8.292,8.1746,8.0901,7.9286,7.9082,7.9816,7.9816,8.1232,8.3564,8.5159,8.527,8.4499,8.3675,8.3381,8.3271,0.0,0.0,0.0,0.0,0.0,0.0,0.0,0.0,0.0,0.0,0.0,0.0,0.0,0.0,0.0,0.0,0.0,0.0,1.5011,1.5259,1.6579,1.9193,1.9977,2.1612,2.4283,2.6733,2.9547,3.2839,3.2742,3.1566,2.9408,2.9038,2.8244,2.705,2.7167,2.6449,2.5099,2.4543,2.3561,2.2456,2.3207,2.3705,2.419,0.0,0.0,0.0,0.0,0.0,0.0,0.0,0.0,0.0,2.9428,3.0778,3.1766,3.1007,3.2517,3.4307,3.3728,3.6342,4.0052,4.3408,4.6528,5.0373,5.6629,5.6299,5.6469,6.2686,6.5638,6.7487,6.8822,0.0,0.0,0.0,0.0,0.0,0.0,0.0,0.0,0.0,0.0,0.0,0.0,0.0,0.0,0.0,0.0,0.0,0.0,0.0,0.0,0.0,8.328,8.3491,8.4419,8.4218,8.4666,8.58,8.4168,8.3528,8.3711,8.2076,8.0608,7.9286,7.8809,7.9082,7.9926,8.1636,8.2757,8.3381,8.3287,8.3471,8.3601,8.2223,8.2076,8.2517,0.0,0.0,0.0,0.0,0.0,0.0,0.0,0.0,0.0,0.0,0.0,0.0,0.0,0.0,0.0,0.0,0.0,0.0,0.0,1.5503,1.6764,1.9193,1.9765,2.1299,2.4032,2.5879,2.8115,3.0803,3.0859,3.0111,2.858,2.9057,2.8629,2.754,2.8377,2.7856,2.6332,2.5957,2.5127,2.41,2.4738,2.4888,2.49,0.0,0.0,0.0,0.0,0.0,0.0,0.0,0.0,0.0,2.9428,3.0464,3.1239,3.1224,3.2172,3.3419,3.4198,3.6952,4.0678,4.5178,4.9078,5.3576,6.0237,6.0897,0.0,0.0,6.8168,7.0193,7.1727,7.4431,0.0,0.0,0.0,0.0,0.0,0.0,0.0,0.0,0.0,0.0,0.0,0.0,0.0,0.0,0.0,0.0,0.0,0.0,0.0,0.0,8.2142,8.231,8.27,8.2994,8.3581,8.4352,8.3398,8.2757,8.239,8.1122,7.9617,7.8112,7.8442,7.9082,7.9926,8.1709,8.2427,8.239,8.1929,8.2039,8.228,8.1012,8.1232,8.215,0.0,0.0,0.0,0.0,0.0,0.0,0.0,0.0,0.0,0.0,1.2449,0.0,0.0,0.0,0.0,0.0,0.0,0.0,0.0,0.0,1.7051,1.9216,1.9871,2.1769,2.5203,2.6278,2.6794,2.6756,2.808,2.8505,2.8047,2.9176,2.9428,2.8938,3.0086,2.9722,2.8255,2.8188,2.7295,2.6032,2.6999,2.7077,2.6726,2.7755,0.0,0.0,0.0,0.0,0.0,0.0,0.0,0.0,2.9453,2.9907,3.0196,3.0992,3.1118,3.1638,3.4456,3.6974,4.0166,4.5745,5.1369,5.7127,6.3108,6.5454,6.6775,6.813,0.0,7.1519,7.4313,0.0,0.0,0.0,0.0,0.0,0.0,0.0,0.0,0.0,0.0,0.0,0.0,0.0,0.0,0.0,0.0,0.0,0.0,0.0,0.0,7.9377,8.035,8.0534,7.9816,8.0534,8.1305,0.0,8.2076,8.1672,8.0865,8.0147,7.8883,7.7362,7.8222,7.8993,7.9743,8.0571,8.0901,8.0901,8.0828,8.0828,8.0791,8.0,8.0661,8.1856,0.0,0.0,0.0,0.0,0.0,0.0,0.0,0.0,0.0,0.0,0.0,0.0,0.0,0.0,0.0,0.0,0.0,0.0,0.0,0.0,1.7051,1.9216,2.1293,2.2497,2.2693,2.2951,2.294,2.267,2.6012,2.7587,2.7512,2.858,2.9032,2.8938,3.0086,3.0168,2.9394,2.8937,2.8096,2.7178,2.7712,2.7379,2.675,2.8176,2.8806,0.0,0.0,0.0,0.0,0.0,0.0,0.0,2.9578,3.0676,3.1664,3.1541,3.2706,3.4473,3.6367,3.9473,4.3948,5.1434,5.9261,6.5378,6.6359,6.758,6.8657,6.9084,7.2035,7.4902,0.0,0.0,0.0,0.0,0.0,0.0,0.0,0.0,0.0,0.0,0.0,0.0,0.0,0.0,0.0,0.0,0.0,0.0,0.0,0.0,0.0,7.9731,7.9925,8.0,7.9816,7.9963,8.0461,0.0,8.1269,8.0828,8.0073,7.989,7.8883,7.7362,7.8222,7.8699,7.8919,7.9743,8.0073,8.0,7.936,7.9507,7.9963,7.914,7.9486,8.0293,0.0,0.0,0.0,0.0,0.0,0.0,0.0,0.0,0.0,0.0,0.0,0.0,0.0,0.0,0.0,0.0,0.0,0.0,0.0,0.0,1.6872,1.9216,2.162,2.2405,2.129,2.1942,2.2094,2.1683,2.4232,2.5893,2.6715,2.8195,2.9057,2.9377,3.0211,3.0306,2.9754,2.9157,2.8792,2.8581,2.8519,2.8176,2.7758,2.8294,2.8505,2.8505,2.8574,0.0,0.0,0.0,0.0,0.0,0.0,0.0,3.0329,3.0878,3.2186,3.4024,3.6623,4.0865,4.6892,5.6478,6.3263,6.7655,6.8035,6.8918,6.9706,6.9785,7.2676,7.5405,0.0,0.0,0.0,0.0,0.0,0.0,0.0,0.0,0.0,0.0,0.0,0.0,0.0,0.0,0.0,0.0,0.0,7.8945,0.0,7.9734,7.952,7.9091,7.8753,7.8589,7.8589,7.9029,7.9433,7.9874,8.0241,7.9984,7.9229,7.8772,7.8148,7.7326,7.7766,7.8222,7.8589,7.8589,7.8846,7.9155,7.8295,7.8479,7.9103,7.8295,7.8736,7.9743,0.0,0.0,0.0,0.0,0.0,0.0,0.0,0.0,0.0,0.0,0.0,0.0,0.0,0.0,0.0,0.0,0.0,0.0,0.0,0.0,0.0,1.9076,2.1277,2.1837,2.0514,2.1688,2.2063,2.1529,2.277,2.4317,2.6057,2.7909,2.9132,2.9804,3.0256,3.0058,2.9391,2.9151,2.9207,2.9391,2.9151,2.9057,2.9007,2.8555,2.8323,2.8197,2.7738,2.7512,2.7512,2.7946,0.0,0.0,0.0,0.0,2.8373,2.9684,3.0811,3.2371,3.5769,4.1783,4.961,6.0026,6.4708,6.7131,6.8422,6.9282,6.9823,6.9958,7.236,0.0,0.0,0.0,0.0,0.0,0.0,0.0,0.0,0.0,0.0,0.0,0.0,0.0,0.0,0.0,0.0,0.0,0.0,7.8553,7.9894,7.8789,7.8011,7.7848,7.723,7.6959,7.7105,7.7818,7.8222,7.8369,7.9029,7.9103,7.8552,7.7693,7.7289,7.7289,7.7289,7.7693,7.8332,7.7582,7.7729,7.8295,7.7582,7.7729,7.8295,7.7582,7.817,7.925,0.0,0.0,0.0,0.0,0.0,0.0,0.0,0.0,0.0,0.0,0.0,0.0,0.0,0.0,0.0,0.0,0.0,0.0,1.3161,0.0,0.0,1.8648,2.0424,2.0969,2.0012,2.0581,2.0469,1.9658,2.1895,2.4086,2.6191,2.7561,2.8775,2.9804,2.9854,2.9128,2.7898,2.9151,2.8961,2.7917,2.917,2.9679,2.9679,2.9603,2.9252,2.8781,2.8706,2.838,2.7996,2.8072,2.8047,0.0,0.0,0.0,2.8203,2.8638,2.9787,3.1466,3.3927,4.2723,5.2882,5.9773,6.3735,6.6082,6.6939,6.7692,6.8402,0.0,7.1582,0.0,0.0,0.0,0.0,0.0,0.0,0.0,0.0,0.0,0.0,0.0,0.0,0.0,0.0,0.0,0.0,0.0,7.8516,7.8766,7.8258,7.7604,7.6906,7.6159,7.5533,7.5564,7.624,7.6387,7.6775,7.7472,7.7582,7.7949,7.8552,7.7693,7.7289,7.7289,7.7289,7.7362,7.7472,7.7362,7.7362,7.7472,7.7362,7.7362,7.7472,7.7362,7.7436,7.7619,0.0,0.0,0.0,0.0,0.0,0.0,0.0,0.0,0.0,0.0,0.0,0.0,0.0,0.0,0.0,1.164,1.167,1.1947,1.2617,1.4806,1.6402,1.7168,1.9306,2.0066,1.919,2.0109,2.0549,2.0473,2.2109,2.4434,2.7395,2.8535,2.9804,3.1135,3.0834,2.9989,2.8801,2.9155,2.8904,2.8338,2.903,2.9283,2.9258,2.8976,2.8499,2.7971,2.7645,0.0,0.0,0.0,2.7211,2.7261,2.7562,0.0,0.0,0.0,2.8789,3.1782,3.8274,4.4975,5.1629,5.785,6.0994,6.2753,6.3531,6.4613,6.5662,6.6406,0.0,0.0,0.0,0.0,0.0,0.0,0.0,0.0,0.0,0.0,0.0,0.0,0.0,0.0,0.0,0.0,0.0,0.0,7.9117,7.918,7.8302,7.7386,7.6489,7.5664,7.5167,7.483,7.4771,7.5212,7.5601,7.5968,7.5968,7.6371,7.7194,7.679,7.6885,7.7289,7.7289,7.7289,7.7289,7.7289,7.7289,7.7289,7.7289,7.7289,7.7289,7.7289,7.7289,7.7289,0.0,0.0,0.0,0.0,0.0,0.0,0.0,0.0,0.0,0.0,0.0,0.0,0.0,0.0,0.0,0.0,1.0602,1.1078,1.2186,1.3783,1.508,1.5916,1.7983,1.8966,1.8615,1.9705,2.0635,2.1403,2.2416,2.489,2.8734,2.9722,3.1286,3.3219,3.2089,3.0863,2.9598,2.9413,2.918,2.8958,2.8762,2.8706,2.8631,2.8097,2.7469,2.6859,2.6751,0.0,0.0,0.0,0.0,0.0,0.0,0.0,0.0,0.0,0.0,3.1213,4.0008,4.4462,4.8013,5.3883,5.7036,5.8952,5.992,0.0,6.2974,0.0,0.0,0.0,0.0,0.0,0.0,0.0,0.0,0.0,0.0,0.0,0.0,0.0,0.0,0.0,0.0,0.0,0.0,0.0,7.9333,7.9015,7.7907,7.6759,7.5512,7.4288,7.3898,7.3487,7.3083,7.4294,7.4903,7.4903,7.4903,7.5197,7.5799,7.6019,7.6423,7.6995,7.7215,7.7289,7.7289,7.7289,7.7289,7.7289,7.7289,7.7289,7.7289,7.7289,7.7289,7.7289,0.0,0.0,0.0,0.0,0.0,0.0,0.0,0.0,0.0,0.0,0.0,0.0,1.0649,1.0618,1.0602,1.0602,1.0602,1.0949,1.1779,1.2283,1.3445,1.5452,1.6451,0.0,1.858,1.9098,2.004,2.1403,2.2416,2.5273,2.9858,3.0857,3.3065,3.6055,3.3345,3.1042,2.9216,3.0129,2.9964,2.9024,2.8418,2.8147,2.8097,2.7562,0.0,0.0,0.0,0.0,0.0,0.0,0.0,0.0,0.0,0.0,0.0,0.0,0.0,0.0,3.4707,3.8549,4.206,4.716,5.1691,5.5264,5.6703,0.0,6.0999,0.0,0.0,0.0,0.0,0.0,0.0,0.0,0.0,0.0,0.0,0.0,0.0,0.0,0.0,0.0,0.0,0.0,0.0,0.0,7.9008,7.7869,7.6207,7.5028,7.3317,7.0928,7.0522,7.0697,7.1417,7.3729,7.4903,7.4903,7.4903,7.4903,7.4977,7.5763,7.613,7.6203,7.6959,7.7289,7.7289,7.7289,7.7289,7.7289,7.7289,7.7289,7.7289,7.7289,7.7289,7.7289,0.0,0.0,0.0,0.0,0.0,0.0,0.0,0.0,0.0,0.0,0.0,0.0,0.0,1.0602,1.0602,1.0602,1.0602,1.0713,1.1014,1.2092,1.3326,1.4672,1.6224,1.7543,1.858,1.9318,2.0561,2.234,2.2974,2.5541,2.9836,3.0198,3.1562,3.3671,3.3043,3.2151,3.1017,2.9974,2.9092,0.0,0.0,0.0,0.0,0.0,0.0,0.0,0.0,0.0,0.0,0.0,0.0,0.0,0.0,0.0,0.0,0.0,2.6173,2.784,3.3167,3.6034,3.8743,4.3795,4.7698,5.0678,5.2099,5.4944,5.7663,5.8932,0.0,0.0,0.0,0.0,0.0,0.0,0.0,0.0,0.0,0.0,0.0,0.0,0.0,0.0,0.0,0.0,0.0,0.0,0.0,7.5637,7.3402,7.2116,7.026,6.7798,6.8245,6.8935,6.9729,7.1138,7.1835,7.1835,7.2334,7.2848,7.3399,7.4735,7.5616,7.613,7.6959,7.7289,7.7289,7.7289,7.7289,7.7289,7.7289,7.7289,7.7289,7.7289,7.7289,7.7289,0.0,0.0,0.0,0.0,0.0,0.0,0.0,0.0,0.0,0.0,0.0,0.0,0.0,0.0,1.0602,1.0602,1.0602,1.0713,1.0982,1.2092,1.3309,1.4656,1.6064,1.7321,1.8383,1.8966,2.0231,2.2209,2.2787,2.5098,2.9035,2.9568,3.0758,3.2516,3.2537,3.239,3.2093,0.0,0.0,2.9076,0.0,0.0,2.6984,0.0,0.0,0.0,0.0,0.0,0.0,0.0,0.0,0.0,0.0,0.0,0.0,0.0,0.0,2.6989,3.1303,3.3485,3.5725,4.0814,4.3699,4.6085,4.8945,5.18,5.4221,5.565,0.0,0.0,0.0,0.0,0.0,0.0,0.0,0.0,0.0,0.0,0.0,0.0,0.0,0.0,0.0,0.0,0.0,0.0,0.0,0.0,7.1138,6.9949,6.8289,6.5921,6.6269,6.715,6.8495,6.9302,6.9816,7.011,7.066,7.1321,7.2151,7.3472,7.4683,7.5726,7.6555,7.7069,7.7289,7.7289,7.7289,7.7289,7.7289,7.7289,7.7289,7.7289,7.7289,7.7289,0.0,0.0,0.0,0.0,0.0,0.0,0.0,0.0,0.0,1.0089,0.0,0.0,0.0,0.0,0.0,1.0708,1.0708,1.1042,1.181,1.2251,1.3381,1.5434,1.5915,1.6702,1.7974,1.8027,1.894,2.0801,2.1763,2.4032,2.7473,2.9029,3.0909,3.2964,3.1838,3.1662,3.2114,0.0,3.1361,3.113,0.0,2.7185,2.8147,0.0,0.0,0.0,2.9145,2.8693,0.0,0.0,0.0,0.0,0.0,0.0,0.0,0.0,0.0,0.0,0.0,0.0,0.0,3.7807,3.9613,4.1675,4.7294,0.0,5.0807,5.3668,0.0,0.0,0.0,0.0,0.0,0.0,0.0,0.0,0.0,0.0,0.0,0.0,0.0,0.0,0.0,0.0,0.0,0.0,7.3846,7.1857,6.9426,6.8642,6.7319,6.5204,6.442,6.5167,6.7517,6.8385,6.9192,7.0,7.0,7.0477,7.1307,7.2129,7.3377,7.494,7.5763,7.6555,7.7289,7.7289,7.7289,7.7289,7.7289,7.7289,7.7289,7.7289,7.7289,7.7289,0.0,0.0,0.0,0.0,0.0,0.0,0.0,0.0,1.0653,0.0,0.0,0.0,1.2775,1.3075,1.3283,1.3283,1.3283,1.3364,1.3591,1.3883,1.4631,1.5883,1.6264,1.6949,1.7991,1.8613,1.9542,2.0801,2.2354,2.4205,2.6293,2.7848,2.9327,3.0728,3.0783,3.0683,3.0457,3.0326,0.0,3.116,2.8649,2.8323,0.0,0.0,0.0,0.0,0.0,2.7688,2.7261,0.0,2.6992,2.7067,0.0,0.0,0.0,0.0,0.0,0.0,2.9771,0.0,0.0,0.0,0.0,0.0,0.0,0.0,0.0,5.0461,0.0,0.0,0.0,0.0,0.0,0.0,0.0,0.0,0.0,0.0,0.0,0.0,0.0,0.0,0.0,0.0,0.0,0.0,7.1492,6.9826,6.7432,6.4352,6.2351,6.1777,6.2108,6.2879,6.415,6.5582,6.6696,6.7504,6.8104,6.9082,7.0477,7.1872,7.3377,7.494,7.5763,7.6555,7.7289,7.7289,7.7289,7.7289,7.7289,7.7289,7.7289,7.7289,7.7289,7.7289,0.0,0.0,0.0,0.0,0.0,0.0,1.1666,1.19,1.2171,0.0,0.0,0.0,1.3864,1.4614,1.4883,1.4345,1.4446,1.4629,1.4803,1.5099,1.5678,1.6599,1.6992,1.7535,1.8227,1.8752,1.9469,2.0428,2.2313,2.3786,2.4893,2.7078,2.8448,2.9126,2.9905,3.0105,2.9804,0.0,0.0,0.0,2.8725,0.0,0.0,2.8718,2.8341,0.0,0.0,0.0,2.9151,2.8021,2.7695,0.0,0.0,0.0,0.0,0.0,0.0,0.0,0.0,0.0,0.0,0.0,0.0,0.0,3.9463,4.197,0.0,0.0,0.0,0.0,0.0,0.0,0.0,0.0,0.0,0.0,0.0,0.0,0.0,0.0,0.0,0.0,0.0,7.1211,7.066,6.9853,6.9045,6.754,6.5081,6.1728,6.004,6.037,6.0529,6.1153,6.2291,6.36,6.4664,6.5521,6.6659,6.7884,6.9169,7.077,7.2569,7.4441,7.5249,7.6261,7.7289,7.7289,7.7289,7.7289,7.7289,7.7289,7.7289,7.7289,7.7289,7.7289,0.0,0.0,0.0,1.3932,1.418,1.4216,1.3703,1.3841,1.4032,0.0,1.4186,1.444,1.4932,1.5946,1.6137,1.5017,1.5223,1.5545,1.5904,1.6265,1.6805,1.7581,1.7949,1.8303,1.8676,1.8715,1.9124,1.9903,2.1955,2.3176,2.3652,2.6682,2.8147,2.8247,0.0,0.0,0.0,0.0,0.0,2.8781,2.8448,2.9327,0.0,0.0,3.0934,0.0,3.1938,3.2093,3.1738,2.9334,2.8084,0.0,0.0,0.0,0.0,0.0,2.9204,0.0,0.0,0.0,0.0,0.0,0.0,0.0,3.8122,3.9186,3.9536,0.0,0.0,0.0,0.0,0.0,0.0,0.0,0.0,0.0,0.0,0.0,0.0,0.0,0.0,0.0,6.9155,6.8641,6.7944,6.7223,6.6402,6.5007,6.2793,6.0444,5.949,6.0126,5.9526,5.9893,6.13,6.2132,6.2988,6.3841,6.5367,6.6589,6.7629,6.9228,7.1323,7.3744,7.4551,7.5821,7.7289,7.7289,7.7289,7.7289,7.7289,7.7289,7.7289,7.7289,7.7289,7.7289,0.0,0.0,0.0,1.4496,1.4499,1.4566,1.5014,1.5223,1.5544,1.6144,1.7372,1.8477,1.9277,1.9259,1.9087,1.8839,1.8591,1.8455,1.8539,1.8634,1.8763,1.8906,1.8984,1.9082,1.916,1.9474,1.9727,1.9903,2.2241,2.3656,2.4206,2.687,2.8329,2.8737,2.8982,0.0,0.0,0.0,0.0,2.8348,2.9151,0.0,3.2462,3.109,3.0934,3.1411,3.1512,3.1562,3.1508,0.0,3.026,2.9214,0.0,0.0,0.0,0.0,0.0,0.0,0.0,0.0,0.0,0.0,0.0,0.0,3.6177,3.7557,3.8874,0.0,0.0,0.0,0.0,0.0,0.0,0.0,0.0,0.0,0.0,0.0,0.0,0.0,0.0,0.0,6.4114,6.4077,6.393,6.3783,6.3025,6.2328,6.1851,6.015,5.8976,5.8474,5.8939,5.9343,5.9673,6.0481,6.1284,6.2114,6.3014,6.4548,6.67,6.8301,7.0753,7.3744,7.4551,7.5821,7.7289,7.7289,7.7289,7.7289,7.7289,7.7289,7.7289,7.7289,7.7289,7.7289,0.0,0.0,1.4805,1.5913,1.6161,0.0,1.754,1.759,1.7778,1.8596,1.9811,2.0605,2.0605,2.0781,2.0625,1.9962,1.9727,1.9512,0.0,1.9315,1.9315,1.9315,1.9315,1.9375,1.959,1.9805,2.0019,2.0253,2.2416,2.3772,2.4359,2.69,2.8097,2.8147,2.8976,2.8881,0.0,0.0,2.9202,2.9001,2.9553,0.0,3.1763,3.0914,3.0934,3.1457,3.1712,3.2133,3.2475,3.1712,3.1729,0.0,0.0,3.1536,3.2657,0.0,3.317,3.3705,0.0,0.0,0.0,3.5633,0.0,0.0,0.0,3.5851,3.6431,3.6593,3.6343,3.6665,3.8437,0.0,0.0,0.0,0.0,0.0,0.0,0.0,0.0,0.0,0.0,0.0,6.0236,6.0774,6.1178,6.1582,6.086,6.0419,6.0419,5.9269,5.8437,5.7997,5.84,5.8609,5.8609,5.9042,5.9481,5.9885,6.1473,6.304,6.4759,6.7571,7.0194,7.2569,7.378,7.5212,7.6702,7.6702,7.6922,7.7289,7.7289,7.7289,7.7289,7.7289,7.7289,7.7289,1.4916,0.0,1.5703,1.7031,1.7676,1.8401,1.9591,1.957,1.9745,2.0605,2.1485,2.1778,2.1153,0.0,0.0,0.0,2.0137,1.9863,0.0,0.0,0.0,1.955,1.955,1.9648,1.9883,2.0,2.0254,2.0723,2.2692,2.397,2.4652,2.7095,2.8072,2.7839,2.8869,2.8976,2.8473,0.0,0.0,2.9804,0.0,3.0131,3.0588,3.0588,3.0934,3.1502,3.2237,3.2977,3.347,3.2384,0.0,3.4245,3.173,3.2767,0.0,0.0,0.0,0.0,0.0,0.0,0.0,0.0,0.0,3.7147,0.0,0.0,0.0,3.4203,3.3738,3.388,3.5685,3.7062,0.0,0.0,0.0,0.0,0.0,0.0,0.0,0.0,0.0,0.0,0.0,5.7655,5.8499,5.96,5.8829,5.8499,5.8939,5.8364,5.7997,5.7997,5.7997,5.7939,5.7785,5.7844,5.7804,5.7666,5.9891,6.1572,6.2803,6.6666,6.9457,7.138,7.301,7.4588,7.6093,7.6093,7.6497,7.7069,7.7252,7.7289,7.7289,7.7289,7.7289,7.7289,1.5337,1.5078,0.0,1.6566,1.7464,1.832,1.9219,1.9629,2.0137,2.1015,2.1893,2.2518,0.0,0.0,0.0,0.0,0.0,0.0,2.2621,0.0,0.0,2.0429,2.0449,2.0273,1.9903,2.0312,2.0703,2.1132,2.3186,2.4703,2.5684,2.7805,2.9057,2.9453,2.8165,0.0,0.0,0.0,2.8442,0.0,2.9804,3.0131,0.0,3.0588,3.0934,3.1579,3.3086,3.3317,3.3256,0.0,3.5604,3.5131,0.0,3.5614,0.0,0.0,0.0,0.0,0.0,0.0,0.0,0.0,3.9247,0.0,0.0,0.0,3.4864,3.2944,0.0,3.3262,3.5851,0.0,0.0,0.0,0.0,0.0,0.0,0.0,0.0,0.0,0.0,0.0,0.0,5.3838,5.4792,5.7031,5.5794,5.5868,5.8033,5.8033,5.7997,5.7997,5.7997,5.7691,5.7027,5.701,5.669,5.5966,5.763,5.9612,6.1946,6.5215,6.8386,7.138,7.301,7.4588,7.6093,7.6093,7.6166,7.6313,7.7032,7.7289,7.7289,7.7289,7.7289,7.7289,1.5396,1.5259,0.0,1.6875,1.7402,1.8184,1.9804,2.125,2.2207,2.2344,2.332,0.0,0.0,0.0,0.0,0.0,0.0,2.1777,0.0,0.0,0.0,0.0,0.0,0.0,0.0,2.084,2.1035,2.119,2.3272,2.4816,2.5864,2.7926,2.8856,2.88,2.8398,0.0,2.8825,0.0,2.917,0.0,0.0,0.0,0.0,3.0462,3.1512,3.2881,3.3519,3.459,3.5589,0.0,3.5886,0.0,0.0,0.0,0.0,0.0,0.0,0.0,0.0,0.0,0.0,0.0,0.0,0.0,0.0,0.0,3.4427,0.0,0.0,0.0,0.0,0.0,0.0,0.0,3.5941,0.0,0.0,0.0,0.0,0.0,0.0,0.0,0.0,0.0,0.0,0.0,5.3555,5.4132,5.517,5.6088,5.6613,5.6613,5.6613,5.6486,5.6227,5.5727,5.5377,5.5092,5.6616,5.8423,6.0473,6.4107,6.7463,7.0531,7.2111,7.419,7.644,7.644,7.6553,7.6718,7.7037,7.6935,7.6665,7.7142,7.7289,7.7289,1.5766,0.0,0.0,0.0,0.0,1.8435,0.0,0.0,0.0,0.0,0.0,0.0,2.5796,2.5293,0.0,0.0,2.4519,2.3707,0.0,0.0,2.199,0.0,0.0,0.0,0.0,0.0,2.179,2.2029,2.3725,2.5037,2.6046,2.8145,2.8932,2.8574,0.0,2.9082,2.9051,0.0,3.0306,3.0507,3.1155,3.0913,3.0247,3.0636,3.1817,3.3357,3.3895,3.5325,3.6701,3.4778,3.6139,0.0,3.5429,0.0,0.0,0.0,0.0,0.0,3.8904,0.0,0.0,0.0,0.0,0.0,0.0,0.0,0.0,0.0,0.0,0.0,0.0,0.0,3.6453,0.0,0.0,3.4371,0.0,0.0,0.0,0.0,0.0,0.0,0.0,0.0,0.0,0.0,0.0,5.193,5.281,5.4179,5.5144,5.5585,5.5585,5.5537,5.5384,5.4772,5.4536,5.458,5.5929,5.7547,5.9502,6.2997,6.6184,6.9001,7.0833,7.3118,7.5555,7.578,7.5993,7.6179,7.6401,7.6053,7.5542,7.6335,7.6775,7.6959,1.6668,1.6348,0.0,0.0,0.0,0.0,0.0,0.0,0.0,0.0,0.0,0.0,0.0,0.0,0.0,0.0,0.0,2.6092,2.6972,0.0,2.3495,0.0,0.0,2.2871,0.0,0.0,0.0,2.4094,2.4834,2.5616,2.6543,2.8747,2.9754,2.9754,2.9754,3.0331,3.1306,3.1311,3.1637,3.2089,3.1587,3.1297,3.1175,0.0,3.1551,3.2319,3.4248,0.0,0.0,3.6729,3.6969,0.0,0.0,0.0,0.0,0.0,0.0,0.0,0.0,0.0,0.0,3.8497,0.0,0.0,0.0,0.0,3.6479,0.0,0.0,0.0,0.0,3.8328,3.7369,3.578,0.0,0.0,0.0,0.0,0.0,0.0,0.0,0.0,0.0,0.0,0.0,0.0,0.0,0.0,5.1877,5.2821,5.3995,5.5548,5.5585,5.5245,5.4566,5.4505,5.4496,5.4493,5.5336,5.7008,5.9384,6.1806,6.4237,6.6736,6.9123,7.112,7.2714,7.35,7.3817,7.3898,7.4654,7.4493,7.3854,7.4683,7.5469,7.613,0.0,0.0,0.0,0.0,0.0,0.0,0.0,2.3534,0.0,0.0,0.0,0.0,0.0,0.0,3.1971,0.0,0.0,3.0114,2.8253,2.7762,0.0,0.0,0.0,2.5869,0.0,0.0,0.0,0.0,0.0,2.5206,2.6524,2.7988,2.8668,2.8708,2.9443,3.0206,0.0,0.0,0.0,0.0,0.0,3.2006,3.3575,0.0,0.0,3.4122,3.5203,3.5997,0.0,3.6764,3.6926,3.7087,3.6923,3.7561,3.842,3.8468,3.9076,0.0,0.0,0.0,4.0168,3.8937,0.0,0.0,0.0,0.0,0.0,0.0,0.0,0.0,0.0,0.0,3.7094,3.4674,3.4483,0.0,0.0,0.0,0.0,0.0,0.0,0.0,0.0,0.0,0.0,0.0,0.0,0.0,0.0,5.0572,5.2123,5.3198,5.3739,5.3872,5.3652,5.3652,5.3649,5.3729,5.4512,5.5889,5.7781,6.0126,6.278,6.5575,6.8,7.0523,7.2948,7.3748,7.4188,7.4239,7.3916,7.3059,7.219,7.4047,7.4865,7.5172,2.0518,0.0,0.0,0.0,0.0,0.0,0.0,0.0,0.0,0.0,3.0774,0.0,3.5513,0.0,3.5482,0.0,3.4978,3.3599,3.0472,3.0787,0.0,2.737,2.8355,0.0,0.0,0.0,0.0,0.0,0.0,2.5534,2.6524,2.8008,2.8486,2.8148,2.9435,3.0228,3.0643,3.1352,3.1538,0.0,0.0,3.2018,0.0,0.0,3.3679,3.5761,0.0,3.6367,3.6716,3.6553,3.6596,3.6717,3.663,3.7458,3.8436,3.8499,3.9246,4.0045,3.9762,3.991,0.0,3.9186,3.8307,0.0,3.6931,0.0,0.0,0.0,0.0,0.0,0.0,0.0,0.0,3.4719,3.3884,0.0,0.0,3.2088,0.0,0.0,0.0,0.0,0.0,0.0,0.0,0.0,0.0,0.0,0.0,0.0,5.0435,5.1536,5.2627,5.335,5.3611,5.3345,5.3496,5.412,5.4641,5.5583,5.6951,5.9018,6.1342,6.3831,6.6008,6.8562,7.124,7.1987,7.2539,7.289,7.2519,7.1629,7.0817,7.2592,7.3822,7.4757,0.0,0.0,0.0,0.0,2.1592,0.0,0.0,0.0,3.0354,0.0,3.2912,3.4651,3.6423,3.6246,3.6231,3.6855,3.7411,0.0,3.3645,3.4365,0.0,0.0,3.0383,2.9906,2.7912,0.0,0.0,0.0,0.0,0.0,2.6545,2.8712,2.9106,2.8095,2.9698,0.0,3.0678,3.1651,3.1801,3.1311,3.0809,3.1451,3.2749,3.2676,3.452,3.7052,3.6696,3.6088,3.5609,3.6314,3.6088,3.5651,3.6399,3.7174,3.7791,3.7904,3.8959,3.9943,3.9254,3.9559,3.9943,3.922,0.0,0.0,0.0,0.0,3.8836,0.0,0.0,0.0,0.0,0.0,0.0,3.5847,3.4381,3.3097,0.0,0.0,0.0,0.0,0.0,0.0,0.0,0.0,0.0,0.0,0.0,0.0,0.0,0.0,4.9067,5.0765,5.2407,5.3654,5.4436,5.3691,5.4106,5.5585,5.5585,5.6014,5.6847,5.8425,6.0003,6.1557,6.3257,6.5299,6.7519,6.8235,6.9016,6.9853,7.031,7.0148,6.9689,7.0539,7.2424,7.4774,2.2533,2.2461,2.2743,0.0,2.4144,2.5073,0.0,0.0,0.0,0.0,3.6452,3.8524,4.1006,4.1191,4.0841,4.0166,4.0673,0.0,0.0,0.0,0.0,3.3218,3.3837,3.3424,3.1746,3.0287,0.0,2.9762,0.0,0.0,2.6524,2.7907,2.7947,2.7019,2.9455,3.0577,3.0643,3.1303,3.1269,3.0789,3.0638,3.2299,0.0,0.0,3.5625,3.8638,3.7558,3.6447,3.5669,3.6806,3.6417,3.5748,3.7071,3.7616,3.8048,3.9168,3.9792,4.0079,3.9876,3.9977,4.0032,3.9863,3.9423,3.8916,0.0,0.0,0.0,0.0,0.0,0.0,0.0,0.0,0.0,0.0,0.0,0.0,0.0,0.0,0.0,0.0,0.0,0.0,0.0,0.0,0.0,0.0,0.0,0.0,0.0,0.0,0.0,5.0765,5.2931,5.4473,5.5291,5.5108,5.5181,5.5585,5.5585,5.6014,5.6811,5.785,5.8877,5.9906,6.1537,6.2921,6.417,6.5473,6.6815,6.7946,6.6992,6.7199,6.8306,7.0782,7.2492,7.3833,2.4026,0.0,0.0,2.7246,0.0,0.0,3.0548,0.0,0.0,3.7092,3.886,0.0,4.2103,4.2685,4.2534,4.1403,4.1831,0.0,0.0,0.0,0.0,3.6088,3.5928,3.5127,3.3492,3.1277,0.0,3.0256,0.0,0.0,2.7218,2.8327,2.8247,2.7261,2.9024,3.0123,3.0613,3.0934,3.1009,3.0909,3.0457,0.0,0.0,3.3294,3.4939,3.7476,3.7416,3.6956,3.6447,3.7148,3.6746,3.6158,3.7404,3.7807,3.8108,3.9636,4.0113,4.0113,4.0113,4.0113,4.0113,4.0113,3.9795,3.9389,3.9085,3.9309,3.95,0.0,0.0,0.0,0.0,0.0,0.0,0.0,0.0,0.0,0.0,0.0,0.0,0.0,0.0,0.0,0.0,0.0,0.0,0.0,0.0,0.0,0.0,0.0,0.0,4.884,5.2174,5.4337,5.5093,5.577,5.5941,5.5585,5.5952,5.6345,5.6811,5.7629,5.8248,5.8761,5.9684,6.055,6.1407,6.2518,6.3932,6.5251,6.4679,6.5256,6.6778,6.9547,7.1944,7.4029,0.0,0.0,0.0,0.0,0.0,0.0,0.0,3.5464,0.0,3.9019,0.0,4.1654,4.1453,4.2308,4.2459,4.1403,0.0,4.1331,3.9346,4.0099,3.9922,3.8391,3.7311,3.5979,3.4374,3.1509,0.0,0.0,0.0,0.0,2.8124,2.9268,2.9184,2.8128,2.8685,2.9513,0.0,3.0487,3.0758,3.113,3.0181,3.0362,3.1323,3.2445,3.3818,3.5351,3.7048,3.7537,3.7417,3.7494,3.7075,3.6655,3.749,3.7784,3.8094,3.9519,4.0003,4.0113,4.0113,4.0113,4.0113,4.0113,4.0113,3.9943,3.9288,3.9153,3.9153,3.9153,3.9153,3.9322,0.0,0.0,0.0,0.0,0.0,0.0,0.0,0.0,0.0,0.0,0.0,0.0,0.0,0.0,0.0,0.0,0.0,0.0,0.0,0.0,0.0,4.6672,5.0951,5.3845,5.5098,0.0,5.655,5.6085,5.647,5.6643,5.6679,5.7385,5.774,5.7804,5.777,5.8223,5.8961,5.9675,6.0841,6.2247,6.3047,6.3997,6.5207,6.7533,7.0809,7.4339,0.0,0.0,0.0,0.0,0.0,3.6296,3.8141,3.9568,4.0549,4.0851,4.2707,4.3539,4.2185,4.221,4.206,4.1378,4.1831,0.0,0.0,0.0,0.0,4.0073,3.9019,3.7889,3.6658,3.392,3.225,0.0,0.0,0.0,2.8124,2.9268,2.9184,2.8124,2.9165,2.9754,2.993,2.993,0.0,3.0055,2.988,3.0362,3.1421,3.3467,3.4915,3.6128,3.8282,3.8344,3.7477,3.8033,3.7451,3.663,3.7388,3.7721,3.798,3.884,3.9584,4.0113,4.0113,4.0113,4.0113,4.0113,4.0113,4.0079,3.9943,3.991,3.991,3.991,3.991,3.9762,3.9288,0.0,0.0,0.0,0.0,0.0,0.0,0.0,0.0,0.0,0.0,0.0,0.0,0.0,0.0,0.0,0.0,0.0,0.0,0.0,0.0,0.0,5.1038,0.0,0.0,0.0,5.7489,5.8637,5.677,5.5886,5.5886,5.6029,5.6116,5.6127,5.6109,5.6218,5.6463,5.7774,5.8919,6.0083,6.1902,6.2934,6.3726,6.5863,6.8858,7.2292,0.0,0.0,0.0,0.0,0.0,0.0,0.0,4.2158,0.0,4.1882,4.2685,4.2838,4.1482,4.2085,4.2258,4.1378,4.2108,4.2261,4.1378,4.1605,4.1379,4.0551,3.9747,0.0,3.7235,3.4497,3.2792,3.2194,0.0,0.0,2.9008,2.9546,2.9527,2.9008,2.9566,3.0105,0.0,0.0,0.0,3.0583,3.0005,3.0062,3.0717,3.2772,3.4249,3.5565,3.763,3.8404,3.8434,3.8392,3.7973,3.7558,3.7981,3.792,3.7844,3.8624,3.886,3.8914,3.8914,3.8914,3.8995,3.9368,3.9493,3.9597,3.999,4.0113,4.0113,4.0113,4.0113,3.9863,3.9153,3.87,0.0,0.0,0.0,0.0,0.0,0.0,0.0,0.0,0.0,0.0,0.0,0.0,0.0,0.0,0.0,0.0,0.0,0.0,0.0,0.0,0.0,0.0,0.0,0.0,0.0,5.68,5.6496,5.6311,5.6347,5.6707,5.6453,5.5699,5.5702,5.5255,5.4679,5.657,5.7668,5.8358,5.9976,6.1428,6.2786,6.445,6.7688,7.1637,0.0,3.3896,0.0,0.0,3.8492,0.0,4.1961,4.3664,4.4292,4.2889,4.2713,4.2235,4.1003,4.1932,4.2283,4.1378,4.2133,4.2308,4.1528,4.1806,4.1632,4.07,4.0049,3.8969,3.7387,3.4798,3.3093,0.0,0.0,0.0,0.0,2.9804,2.9729,0.0,0.0,0.0,0.0,0.0,3.0281,3.1004,3.0131,2.9914,3.0292,3.2109,3.3677,3.5142,3.6951,3.8374,3.9331,3.8781,3.8512,3.8425,3.8516,3.8218,3.7903,3.8413,3.8285,3.7985,3.7839,3.7807,3.7951,3.8525,3.8663,3.8867,3.9662,3.985,3.9901,4.0041,4.0113,3.9863,3.9153,3.9119,0.0,0.0,0.0,0.0,0.0,0.0,0.0,0.0,0.0,0.0,0.0,0.0,0.0,0.0,0.0,0.0,0.0,0.0,0.0,0.0,0.0,5.119,5.3266,0.0,5.6256,0.0,5.642,5.6871,5.6906,5.7471,5.7077,5.5912,5.5775,5.5122,5.4329,5.6089,5.7014,5.7428,5.8392,6.0087,6.2142,6.3295,6.6653,7.0793,0.0,0.0,0.0,0.0,0.0,0.0,0.0,4.4044,4.5171,4.4493,4.4364,4.379,4.221,4.1706,4.1428,4.1327,4.1403,4.1656,4.2085,4.1656,4.1352,4.1227,4.0249,3.9145,3.7965,3.573,3.4048,0.0,0.0,0.0,0.0,0.0,0.0,0.0,0.0,0.0,0.0,2.9603,2.9854,2.993,2.9829,3.0305,3.1265,3.2873,3.4494,3.6061,3.773,3.8781,3.9391,3.9331,3.8901,3.838,3.8407,3.8473,3.8394,3.7871,3.8196,3.8563,3.7967,3.7807,3.7822,3.7894,3.7908,3.809,3.884,3.9002,3.9222,3.9952,4.0113,3.9863,3.9153,3.9559,3.9774,0.0,0.0,0.0,0.0,0.0,0.0,0.0,0.0,0.0,0.0,0.0,0.0,0.0,0.0,0.0,0.0,0.0,0.0,4.5386,0.0,5.2164,5.6445,5.6027,5.6798,5.8738,5.7415,5.681,5.681,5.6878,5.6825,5.6653,5.5991,5.599,5.6528,5.6697,5.7218,5.7855,5.7946,5.9513,6.175,6.2584,6.5088,6.8361,0.0,0.0,0.0,0.0,0.0,0.0,0.0,4.389,4.4392,4.4166,4.4141,4.3639,4.2336,4.1984,4.1831,4.1831,4.1503,4.1679,4.2612,4.1804,4.1302,4.1302,4.0575,3.9672,3.8542,3.6684,3.5027,0.0,0.0,0.0,0.0,0.0,0.0,0.0,0.0,2.9509,2.9935,3.0161,3.0457,3.0758,3.0758,3.079,3.1081,3.3232,3.4511,3.5455,3.763,3.8841,3.9391,3.9391,3.9212,3.902,3.902,3.877,3.8429,3.8172,3.7783,3.7353,3.7107,3.6738,3.6523,3.698,3.7069,3.7411,3.8635,3.8894,3.9143,3.994,4.0113,4.0011,3.9694,3.991,4.0011,0.0,0.0,0.0,0.0,0.0,0.0,0.0,0.0,0.0,0.0,0.0,0.0,0.0,0.0,0.0,0.0,0.0,0.0,4.4142,0.0,5.0071,5.4162,5.5205,5.6389,5.7773,5.7995,5.81,5.81,5.81,5.7645,5.6765,5.6003,5.6105,5.6799,5.6799,5.7239,5.7988,5.9024,6.0611,6.2486,6.378,6.6316,6.9279,3.8642,0.0,3.927,0.0,4.1379,4.1957,4.3338,4.3689,4.374,4.3589,4.3413,4.3039,4.2288,4.1884,4.1708,4.1708,4.1329,4.1403,4.2208,4.1503,4.1076,4.1076,4.0549,0.0,3.8919,3.7412,3.5906,3.4352,3.3093,0.0,0.0,0.0,0.0,0.0,2.9509,2.986,3.0613,3.0783,3.106,3.1406,3.1406,3.1342,3.1431,3.3227,3.4281,3.5096,3.7175,3.8352,3.8925,3.8925,3.8825,3.872,3.902,3.8781,3.838,3.8153,3.7345,3.6493,3.6493,3.5998,3.5619,3.6149,3.629,3.6631,3.793,3.8414,3.8854,3.9889,4.0113,4.0113,4.0113,4.0113,4.0113,4.0113,0.0,0.0,0.0,0.0,0.0,0.0,3.2129,3.0514,2.946,0.0,0.0,0.0,0.0,0.0,0.0,0.0,0.0,0.0,0.0,0.0,0.0,5.4491,5.5972,5.7457,5.8395,5.895,5.9132,5.8589,5.7692,5.66,5.6045,5.6327,5.7137,5.7137,5.7408,5.8076,5.9771,6.1363,6.2975,6.4609,6.6996,6.9412,4.0123,4.0449,4.1003,4.2688,4.3388,4.3589,4.309,4.3438,4.3614,4.309,4.2537,4.2213,4.2213,4.1178,4.0499,4.0499,4.0499,4.0499,4.0524,4.0499,4.0499,0.0,0.0,3.9472,3.8894,3.7788,3.6634,3.5483,0.0,0.0,3.1381,0.0,2.9804,2.9804,3.0357,3.0588,3.0638,3.116,3.1386,3.1406,3.1406,3.1943,3.2765,3.281,3.3841,3.5424,3.6446,3.7248,3.7824,3.7824,3.7467,3.7197,3.8127,3.8409,3.8272,3.7614,3.6985,3.6493,3.6493,3.5998,3.5519,3.5489,3.5489,3.5702,3.6461,3.7233,3.8264,3.9786,4.0113,4.0113,4.0113,4.0113,4.0113,4.0113,0.0,0.0,0.0,0.0,0.0,0.0,3.4451,3.3072,2.9651,0.0,0.0,0.0,0.0,0.0,0.0,0.0,0.0,4.4383,4.8089,0.0,5.4532,5.4213,5.5694,5.8979,5.864,5.8835,5.9412,5.7549,5.6534,5.6191,5.6191,5.6835,5.79,5.79,5.79,5.8076,5.9771,6.1363,6.2975,6.4609,6.6268,6.7847,3.9848,4.0249,4.065,4.1204,4.2085,4.2637,4.2462,4.2914,4.319,4.3039,4.2183,4.1605,4.1605,4.0926,4.065,0.0,4.0374,4.0275,0.0,4.0349,4.0124,4.0474,3.9998,3.9622,3.9446,3.8316,3.7211,3.613,0.0,0.0,0.0,3.1788,3.1235,3.0904,3.106,3.1361,3.1717,3.229,3.2562,3.2562,3.2562,3.2499,3.2521,3.366,3.4186,3.4464,3.5886,3.6534,3.6702,3.6702,3.6348,3.5996,3.6519,3.6744,3.6951,3.7828,3.7614,3.7105,3.7105,3.6656,3.6178,3.6178,3.5848,3.5806,3.7016,3.7934,3.8827,3.9889,4.0113,4.0113,4.0113,4.0113,4.0113,4.0113,3.966,0.0,0.0,0.0,0.0,0.0,0.0,3.0023,0.0,2.9844,0.0,0.0,0.0,0.0,0.0,0.0,0.0,0.0,4.5688,0.0,5.2365,5.3279,5.5136,5.7903,5.8303,5.8734,5.9161,5.9084,5.8402,5.7353,5.7353,5.7572,5.79,5.79,5.8587,5.9789,6.1415,6.3026,6.466,6.6282,6.7584,6.8568,3.9973,4.0275,4.0549,4.0775,4.1379,4.1856,4.1856,4.2336,4.2688,4.2688,4.2082,4.1528,4.1327,4.1001,0.0,4.07,4.0099,3.9998,4.065,4.0074,3.9848,4.0199,3.9873,3.9697,3.9697,0.0,0.0,3.7009,3.5782,3.4577,3.3391,3.2792,3.2466,3.234,3.234,3.2516,3.2867,3.3244,3.3291,3.309,3.309,3.2889,3.2651,3.3698,3.3866,3.3725,3.5123,3.5634,3.5634,3.5634,3.5254,3.4878,3.5181,3.5164,3.5404,3.7428,3.7554,3.7165,3.7644,3.7315,3.6776,3.6553,3.6357,3.6452,3.7386,3.8016,3.8551,3.9128,3.9467,3.9649,3.9649,3.9901,4.0113,4.0113,3.9491,3.8354,3.6503,0.0,0.0,0.0,0.0,0.0,0.0,3.1886,0.0,0.0,0.0,0.0,0.0,0.0,0.0,4.2163,4.5195,0.0,5.1421,5.1934,5.3672,5.6625,5.7575,5.8011,5.7978,5.856,5.8266,5.7279,5.758,5.7786,5.7918,5.8244,5.915,6.0579,6.249,6.4064,6.541,6.709,6.8031,6.8458,4.035,4.0424,0.0,0.0,4.1227,0.0,4.1225,4.1781,4.2213,4.2213,4.2213,4.1984,4.1428,4.1327,4.0901,3.9898,0.0,0.0,0.0,3.9722,3.9747,3.9697,3.9697,3.9697,3.9697,3.8592,3.7965,3.7889,3.583,3.4527,3.3997,3.3517,3.3495,3.3947,3.3947,3.3922,3.3897,3.3897,3.3571,3.309,3.314,3.314,3.3115,3.314,3.314,3.324,3.422,3.4594,3.4594,3.4594,3.4234,3.3874,3.4254,3.4029,3.4072,3.6662,3.7015,3.6823,3.808,3.7943,3.7345,3.6776,3.7045,3.7506,3.7647,3.7653,3.7732,3.7888,3.8483,3.896,3.896,3.9605,4.0079,4.0045,3.9356,3.8328,3.6771,0.0,0.0,0.0,0.0,0.0,0.0,3.5358,3.5837,0.0,0.0,0.0,0.0,0.0,4.1784,4.2918,4.6224,4.9057,5.1263,5.0308,5.1643,5.5245,5.6664,5.6968,5.6346,5.6868,5.6927,5.66,5.7382,5.7854,5.8205,5.8909,5.9764,6.0884,6.311,6.4578,6.5555,6.714,6.77,6.77,0.0,0.0,3.9923,4.0074,4.0399,4.0675,4.0675,4.1557,4.2213,4.2213,4.2213,4.2135,4.2009,4.1605,4.1202,4.0951,4.0926,4.0575,3.9747,4.0099,4.0124,3.9722,3.9697,3.9697,3.9697,3.8592,3.7588,3.6783,3.6256,3.5705,3.513,3.5004,3.4778,3.4502,3.4502,3.4276,3.3897,3.3897,3.3571,3.314,3.3567,3.3467,3.314,3.3545,3.3467,3.3133,3.3386,3.3471,3.3471,3.3471,3.3602,3.3947,3.4804,3.5199,3.5658,3.6988,3.7315,3.7375,3.8182,3.8272,3.8123,3.799,3.8063,3.8198,3.8323,3.8347,3.8542,3.9196,3.9516,3.9662,3.9662,3.99,3.991,3.9356,3.8171,3.6644,3.4638,3.4192,0.0,0.0,3.4267,3.4909,3.4738,3.5328,3.5777,0.0,0.0,0.0,0.0,4.2934,4.4584,4.3448,4.56,4.7471,4.9026,4.9549,5.1328,5.4326,5.7241,5.8254,5.7655,6.0151,6.0927,6.0309,6.0518,6.0634,6.0706,6.0269,6.132,6.3191,6.3776,6.5255,6.7154,6.7573,6.77,6.7811,3.9697,3.9697,3.9697,3.9697,3.9948,4.0149,4.0149,4.1078,4.1781,4.1781,4.2235,4.2462,4.2238,4.2135,4.1854,4.1352,4.1302,4.0951,4.0124,4.035,4.0275,3.9722,3.9697,3.9697,3.9697,3.8843,3.7889,3.6758,3.6531,3.623,3.5906,3.5906,3.5755,3.5479,3.5479,3.5152,3.4603,3.4352,3.3947,3.3467,3.3517,3.3366,3.3205,3.3973,3.3768,3.3154,3.3662,3.3513,3.3176,3.3683,3.3991,3.4426,3.5603,3.6162,3.6563,3.7562,3.7853,3.8003,3.8661,3.8871,3.8871,3.8871,3.8631,3.8442,3.8497,3.8507,3.8549,3.8689,3.903,3.9317,3.9408,3.9476,3.9198,3.8242,3.7643,3.6552,3.4407,3.4958,0.0,3.5489,3.6497,3.7329,3.7649,3.8329,3.8463,3.7878,0.0,0.0,4.0962,4.4403,4.5777,4.4364,4.6839,4.8512,4.9233,5.0282,5.152,5.3074,5.6474,5.788,5.7601,6.0727,6.1536,6.048,6.0866,6.0566,5.9919,6.0262,6.1382,6.3,6.375,6.5313,6.7187,6.7554,6.77,6.7811,3.9697,3.9697,3.9697,3.9697,3.9697,3.9697,3.9697,4.0524,4.1227,4.1275,4.2233,4.2738,4.2336,4.2738,4.261,4.1628,4.1478,4.1177,4.0524,4.0499,4.0275,3.9722,3.9697,3.9697,3.9697,3.9095,3.824,3.721,3.6658,3.6405,3.6405,3.6405,3.6405,3.6405,3.6405,3.6056,3.5458,3.5029,3.4452,3.3872,3.347,3.3241,3.3219,3.4387,3.422,3.3471,3.4553,3.4345,3.3725,3.4735,3.5174,3.5514,3.6732,3.7197,3.7521,3.843,3.8691,3.8811,3.9391,3.9631,3.969,3.969,3.92,3.8691,3.8691,3.8601,3.8392,3.7823,3.8246,3.8743,3.8788,3.8779,3.8395,3.7149,3.7378,3.7026,3.5121,0.0,3.8159,3.8916,3.9737,4.0548,4.1305,4.1813,4.1758,4.0857,4.232,4.3423,0.0,4.5632,4.6373,4.5773,4.8675,5.0294,5.0466,5.1306,5.181,5.2022,5.5306,5.696,5.72,6.0176,6.085,5.9667,6.0247,5.972,5.8558,5.987,6.0934,6.1936,6.3339,6.4953,6.6586,6.726,6.759,6.7811,3.9697,3.9697,3.9697,3.9697,3.9697,3.9697,3.9697,4.0249,4.0775,4.1225,4.1882,4.2462,4.2838,4.2964,4.2939,4.2735,4.2336,4.1632,4.0549,4.0499,4.0275,3.9722,3.9697,3.9697,3.9697,3.8668,3.7839,3.721,3.6658,3.6405,3.6405,3.6405,3.6405,3.6405,3.6405,3.6056,3.5483,3.5408,3.4803,3.3922,3.4276,3.3897,3.3269,3.4788,3.4994,3.4594,3.5594,3.5854,3.5836,3.6557,3.7414,3.8204,3.8428,3.9115,3.9865,4.0061,4.0098,4.0098,4.0217,4.0666,4.1104,4.1104,4.0595,4.0098,4.0098,3.9631,3.9212,3.9122,3.9264,3.9261,3.8726,3.8712,3.8354,3.6952,3.6836,3.6546,3.5597,0.0,3.8159,3.8916,4.0189,4.1305,4.2049,4.1677,4.2049,4.3755,4.301,4.3572,4.6143,4.7158,4.7897,4.8375,4.9082,4.9876,5.0716,5.0877,5.1385,5.2286,5.5401,5.7306,5.8092,6.0497,6.1832,6.219,6.1634,6.1274,6.0986,6.0572,6.1268,6.2652,6.288,6.4417,6.6512,6.6623,6.71,6.7811,3.9697,3.9697,3.9697,3.9697,3.9697,3.9697,3.9697,4.0174,4.0675,4.1227,4.1831,4.2286,4.2537,4.2562,4.2436,4.2108,4.158,4.1053,4.0524,4.0499,4.0275,3.9722,3.9697,3.9697,3.9697,3.8894,3.8191,3.7638,3.711,3.6683,3.6405,3.6405,3.6405,3.6405,3.6405,3.6256,3.5956,3.5656,3.5054,3.4368,3.4912,3.468,3.4168,3.6028,3.6468,3.6137,3.6822,3.6906,3.6884,3.7769,3.8394,3.8881,3.9494,4.0251,4.0864,4.0516,4.0666,4.0954,4.0954,4.1164,4.1505,4.2034,4.1544,4.1055,4.1596,4.077,3.9948,3.9948,3.9714,3.9407,3.9176,3.8574,3.8038,3.7967,3.7568,0.0,0.0,3.8753,3.9952,4.0696,4.1745,4.2848,4.4012,4.3809,4.4045,4.5094,4.4891,4.5345,4.6733,4.7481,4.8225,4.8984,4.9843,5.0551,5.1011,5.1395,5.185,5.2316,5.5034,5.6735,5.7572,5.9503,6.0532,6.0784,6.0404,5.9999,5.9597,5.9664,6.0423,6.1605,6.2458,6.4052,6.5962,6.6843,6.737,6.7811,3.9774,3.9929,4.0057,3.9749,3.9697,3.9697,3.9697,4.0049,4.0499,4.1051,4.1505,4.1858,4.1984,4.1984,4.1781,4.1352,4.08,4.0499,4.0499,4.0374,4.0149,3.9722,3.9697,3.9697,3.9697,3.917,3.8617,3.8015,3.7462,3.6984,3.6582,3.6455,3.648,3.6582,3.6455,3.6405,3.638,3.5906,3.533,3.4743,3.5145,3.5157,3.5083,3.6786,3.7494,3.761,3.8035,3.7959,3.7881,3.9025,3.9382,3.9594,4.0561,4.1224,4.1523,4.1014,4.1343,4.1822,4.1673,4.1733,4.207,4.3032,4.2443,4.1897,4.2821,4.1785,4.0576,4.0427,4.0008,3.9577,3.9361,3.8586,3.8215,3.8846,0.0,0.0,0.0,4.0681,4.1813,4.274,4.3335,4.4282,4.5805,4.5974,4.6041,4.621,4.6583,4.6955,4.7293,4.7684,4.8225,4.8984,5.0085,5.0761,5.093,5.1691,5.2063,5.2063,5.4418,5.6005,5.6923,5.8164,5.8857,5.9094,5.8909,5.8459,5.7954,5.8564,5.9443,6.0549,6.1979,6.3646,6.5472,6.688,6.7554,6.7811,3.9929,4.0642,4.1094,3.9904,3.9697,3.9697,3.9697,3.9722,3.9948,4.0474,4.0601,4.08,4.1327,4.1378,4.1352,4.1302,4.08,4.0499,4.0499,4.0049,3.9747,3.9697,3.9697,3.9697,3.9697,3.917,3.8617,3.8015,3.7462,3.7185,3.7135,3.6632,3.6658,3.7135,3.6607,3.6405,3.6405,3.6331,3.5703,3.4703,3.4743,3.5069,3.5578,3.6113,3.729,3.8717,3.9143,3.9276,3.943,4.0744,4.12,4.1338,4.2013,4.2291,4.2321,4.2261,4.2671,4.304,4.2481,4.2731,4.3416,4.4394,4.3491,4.256,4.3513,4.2486,4.1164,4.0516,4.0367,3.9936,3.872,3.9052,3.9376,3.8805,0.0,0.0,4.1036,4.1734,4.2773,4.4228,4.4479,4.5074,4.6597,4.6718,4.6989,4.7684,4.7158,4.7394,4.8748,4.8225,4.8225,4.8984,4.912,4.9492,5.0168,5.0913,5.1269,5.1319,5.3595,5.5469,5.6907,5.6942,5.7758,5.9044,5.8299,5.7954,5.79,5.7972,5.896,6.0503,6.134,6.3171,6.5398,6.6256,6.7063,6.77,4.097,4.1269,4.1194,3.9904,3.9697,3.9697,3.9697,3.9697,3.9898,4.0424,4.0499,4.0575,4.0775,4.08,4.0675,4.035,4.0124,3.9998,3.9998,3.9798,3.9697,3.9697,3.9697,3.9697,3.9697,3.9496,3.8944,3.8015,3.7789,3.7361,3.6683,3.6505,3.6507,3.6683,3.6505,3.6405,3.6405,3.6405,3.5931,3.5294,3.6289,3.6619,3.6695,3.8226,3.9222,3.9864,4.0446,4.0636,4.0786,4.1703,4.2021,4.2081,4.2321,4.2661,4.297,4.297,4.313,4.325,4.301,4.313,4.3547,4.4548,4.388,4.3214,4.4185,4.3168,4.1961,4.1673,4.1313,4.0864,4.0355,4.0654,4.1381,4.2539,0.0,4.3061,4.448,4.4533,4.4621,4.5196,4.5684,4.6346,4.7394,4.7481,4.7785,4.8529,4.8342,4.8409,4.8984,4.8732,4.8714,4.8984,4.9018,4.912,4.9424,5.0135,5.0744,5.1201,5.254,5.3964,5.5484,5.5928,5.6696,5.7652,5.7366,5.7476,5.7902,5.7945,5.8945,6.0584,6.2376,6.4011,6.5472,6.6769,6.7444,6.7627,4.1764,4.1912,4.1665,3.9981,3.9697,3.9697,3.9697,3.9697,3.9823,4.0199,4.0249,4.0249,4.0249,4.0249,4.0099,3.9722,3.9697,3.9697,3.9697,3.9697,3.9697,3.9697,3.9697,3.9697,3.9697,3.9697,3.9145,3.8015,3.8191,3.7789,3.6909,3.6733,3.6733,3.6884,3.6532,3.6405,3.6405,3.6405,3.6265,3.614,3.7037,3.7627,3.8066,3.9167,3.991,4.0427,4.0666,4.0756,4.0876,4.1553,4.1912,4.2141,4.2321,4.2791,4.329,4.329,4.329,4.3349,4.3579,4.3609,4.3787,4.461,4.4215,4.3827,4.4629,4.3697,4.2631,4.244,4.2032,4.1643,4.1433,4.1989,4.3048,4.4586,4.4637,4.4994,4.6591,4.6346,4.6143,4.6365,4.6853,4.7428,4.8157,4.8259,4.8462,4.8951,4.9018,4.9018,4.9018,4.9018,4.9018,4.9018,4.9018,4.9018,4.9018,4.9729,5.0473,5.1201,5.1961,5.3112,5.4617,5.5349,5.5978,5.6478,5.6675,5.7087,5.7583,5.7874,5.8943,6.0606,6.2789,6.4321,6.5472,6.6806,6.7333,6.726,4.2108,4.2617,4.2665,4.016,3.9697,3.9697,3.9697,3.9697,3.9697,3.9697,3.9697,3.9697,3.9697,3.9697,3.9697,3.9697,3.9697,3.9697,3.9697,3.9697,3.9697,3.9697,3.9697,3.9697,3.9697,3.9697,3.9145,3.8015,3.8617,3.8592,3.799,3.7437,3.7462,3.7939,3.6859,3.6405,3.6405,3.6405,3.6773,3.7254,3.6586,3.7729,3.965,3.8352,3.8871,4.0307,3.966,3.9421,3.9511,4.0187,4.0846,4.1523,4.2201,4.2821,4.329,4.329,4.329,4.3439,4.4117,4.4296,4.4409,4.4714,4.456,4.4399,4.4702,4.4024,4.313,4.2511,4.241,4.2201,4.1542,4.2909,4.4125,4.4125,4.5621,4.6834,4.6834,4.6834,4.709,4.7819,4.7921,4.8191,4.8951,4.9018,4.9018,4.9018,4.9018,4.9018,4.9018,4.9018,4.9018,4.9018,4.9018,4.9018,4.9018,4.9729,5.0473,5.1201,5.1961,5.3078,5.4618,5.5367,5.5698,5.5735,5.6484,5.681,5.6879,5.7656,5.8935,6.0566,6.2181,6.3798,6.5398,6.6182,6.6476,6.6476,4.1832,4.1912,4.164,3.9981,3.9697,3.9697,3.9697,3.9697,3.9697,3.9697,3.9697,3.9697,3.9697,3.9697,3.9697,3.9697,3.9697,3.9697,3.9697,3.9697,3.9697,3.9697,3.9697,3.9697,3.9697,3.9697,3.9346,3.8642,3.8818,3.8391,3.7462,3.7286,3.7085,3.6859,3.6532,3.6405,3.6452,3.7266,3.771,3.7899,3.8407,3.9025,3.9668,3.9637,3.9661,3.978,4.0546,4.0487,4.0217,4.0894,4.1553,4.2211,4.2821,4.316,4.3379,4.3878,4.3997,4.4147,4.4825,4.5364,4.5606,4.5243,4.472,4.4338,4.4428,4.3858,4.325,4.307,4.301,4.3186,4.3693,4.4782,4.579,4.6435,4.7542,4.8342,4.8342,4.8342,4.8443,4.8646,4.8665,4.8766,4.8984,4.9018,4.9018,4.9018,4.9018,4.9018,4.9018,4.9018,4.9018,4.9018,4.9018,4.9255,4.9763,4.9492,4.9965,5.1201,5.1404,5.2626,5.4624,5.5365,5.5996,5.6547,5.6791,5.7148,5.767,5.796,5.9006,6.0548,6.2182,6.3471,6.4567,6.5375,6.5655,6.5582,4.1535,4.1433,4.1194,3.9904,3.9697,3.9697,3.9697,3.9697,3.9697,3.9697,3.9697,3.9697,3.9697,3.9697,3.9697,3.9697,3.9697,3.9697,3.9697,3.9697,3.9697,3.9697,3.9697,3.9697,3.9697,3.9697,3.9446,3.8894,3.912,3.8768,3.7864,3.7637,3.7337,3.7009,3.6582,3.6639,3.7127,3.7815,3.8622,3.9513,3.9852,4.0125,4.0334,4.0393,3.996,3.9511,4.0307,4.0337,4.0068,4.0457,4.1224,4.2152,4.304,4.3469,4.3788,4.4177,4.4496,4.4855,4.5514,4.5971,4.6271,4.6142,4.5603,4.5014,4.4766,4.4386,4.4027,4.3758,4.3698,4.3927,4.4667,4.58,4.686,4.7505,4.8652,4.9323,4.9052,4.9018,4.9018,4.9018,4.9018,4.9107,4.9376,4.9421,4.9421,4.9421,4.9153,4.9018,4.9018,4.9018,4.9018,4.9018,4.9018,4.9357,5.0083,4.9661,5.0168,5.1641,5.1641,5.2702,5.4622,5.5382,5.5949,5.6432,5.6765,5.7162,5.759,5.7954,5.8996,6.0526,6.1836,6.3062,6.4176,6.464,6.4824,6.4751,4.1138,4.11,4.1044,3.9904,3.9697,3.9697,3.9697,3.9697,3.9697,3.9697,3.9697,3.9697,3.9697,3.9697,3.9697,3.9697,3.9697,3.9697,3.9697,3.9697,3.9697,3.9697,3.9697,3.9697,3.9697,3.9697,3.9472,3.8969,3.9472,3.9446,3.8894,3.8266,3.799,3.7889,3.6978,3.7127,3.8107,3.8334,3.9661,4.155,4.0977,4.1018,4.1343,4.0666,3.996,3.9373,3.9283,3.9265,3.9294,3.9384,4.0353,4.1703,4.2921,4.3758,4.4296,4.4356,4.4855,4.5544,4.6211,4.639,4.654,4.716,4.6839,4.6211,4.5544,4.5334,4.5166,4.4648,4.4518,4.4699,4.5166,4.6475,4.7614,4.7902,4.9203,4.9932,4.9187,4.9086,4.9086,4.9086,4.9148,4.9449,5.0051,5.0096,5.0075,5.0004,4.9432,4.9061,4.8984,4.9018,4.9018,4.9018,4.9052,4.9458,5.0168,5.0236,5.0947,5.23,5.23,5.3144,5.4711,5.5393,5.5794,5.5948,5.6682,5.6989,5.7061,5.7774,5.8977,6.0382,6.108,6.2414,6.3882,6.3882,6.3919,6.3992,4.0133,4.0033,4.0032,3.9749,3.9697,3.9697,3.9697,3.9697,3.9697,3.9697,3.9697,3.9697,3.9697,3.9697,3.9697,3.9697,3.9697,3.9697,3.9697,3.9697,3.9697,3.9697,3.9697,3.9697,3.9697,3.9697,3.9647,3.9547,3.9647,3.9446,3.8894,3.8266,3.7789,3.7385,3.7619,3.7883,3.8221,4.0074,4.1119,4.1612,4.1882,4.178,4.1343,4.0666,3.996,3.9283,3.8453,3.8144,3.8289,3.9363,4.0801,4.2301,4.307,4.3758,4.4386,4.4915,4.5574,4.6241,4.6899,4.7078,4.713,4.7279,4.7189,4.692,4.6241,4.5693,4.5512,4.6188,4.6355,4.6807,4.8429,4.9003,4.9502,5.0289,5.0716,5.071,4.9981,4.9864,4.9864,4.9864,5.0412,5.0823,5.0939,5.0898,5.0622,5.0047,4.9881,4.9566,4.9015,4.9018,4.9018,4.9018,4.956,5.0202,5.093,5.1522,5.1995,5.23,5.23,5.3413,5.548,5.5638,5.6345,5.7522,5.7703,5.7762,5.7798,5.7945,5.8601,5.949,5.9636,6.0713,6.2144,6.2144,6.2548,6.3086,3.9424,3.9521,3.9697,3.9697,3.9697,3.9697,3.9697,3.9697,3.9697,3.9697,3.9697,3.9697,3.9697,3.9697,3.9697,3.9697,3.9697,3.9697,3.9697,3.9697,3.9697,3.9697,3.9697,3.9697,3.9697,3.9697,3.9697,3.9697,3.9697,3.9546,3.9271,3.8391,3.7839,3.7611,3.7927,3.8424,3.9072,4.0873,4.1926,4.2438,4.2723,4.2451,4.1792,4.1134,4.0457,3.9682,3.8298,3.7672,3.7692,3.9251,4.0566,4.1735,4.2942,4.3967,4.4855,4.5185,4.5992,4.6839,4.7219,4.7309,4.7309,4.7309,4.7309,4.7219,4.6839,4.6531,4.6311,4.6549,4.7004,4.7695,4.8878,4.9766,5.0505,5.1105,5.1505,5.1488,5.0744,5.0608,5.0608,5.0608,5.1317,5.1904,5.2183,5.2164,5.1696,5.0616,5.0216,4.9845,4.9539,4.9187,4.9154,4.9492,4.956,5.0101,5.1201,5.1573,5.2131,5.2875,5.2875,5.3851,5.5709,5.5709,5.6554,5.7997,5.7997,5.7997,5.7997,5.7997,5.8462,5.9196,5.9196,6.0187,6.1606,6.1606,6.2108,6.2793,3.9146,3.9371,3.9697,3.9697,3.9697,3.9697,3.9697,3.9697,3.9697,3.9697,3.9697,3.9697,3.9697,3.9697,3.9647,3.9572,3.9647,3.9697,3.9697,3.9697,3.9697,3.9697,3.9697,3.9697,3.9697,3.9697,3.9697,3.9697,3.9697,3.9697,3.9672,3.8542,3.8015,3.8014,3.8083,3.876,3.995,4.1127,4.2342,4.3469,4.3469,4.312,4.2462,4.1701,4.0899,3.9898,3.8169,3.7378,3.7394,3.9106,4.017,4.1088,4.2911,4.4296,4.5304,4.5424,4.6352,4.7309,4.7309,4.7309,4.7309,4.7309,4.7309,4.7309,4.7309,4.7309,4.7173,4.6795,4.7384,4.8105,4.8578,4.9982,5.1149,5.1295,5.1982,5.2216,5.1472,5.137,5.137,5.137,5.2215,5.3049,5.3833,5.3544,5.2785,5.1566,5.0556,5.0041,5.0079,4.94,4.9289,4.9898,4.9424,4.9796,5.0998,5.1269,5.2013,5.3315,5.345,5.4248,5.5709,5.5709,5.6554,5.7997,5.7997,5.7923,5.7813,5.7923,5.8327,5.8792,5.8939,5.9967,6.141,6.1704,6.2218,6.2793,3.9623,3.9647,3.9697,3.9697,3.9697,3.9697,3.9697,3.9697,3.9697,3.9697,3.9697,3.9697,3.9697,3.9697,3.9496,3.9044,3.9421,3.9697,3.9697,3.9697,3.9697,3.9697,3.9697,3.9697,3.9697,3.9697,3.9697,3.9697,3.9697,3.9697,3.9672,3.8542,3.8015,3.8014,3.8083,3.876,3.995,4.1127,4.2576,4.4147,4.4147,4.3758,4.3061,4.196,4.0512,3.8783,3.711,3.6849,3.7464,3.8702,4.016,4.1774,4.3584,4.4706,4.5394,4.6001,4.6689,4.7309,4.7309,4.7309,4.7309,4.7309,4.7309,4.7309,4.7309,4.7309,4.7529,4.8295,4.8563,4.8959,4.9949,5.1034,5.1759,5.1819,5.2653,5.3078,5.2266,5.2164,5.2164,5.2164,5.338,5.4773,5.6179,5.4481,5.3219,5.3026,5.117,5.008,5.0034,4.935,4.9052,4.9154,4.9661,5.0033,5.0252,5.1522,5.2266,5.2469,5.3179,5.4248,5.5709,5.5709,5.6554,5.7997,5.7997,5.7593,5.7042,5.7703,5.7666,5.7178,5.7886,5.9134,6.075,6.2132,6.2719,6.2793,3.9647,3.9697,3.9697,3.9697,3.9697,3.9697,3.9697,3.9697,3.9697,3.9697,3.9697,3.9697,3.9697,3.9697,3.9597,3.9371,3.9296,3.9396,3.9672,3.9421,3.9396,3.9672,3.9697,3.9697,3.9697,3.9697,3.9546,3.9245,3.9245,3.9069,3.8743,3.7914,3.7538,3.7586,3.7927,3.8401,3.9055,4.1213,4.2615,4.3445,4.443,4.4089,4.2793,4.1939,4.0469,3.8621,3.6909,3.6304,3.6573,3.839,3.9724,4.1071,4.3548,4.4766,4.5424,4.6091,4.6779,4.7309,4.7309,4.7309,4.7309,4.7309,4.7578,4.7848,4.7848,4.7848,4.7881,4.7952,4.8418,4.8932,4.9416,5.0836,5.1903,5.1903,5.2818,5.3382,5.301,5.2976,5.3271,5.4083,5.4764,5.5598,5.6697,5.5122,5.365,5.2809,5.1064,5.006,5.0078,4.9372,4.9187,4.9593,4.9526,4.9661,5.0117,5.115,5.1877,5.23,5.3112,5.4042,5.5084,5.5524,5.634,5.7413,5.7809,5.7556,5.6811,5.7178,5.7104,5.6847,5.7189,5.8315,5.9857,6.1031,6.1741,6.2144]}]]